Date StartTime U_cm/s V_cm/s W_cm/s Ustd_cm/s Vstd_cm/s Wstd_cm/s Uvar_(cm/s)^2 Vvar_(cm/s)^2 Wvar_(cm/s)^2 KE_(m/s)^2 TurbulentKE_(m/s)^2 HorizWindSpeed_cm/s FrictionSpeec_cm/s DragCoef SpeedOfSound_m/s SonicTemperature_C Pressure_mb 
11/12/2014  00:00:00       23.363      142.867      -27.510       14.513       19.896        8.317      210.613      395.839       69.164        1.119        0.034      144.765        6.839        0.002      335.250        5.759      858.966
11/12/2014  00:01:00       33.563      152.455      -30.040       18.724       24.122       14.323      350.590      581.892      205.152        1.320        0.057      156.106        7.396        0.002      335.216        5.700      858.986
11/12/2014  00:02:00       13.863      177.966      -27.841       19.338       49.945       13.995      373.946     2494.547      195.860        1.785        0.153      178.505       18.916        0.011      335.273        5.794      859.007
11/12/2014  00:03:00        4.676      174.282      -30.339       22.397       29.634       15.159      501.624      878.171      229.798        1.646        0.080      174.345       10.397        0.004      335.322        5.879      859.015
11/12/2014  00:04:00       14.199      116.365      -20.943       18.832       21.121       12.927      354.661      446.111      167.095        0.757        0.048      117.228        8.295        0.005      335.160        5.610      859.007
11/12/2014  00:05:00        2.318      126.886      -18.378       24.760       16.205       11.106      613.034      262.593      123.354        0.872        0.050      126.907        8.598        0.005      335.242        5.744      858.995
11/12/2014  00:06:00      -18.808      124.557      -13.701       16.189       26.935       11.703      262.072      725.480      136.971        0.859        0.056      125.969        8.225        0.004      335.252        5.761      858.998
11/12/2014  00:07:00       -3.398       75.975       -8.051       32.842       39.688       15.107     1078.576     1575.120      228.207        0.436        0.144       76.051       12.154        0.026      335.173        5.630      858.994
11/12/2014  00:08:00       39.399       33.978        3.285       27.063       19.851       18.309      732.418      394.072      335.209        0.209        0.073       52.027        8.695        0.028      335.043        5.416      858.987
11/12/2014  00:09:00       43.197      109.422      -10.722       32.065       39.870       19.413     1028.139     1589.604      376.882        0.847        0.150      117.640       20.155        0.029      335.113        5.532      858.994
11/12/2014  00:10:00       17.209      137.111      -21.564       28.198       36.193       14.283      795.146     1309.909      203.993        1.093        0.115      138.186       13.579        0.010      335.155        5.602      859.011
11/12/2014  00:11:00       13.603      101.819      -21.328       32.409       34.380       20.615     1050.339     1181.979      424.993        0.683        0.133      102.724       15.309        0.022      335.209        5.691      859.014
11/12/2014  00:12:00       -8.891      146.796      -23.957       34.713       31.833       19.579     1204.971     1013.338      383.319        1.240        0.130      147.065       17.643        0.014      335.347        5.919      859.016
11/12/2014  00:13:00        8.708      146.998      -27.809       18.843       23.219       14.834      355.043      539.140      220.060        1.179        0.056      147.256       11.265        0.006      335.187        5.654      859.026
11/12/2014  00:14:00      -13.288      144.641      -25.241       19.860       27.936       13.620      394.418      780.440      185.498        1.155        0.068      145.250       14.877        0.010      335.276        5.801      859.034
11/12/2014  00:15:00       -4.301      127.289      -15.821       19.338       29.206       13.355      373.954      852.972      178.352        0.894        0.070      127.362       14.495        0.013      335.273        5.797      859.035
11/12/2014  00:16:00      -22.670       94.960       -7.062       33.830       39.130       25.002     1144.438     1531.160      625.087        0.644        0.165       97.628       19.625        0.040      335.345        5.917      859.045
11/12/2014  00:17:00      -21.769      137.458      -17.489       23.184       24.637       15.393      537.490      606.987      236.957        1.053        0.069      139.171        8.892        0.004      335.416        6.035      859.061
11/12/2014  00:18:00      -23.075      127.036      -15.942       23.886       30.633       16.493      570.538      938.359      272.005        0.935        0.089      129.115        8.682        0.005      335.378        5.971      859.080
11/12/2014  00:19:00      -27.451      138.393      -22.911       18.830       26.812       12.773      354.551      718.909      163.148        1.083        0.062      141.089       12.135        0.007      335.351        5.926      859.104
11/12/2014  00:20:00      -37.963       47.998       -1.512       22.912       38.408       15.763      524.938     1475.148      248.463        0.300        0.112       61.196        9.949        0.026      335.303        5.846      859.129
11/12/2014  00:21:00      -65.801       44.733      -14.245       18.888       40.576       18.822      356.762     1646.418      354.272        0.445        0.118       79.566       12.998        0.027      335.210        5.692      859.152
11/12/2014  00:22:00      -58.283       53.754      -11.520       26.051       21.478       18.837      678.679      461.285      354.820        0.396        0.075       79.287       13.466        0.029      335.256        5.767      859.164
11/12/2014  00:23:00      -67.221       51.702      -13.037       29.016       24.079       18.699      841.918      579.798      349.645        0.457        0.089       84.804       15.770        0.035      335.315        5.866      859.178
11/12/2014  00:24:00      -86.573       46.575      -14.529       25.587       31.048       20.918      654.673      963.949      437.555        0.597        0.103       98.306       16.844        0.029      335.253        5.762      859.204
11/12/2014  00:25:00      -89.889       67.929      -15.338       29.193       44.981       23.820      852.228     2023.307      567.415        0.819        0.172      112.670       26.315        0.055      335.251        5.760      859.228
11/12/2014  00:26:00     -102.389      110.687      -25.073       31.310       33.792       25.018      980.308     1141.874      625.878        1.306        0.137      150.782       14.292        0.009      335.250        5.759      859.238
11/12/2014  00:27:00      -59.713      102.374      -16.427       44.670       41.699       23.520     1995.367     1738.847      553.196        0.930        0.214      118.516       19.229        0.026      335.318        5.872      859.243
11/12/2014  00:28:00     -111.104      105.992      -37.143       20.810       29.311       19.360      433.059      859.108      374.799        1.331        0.083      153.552       15.799        0.011      335.249        5.755      859.246
11/12/2014  00:29:00      -63.122       22.814      -10.484       26.127       15.864       12.796      682.595      251.654      163.743        0.286        0.055       67.118       11.285        0.028      335.241        5.744      859.241
11/12/2014  00:30:00      -51.991        2.142       -9.850       13.459       14.766       10.518      181.141      218.040      110.626        0.166        0.025       52.035        5.533        0.011      335.285        5.817      859.232
11/12/2014  00:31:00      -87.307       39.568      -18.114       24.828       24.992       19.222      616.453      624.619      369.477        0.556        0.081       95.855       17.624        0.034      335.368        5.955      859.223
11/12/2014  00:32:00      -79.968       59.931      -16.893       25.225       24.372       17.282      636.313      594.013      298.684        0.590        0.076       99.932       14.102        0.020      335.251        5.759      859.228
11/12/2014  00:33:00      -76.619       10.791       -5.932       18.570       14.981       11.268      344.834      224.432      126.957        0.336        0.035       77.375        7.765        0.010      335.233        5.731      859.230
11/12/2014  00:34:00      -37.127       23.147       -7.606       20.936       16.326       13.752      438.295      266.545      189.124        0.143        0.045       43.751       13.594        0.097      335.213        5.696      859.226
11/12/2014  00:35:00      -54.151       40.322      -10.668       21.076       16.262       12.338      444.193      264.446      152.238        0.277        0.043       67.515        7.674        0.013      335.273        5.796      859.223
11/12/2014  00:36:00      -49.113       18.100       -2.143       21.453       21.701       13.499      460.248      470.946      182.219        0.193        0.056       52.342       13.169        0.063      335.223        5.713      859.222
11/12/2014  00:37:00      -85.497       27.864      -14.139       19.979       16.612       11.925      399.162      275.955      142.212        0.455        0.041       89.923        8.494        0.009      335.219        5.706      859.231
11/12/2014  00:38:00      -84.602       52.895      -19.401       25.834       25.774       17.648      667.371      664.288      311.445        0.599        0.082       99.777       16.379        0.027      335.139        5.575      859.245
11/12/2014  00:39:00      -99.840       81.958      -25.637       36.011       40.430       19.217     1296.782     1634.545      369.312        1.032        0.165      129.171       19.481        0.023      335.215        5.700      859.246
11/12/2014  00:40:00      -67.858       49.469       -3.193       35.681       32.774       26.078     1273.156     1074.138      680.040        0.504        0.151       83.975       15.957        0.036      335.157        5.604      859.247
11/12/2014  00:41:00      -83.872       40.613      -14.670       33.269       20.861       15.710     1106.859      435.193      246.812        0.534        0.089       93.187        6.062        0.004      335.180        5.642      859.263
11/12/2014  00:42:00      -57.454       -1.371       -6.465       24.825       27.232       12.512      616.287      741.557      156.560        0.243        0.076       57.470        8.057        0.020      335.185        5.649      859.270
11/12/2014  00:43:00      -42.346      -16.841        0.869       17.385       16.121       13.533      302.237      259.889      183.143        0.141        0.037       45.572       11.996        0.069      335.059        5.443      859.279
11/12/2014  00:44:00      -47.134      -10.461       -5.445       10.089       12.079        8.799      101.779      145.893       77.425        0.134        0.016       48.281        3.971        0.007      335.013        5.364      859.287
11/12/2014  00:45:00      -56.224      -29.608       -6.492       20.973        8.773        8.015      439.850       76.969       64.242        0.233        0.029       63.543        2.522        0.002      335.098        5.506      859.289
11/12/2014  00:46:00      -71.074       -6.049      -17.671       28.703       24.862       16.961      823.891      618.137      287.664        0.356        0.086       71.331       13.682        0.037      335.186        5.652      859.298
11/12/2014  00:47:00      -47.540       -7.827       -7.407       19.784       18.896       11.372      391.424      357.062      129.314        0.163        0.044       48.180       10.429        0.047      335.168        5.622      859.304
11/12/2014  00:48:00      -39.123       -8.169       -4.777       14.334        9.115        6.428      205.468       83.088       41.316        0.097        0.016       39.967        6.011        0.023      335.012        5.365      859.306
11/12/2014  00:49:00      -44.098      -11.728       -4.751       14.820       13.501        8.813      219.626      182.288       77.671        0.129        0.024       45.631        6.154        0.018      335.010        5.362      859.301
11/12/2014  00:50:00      -57.505        2.670       -9.986       23.521       15.225       12.095      553.236      231.790      146.301        0.217        0.047       57.567       11.623        0.041      334.948        5.259      859.305
11/12/2014  00:51:00      -59.519      -12.814      -10.056       10.935       10.791        6.754      119.564      116.449       45.623        0.204        0.014       60.882        5.672        0.009      334.930        5.228      859.304
11/12/2014  00:52:00      -73.163      -19.440      -16.983       23.228       12.248        9.818      539.518      150.024       96.388        0.340        0.039       75.702       10.780        0.020      334.920        5.211      859.306
11/12/2014  00:53:00      -44.363       -6.214       -4.375       30.744       29.021       19.031      945.211      842.206      362.191        0.209        0.107       44.796        9.713        0.047      335.007        5.355      859.310
11/12/2014  00:54:00      -69.235      -27.471       -6.747       11.573       16.952        8.082      133.928      287.362       65.313        0.304        0.024       74.486        5.475        0.005      334.812        5.032      859.316
11/12/2014  00:55:00      -70.612       -2.793       -7.227       20.450       15.146       11.091      418.196      229.412      123.014        0.291        0.039       70.667        9.035        0.016      334.695        4.838      859.316
11/12/2014  00:56:00      -50.597      -11.509       -5.633       24.721       13.051       10.984      611.130      170.338      120.649        0.181        0.045       51.889       12.614        0.059      334.657        4.774      859.322
11/12/2014  00:57:00      -76.203      -33.181       -6.929       17.963       17.494       10.632      322.671      306.035      113.049        0.385        0.037       83.113        6.155        0.005      334.766        4.956      859.335
11/12/2014  00:58:00      -68.102      -34.817       -3.529       20.398       18.854       12.564      416.061      355.478      157.857        0.340        0.046       76.486       11.306        0.022      334.700        4.846      859.344
11/12/2014  00:59:00      -65.735      -42.242       -7.629       10.663       10.281        8.750      113.705      105.708       76.568        0.323        0.015       78.138        7.496        0.009      334.769        4.961      859.349
11/12/2014  01:00:00      -63.826      -30.517       -3.372       11.231       10.358        5.686      126.145      107.281       32.332        0.264        0.013       70.747        1.966        0.001      334.692        4.833      859.349
11/12/2014  01:01:00      -67.837      -24.498       -6.408       11.746        9.151        9.215      137.967       83.735       84.913        0.277        0.015       72.125        3.310        0.002      334.660        4.780      859.351
11/12/2014  01:02:00       -8.513      -23.710        5.604       37.877       19.192       16.578     1434.687      368.342      274.839        0.137        0.104       25.192       19.453        0.596      334.545        4.587      859.349
11/12/2014  01:03:00      -16.291      -26.815       10.424       29.744       22.400       18.590      884.701      501.758      345.606        0.141        0.087       31.375       20.176        0.414      334.500        4.514      859.364
11/12/2014  01:04:00      -62.293      -29.056        9.367       48.364       25.179       19.262     2339.101      633.970      371.032        0.408        0.167       68.736       15.284        0.049      334.338        4.246      859.374
11/12/2014  01:05:00      -47.563      -38.613        9.878       40.211       37.661       18.852     1616.901     1418.369      355.401        0.362        0.170       61.263       22.753        0.138      334.405        4.356      859.375
11/12/2014  01:06:00      -76.705      -46.279        2.000       39.871       36.302       21.857     1589.722     1317.843      477.735        0.571        0.169       89.585       20.331        0.052      334.369        4.299      859.371
11/12/2014  01:07:00      -45.656      -46.354        0.721       37.250       19.592       16.164     1387.554      383.841      261.275        0.313        0.102       65.063       16.518        0.064      334.398        4.345      859.374
11/12/2014  01:08:00      -42.808      -56.286        6.496       33.300       20.487       19.312     1108.898      419.729      372.946        0.347        0.095       70.715       19.404        0.075      334.415        4.374      859.383
11/12/2014  01:09:00      -29.349      -64.574        3.259       31.372       26.242       19.625      984.226      688.617      385.156        0.355        0.103       70.931       16.913        0.057      334.474        4.471      859.390
11/12/2014  01:10:00      -19.317      -62.162        1.536       25.365       33.476       15.424      643.403     1120.661      237.885        0.312        0.100       65.095       15.967        0.060      334.519        4.545      859.394
11/12/2014  01:11:00      -19.931      -45.901       -1.612       20.634       21.850       13.112      425.743      477.426      171.932        0.179        0.054       50.042        8.150        0.027      334.527        4.559      859.399
11/12/2014  01:12:00      -25.429      -47.097       -0.792       17.663       19.598       17.081      311.965      384.068      291.746        0.193        0.049       53.524       13.523        0.064      334.426        4.391      859.413
11/12/2014  01:13:00       -2.189      -38.299       -4.538       13.049       16.876       10.227      170.285      284.810      104.587        0.103        0.028       38.361        4.336        0.013      334.367        4.294      859.429
11/12/2014  01:14:00       -6.758      -15.353        5.242       21.972       12.495       11.326      482.770      156.135      128.285        0.054        0.038       16.774       10.382        0.383      334.408        4.361      859.427
11/12/2014  01:15:00      -34.166      -18.189        2.881       19.048       18.107       12.639      362.832      327.875      159.732        0.118        0.043       38.706        9.966        0.066      334.382        4.320      859.410
11/12/2014  01:16:00      -38.744      -21.206       -2.274       16.840       12.483        9.929      283.581      155.823       98.591        0.125        0.027       44.168        6.291        0.020      334.447        4.425      859.392
11/12/2014  01:17:00      -63.728      -17.269       -6.471       10.952       12.098        8.639      119.945      146.352       74.637        0.237        0.017       66.026        7.433        0.013      334.335        4.240      859.393
11/12/2014  01:18:00      -55.560      -36.919       -6.872       11.394       11.952       11.818      129.827      142.857      139.670        0.245        0.021       66.708        6.001        0.008      334.379        4.314      859.391
11/12/2014  01:19:00       10.901      -38.076       -2.536       16.696       19.820       13.732      278.745      392.819      188.570        0.122        0.043       39.606        9.255        0.055      334.411        4.367      859.383
11/12/2014  01:20:00      -26.553      -36.651        3.139       11.138       15.571       10.012      124.048      242.469      100.244        0.126        0.023       45.259        5.138        0.013      334.424        4.389      859.385
11/12/2014  01:21:00      -14.542        3.114        4.592       14.631        9.468       10.030      214.070       89.643      100.607        0.032        0.020       14.871        6.358        0.183      334.268        4.128      859.389
11/12/2014  01:22:00       -6.738      -20.451       -0.894       23.923       28.102       16.758      572.320      789.707      280.839        0.105        0.082       21.532       15.339        0.507      334.418        4.379      859.384
11/12/2014  01:23:00       -8.079      -37.497       -0.687       15.237       13.068       10.657      232.159      170.762      113.570        0.099        0.026       38.358        6.026        0.025      334.542        4.582      859.386
11/12/2014  01:24:00       -9.934      -15.334       -1.170       17.290        9.092        8.066      298.928       82.662       65.060        0.039        0.022       18.270        3.920        0.046      334.488        4.494      859.395
11/12/2014  01:25:00      -56.127       -5.889      -10.712       15.968       12.277        7.654      254.980      150.728       58.584        0.188        0.023       56.435        6.884        0.015      334.245        4.092      859.401
11/12/2014  01:26:00      -71.196      -24.205       -4.948       14.260       15.548        8.840      203.354      241.726       78.153        0.310        0.026       75.199        3.738        0.002      334.217        4.045      859.424
11/12/2014  01:27:00      -66.263      -39.630      -11.574       18.027       11.758        7.683      324.972      138.243       59.029        0.331        0.026       77.210        7.577        0.010      334.261        4.119      859.444
11/12/2014  01:28:00       -3.834      -25.193        0.593       17.340       17.732        6.398      300.661      314.426       40.937        0.065        0.033       25.484        3.012        0.014      334.385        4.322      859.459
11/12/2014  01:29:00      -20.831      -16.945       -0.962       17.741       12.173        7.326      314.743      148.171       53.671        0.062        0.026       26.853        7.162        0.071      334.433        4.403      859.471
11/12/2014  01:30:00      -45.226      -10.696      -11.807        8.803        7.311        6.310       77.495       53.450       39.816        0.123        0.009       46.474        4.331        0.009      334.396        4.340      859.486
11/12/2014  01:31:00      -35.115       -9.819      -10.654       11.261       10.092        6.440      126.809      101.847       41.469        0.086        0.014       36.462        4.812        0.017      334.600        4.679      859.504
11/12/2014  01:32:00      -17.521       11.702        4.591       15.060       20.309       13.391      226.795      412.456      179.326        0.064        0.041       21.069       16.142        0.587      334.601        4.681      859.513
11/12/2014  01:33:00      -32.439       -7.465       -0.059        8.099        6.736       11.189       65.588       45.379      125.195        0.067        0.012       33.287        7.344        0.049      334.458        4.445      859.532
11/12/2014  01:34:00      -21.720      -12.944       -5.032        5.397        8.892        5.124       29.133       79.066       26.254        0.040        0.007       25.285        4.285        0.029      334.411        4.368      859.543
11/12/2014  01:35:00       -7.291      -10.360        6.617        7.203        8.283        8.677       51.884       68.608       75.282        0.020        0.010       12.669        4.857        0.147      334.461        4.450      859.551
11/12/2014  01:36:00      -12.989        0.928        7.676       10.203        8.675        6.104      104.103       75.253       37.263        0.022        0.011       13.022        6.124        0.221      334.182        3.987      859.555
11/12/2014  01:37:00       30.664       23.432       11.631       16.469       11.568       14.442      271.236      133.823      208.574        0.112        0.031       38.592        8.480        0.048      334.037        3.744      859.565
11/12/2014  01:38:00       38.305       26.789        2.487       15.795       11.629       16.182      249.483      135.243      261.867        0.142        0.032       46.743        7.387        0.025      333.848        3.433      859.575
11/12/2014  01:39:00       41.406       25.977        3.957       11.295       10.336       10.053      127.584      106.832      101.063        0.137        0.017       48.880        3.094        0.004      333.815        3.377      859.584
11/12/2014  01:40:00       15.536       15.273        1.911       12.766       10.061        5.463      162.981      101.219       29.844        0.039        0.015       21.786        5.248        0.058      333.805        3.362      859.591
11/12/2014  01:41:00       -8.473       -2.714        1.383       11.777        4.113        5.563      138.694       16.913       30.952        0.013        0.009        8.898        4.032        0.205      333.932        3.572      859.599
11/12/2014  01:42:00      -33.221       -5.404       -3.706       10.824        8.594        6.477      117.169       73.855       41.955        0.069        0.012       33.658        4.613        0.019      334.070        3.799      859.615
11/12/2014  01:43:00      -14.309      -10.421       -2.201       11.718        6.711        6.001      137.308       45.042       36.016        0.027        0.011       17.702        6.200        0.123      334.096        3.843      859.618
11/12/2014  01:44:00        1.867       -0.069       -0.080        3.472        6.128        4.199       12.056       37.556       17.628        0.004        0.003        1.869        2.616        1.960      334.288        4.163      859.628
11/12/2014  01:45:00      -11.066        1.059        1.661       11.967        5.827        4.789      143.216       33.955       22.938        0.016        0.010       11.117        4.251        0.146      334.232        4.068      859.641
11/12/2014  01:46:00      -13.615       -6.966       -1.221        5.005        7.405        3.860       25.046       54.835       14.902        0.017        0.005       15.294        3.243        0.045      334.085        3.826      859.649
11/12/2014  01:47:00        7.650       -5.535       -3.185       11.272       13.112        5.525      127.050      171.925       30.529        0.021        0.016        9.442        1.714        0.033      334.053        3.772      859.645
11/12/2014  01:48:00        6.817        2.608        1.390       13.016        4.910        6.761      169.417       24.110       45.711        0.015        0.012        7.299        3.362        0.212      333.997        3.680      859.640
11/12/2014  01:49:00      -13.281       -5.585       -1.054        4.775        5.760        2.909       22.797       33.173        8.463        0.014        0.003       14.408        2.879        0.040      334.070        3.802      859.621
11/12/2014  01:50:00      -41.865      -12.307       -5.064       13.701        9.233        8.475      187.725       85.254       71.826        0.114        0.017       43.636        5.432        0.015      333.941        3.586      859.630
11/12/2014  01:51:00      -49.552      -18.012       -7.897       10.530       10.310        5.710      110.886      106.304       32.608        0.155        0.012       52.724        3.736        0.005      333.870        3.469      859.641
11/12/2014  01:52:00      -54.614      -35.043      -11.979        9.052        7.704        7.491       81.948       59.353       56.114        0.228        0.010       64.890        3.013        0.002      333.928        3.566      859.639
11/12/2014  01:53:00      -59.383      -18.313       -8.452        7.915       11.516        7.093       62.643      132.626       50.310        0.209        0.012       62.142        3.572        0.003      333.922        3.557      859.626
11/12/2014  01:54:00      -42.138      -13.273       -8.692        5.254        7.154        4.830       27.607       51.176       23.325        0.106        0.005       44.179        1.352        0.001      333.945        3.593      859.615
11/12/2014  01:55:00      -32.199       -6.730       -5.250        6.011        6.789        4.622       36.129       46.089       21.366        0.061        0.005       32.895        2.432        0.005      333.981        3.654      859.609
11/12/2014  01:56:00      -46.405      -11.483       -8.876        8.808        6.671        6.008       77.585       44.499       36.098        0.126        0.008       47.805        1.673        0.001      334.074        3.805      859.616
11/12/2014  01:57:00      -56.782      -20.038       -7.140        9.746        8.821        8.823       94.989       77.803       77.838        0.196        0.013       60.214        4.408        0.005      334.047        3.762      859.634
11/12/2014  01:58:00      -58.973      -21.702      -12.629        8.921        6.776        5.658       79.590       45.919       32.017        0.213        0.008       62.839        3.237        0.003      333.954        3.609      859.651
11/12/2014  01:59:00      -66.009      -20.274      -10.317        7.080        7.188        5.535       50.128       51.663       30.633        0.250        0.007       69.052        2.102        0.001      334.067        3.795      859.663
11/12/2014  02:00:00      -65.159      -22.956      -11.548        5.512        5.830        5.238       30.381       33.992       27.433        0.250        0.005       69.085        3.118        0.002      333.993        3.674      859.674
11/12/2014  02:01:00      -66.569      -19.666      -13.626        6.835        7.772        6.217       46.719       60.410       38.656        0.257        0.007       69.413        1.991        0.001      333.988        3.666      859.675
11/12/2014  02:02:00      -65.792      -11.508      -11.750        7.939        9.156        5.747       63.035       83.823       33.025        0.239        0.009       66.790        3.412        0.003      334.030        3.733      859.674
11/12/2014  02:03:00      -52.771      -17.772       -6.058        7.330        6.620        4.233       53.732       43.818       17.922        0.163        0.006       55.683        2.304        0.002      334.173        3.971      859.681
11/12/2014  02:04:00      -27.427       -4.501       -5.964       16.333        5.998        6.135      266.781       35.973       37.635        0.057        0.017       27.794        6.046        0.047      334.219        4.048      859.688
11/12/2014  02:05:00       16.689       12.216        2.778       13.361       11.545       12.143      178.524      133.282      147.455        0.045        0.023       20.682        7.072        0.117      334.344        4.256      859.696
11/12/2014  02:06:00       17.345       22.600        0.478        9.260        6.936        4.756       85.744       48.102       22.620        0.048        0.008       28.489        5.101        0.032      334.293        4.171      859.707
11/12/2014  02:07:00       24.062       24.205       -8.554        4.953        9.531        3.479       24.536       90.836       12.100        0.068        0.006       34.130        1.885        0.003      334.264        4.123      859.720
11/12/2014  02:08:00       16.378       23.725       -5.378        8.919       11.513        6.890       79.553      132.543       47.472        0.056        0.013       28.829        7.263        0.063      334.235        4.075      859.742
11/12/2014  02:09:00       21.208       28.793       -1.809       10.392       10.790        8.147      107.992      116.433       66.372        0.079        0.015       35.761        6.463        0.033      334.224        4.057      859.754
11/12/2014  02:10:00       29.556       65.540       -8.450       12.863       16.389        9.098      165.464      268.592       82.770        0.288        0.026       71.896        7.304        0.010      334.405        4.356      859.761
11/12/2014  02:11:00       21.343       48.388       -4.982       14.007       21.109       11.123      196.209      445.604      123.727        0.179        0.038       52.886       11.346        0.046      334.295        4.174      859.766
11/12/2014  02:12:00       19.834       65.487      -10.618       15.717       18.489       12.369      247.022      341.835      152.985        0.277        0.037       68.425        9.990        0.021      334.297        4.177      859.768
11/12/2014  02:13:00       23.756       44.446       -9.079       12.630       23.181        9.491      159.524      537.375       90.070        0.170        0.039       50.396        7.994        0.025      334.245        4.092      859.765
11/12/2014  02:14:00       18.471       48.301       -8.651       14.368       21.839       11.855      206.442      476.959      140.544        0.179        0.041       51.712       10.040        0.038      334.230        4.065      859.761
11/12/2014  02:15:00       20.122       63.493      -12.702       12.516       20.639        7.750      156.641      425.954       60.068        0.262        0.032       66.605        8.045        0.015      334.276        4.143      859.751
11/12/2014  02:16:00       10.917       86.097      -11.999       13.909       13.860        6.408      193.455      192.100       41.065        0.405        0.021       86.787        6.183        0.005      334.359        4.282      859.744
11/12/2014  02:17:00       10.108       83.125      -11.167        9.012       16.501        5.520       81.221      272.276       30.470        0.376        0.019       83.737        4.176        0.002      334.271        4.136      859.750
11/12/2014  02:18:00       20.229       65.896      -10.091       14.748       12.521        7.060      217.508      156.774       49.849        0.264        0.021       68.931        6.278        0.008      334.193        4.004      859.760
11/12/2014  02:19:00       11.616       87.786      -15.998       11.919        8.801        5.539      142.071       77.459       30.683        0.417        0.013       88.551        3.114        0.001      334.199        4.013      859.769
11/12/2014  02:20:00       -7.509       94.157      -15.551       10.602        9.531        7.579      112.403       90.838       57.436        0.471        0.013       94.456        4.675        0.002      334.282        4.152      859.770
11/12/2014  02:21:00       -3.565       89.191      -13.169       10.247       11.787        8.792      104.993      138.938       77.306        0.423        0.016       89.262        6.460        0.005      334.264        4.122      859.764
11/12/2014  02:22:00        4.605       70.843      -12.516       14.014       12.433        8.990      196.403      154.579       80.818        0.281        0.022       70.993        4.736        0.004      334.318        4.211      859.755
11/12/2014  02:23:00        4.123       47.984       -4.851       11.883       12.823        6.279      141.207      164.437       39.428        0.134        0.017       48.161        4.755        0.010      334.284        4.156      859.757
11/12/2014  02:24:00       -2.058       39.138       -2.597       14.254       18.363       11.436      203.167      337.185      130.772        0.111        0.034       39.192       11.822        0.091      334.206        4.026      859.765
11/12/2014  02:25:00       -1.255       26.665       -5.144        7.791        6.990        4.718       60.696       48.855       22.263        0.044        0.007       26.694        4.218        0.025      334.305        4.191      859.782
11/12/2014  02:26:00       -3.808       30.064        1.838       10.582       14.563        6.158      111.982      212.074       37.926        0.064        0.018       30.304        4.865        0.026      334.327        4.227      859.802
11/12/2014  02:27:00        9.019       49.091       -3.208       16.803       15.641        9.596      282.351      244.656       92.076        0.156        0.031       49.912        7.182        0.021      334.299        4.181      859.807
11/12/2014  02:28:00        9.773       70.469       -7.656       10.113       12.700       10.107      102.268      161.288      102.148        0.274        0.018       71.143        8.776        0.015      334.353        4.271      859.801
11/12/2014  02:29:00       17.796       57.978       -7.136       14.148       21.648        9.327      200.174      468.624       86.997        0.224        0.038       60.648        7.463        0.015      334.222        4.053      859.792
11/12/2014  02:30:00        6.080       78.414       -7.637       16.638       17.616        9.496      276.810      310.333       90.165        0.346        0.034       78.650        5.103        0.004      334.415        4.373      859.783
11/12/2014  02:31:00       -9.220       67.343       -6.625       22.937       16.005       15.099      526.085      256.172      227.995        0.284        0.051       67.972        6.559        0.009      334.330        4.232      859.778
11/12/2014  02:32:00      -14.773       75.303       -8.633       26.061       30.986       17.175      679.162      960.127      294.984        0.395        0.097       76.739       15.967        0.043      334.336        4.242      859.793
11/12/2014  02:33:00        1.592       74.398      -15.035       20.846       16.974        9.791      434.570      288.123       95.855        0.329        0.041       74.415        6.788        0.008      334.405        4.357      859.811
11/12/2014  02:34:00      -38.119       12.950       -2.602       38.752       44.104       13.704     1501.689     1945.163      187.788        0.263        0.182       40.259        9.974        0.061      334.012        3.706      859.826
11/12/2014  02:35:00      -71.846      -16.234       -7.744       16.128       17.083       11.772      260.097      291.825      138.590        0.309        0.035       73.657        9.795        0.018      333.745        3.261      859.837
11/12/2014  02:36:00      -85.910      -14.663      -13.642       17.234       16.215        9.204      297.022      262.926       84.711        0.421        0.032       87.153        8.379        0.009      333.704        3.193      859.842
11/12/2014  02:37:00      -58.905      -19.782       -4.826       14.136       16.036       12.094      199.818      257.157      146.256        0.224        0.030       62.138        7.085        0.013      333.652        3.106      859.843
11/12/2014  02:38:00      -52.425      -33.418       -8.031       14.396       23.656       12.804      207.239      559.611      163.952        0.243        0.047       62.170       11.571        0.035      333.699        3.185      859.844
11/12/2014  02:39:00      -58.780      -33.181       -5.344       25.809       20.888       13.518      666.086      436.327      182.731        0.293        0.064       67.498       11.801        0.031      333.763        3.293      859.849
11/12/2014  02:40:00      -74.081      -23.890       -8.771       11.914       16.066       11.021      141.942      258.127      121.464        0.333        0.026       77.838        8.005        0.011      333.742        3.255      859.863
11/12/2014  02:41:00      -73.267      -33.671       -7.490       11.815       10.770       10.914      139.597      115.992      119.108        0.347        0.019       80.633        7.957        0.010      333.666        3.130      859.873
11/12/2014  02:42:00      -73.936      -36.750      -11.476       14.423        9.181        8.498      208.011       84.299       72.220        0.366        0.018       82.565        4.786        0.003      333.650        3.104      859.871
11/12/2014  02:43:00      -58.924      -39.951      -14.278       10.475       10.978        9.573      109.730      120.527       91.648        0.280        0.016       71.191        4.204        0.003      333.726        3.229      859.863
11/12/2014  02:44:00      -55.968      -29.960      -13.112       14.285        8.216        7.338      204.055       67.495       53.846        0.226        0.016       63.483        4.725        0.006      333.664        3.129      859.860
11/12/2014  02:45:00      -64.761      -24.869      -10.849       15.029       12.220       11.822      225.864      149.322      139.763        0.272        0.026       69.372       11.996        0.030      333.646        3.097      859.855
11/12/2014  02:46:00      -46.491      -21.138       -5.521       18.192       16.896       13.658      330.955      285.461      186.552        0.172        0.040       51.071       12.195        0.057      333.656        3.113      859.844
11/12/2014  02:47:00      -41.828      -15.143       -8.904       17.842       11.946        8.893      318.322      142.703       79.093        0.130        0.027       44.485        7.488        0.028      333.656        3.113      859.833
11/12/2014  02:48:00      -53.662       -8.905      -14.362       26.404       14.981        9.451      697.176      224.424       89.330        0.209        0.051       54.396       10.217        0.035      333.741        3.256      859.823
11/12/2014  02:49:00      -63.278       -0.768      -10.920       26.101       18.304       13.185      681.239      335.028      173.844        0.266        0.060       63.283       12.639        0.040      333.837        3.414      859.820
11/12/2014  02:50:00      -41.577      -15.190       -9.824       18.409       26.140       14.451      338.879      683.299      208.845        0.164        0.062       44.265        9.131        0.043      333.799        3.351      859.821
11/12/2014  02:51:00      -63.392       -8.315       -8.546       23.025       23.202       16.848      530.143      538.330      283.847        0.276        0.068       63.935       13.278        0.043      333.702        3.190      859.816
11/12/2014  02:52:00      -59.279       -1.859      -11.490       21.953       22.240       12.249      481.924      494.632      150.039        0.239        0.056       59.308        7.768        0.017      333.795        3.344      859.810
11/12/2014  02:53:00      -60.945       -1.277       -2.620       37.497       19.533       17.758     1406.055      381.539      315.337        0.291        0.105       60.959       18.577        0.093      333.742        3.257      859.808
11/12/2014  02:54:00      -74.146       -2.070      -14.937       19.933       15.717       12.950      397.330      247.040      167.693        0.327        0.041       74.175       12.328        0.028      333.797        3.348      859.809
11/12/2014  02:55:00      -62.680       -9.354      -15.705       18.367       24.488       13.602      337.354      599.648      185.008        0.269        0.056       63.375        9.192        0.021      333.929        3.567      859.800
11/12/2014  02:56:00      -53.667       -6.775      -10.732       11.429       14.912        9.039      130.624      222.364       81.695        0.174        0.022       54.093        6.174        0.013      333.850        3.437      859.789
11/12/2014  02:57:00      -59.943      -14.930      -11.771       11.450        9.197        7.564      131.095       84.586       57.218        0.211        0.014       61.774        5.966        0.009      333.711        3.206      859.805
11/12/2014  02:58:00      -70.439       -7.233      -12.754       13.633       11.944       10.005      185.866      142.662      100.094        0.280        0.021       70.810        6.890        0.009      333.627        3.066      859.838
11/12/2014  02:59:00      -92.968      -23.963      -10.058       18.492       18.489       10.549      341.943      341.849      111.286        0.506        0.040       96.006        9.048        0.009      333.588        3.001      859.863
11/12/2014  03:00:00      -94.652      -35.036      -11.972       22.605       22.081       11.418      510.973      487.549      130.367        0.573        0.056      100.928        8.616        0.007      333.464        2.796      859.876
11/12/2014  03:01:00      -63.805       -9.359       -9.700       20.264       19.843       13.501      410.611      393.748      182.286        0.262        0.049       64.487        9.665        0.022      333.537        2.917      859.888
11/12/2014  03:02:00      -83.381      -21.369       -2.752       27.927       22.723       14.249      779.916      516.322      203.023        0.446        0.075       86.076       11.661        0.018      333.548        2.935      859.887
11/12/2014  03:03:00      -71.546      -16.017        0.680       29.800       19.252       14.567      888.058      370.658      212.204        0.342        0.074       73.317       12.316        0.028      333.429        2.738      859.884
11/12/2014  03:04:00      -46.932      -19.945       -3.296       22.570       12.886        8.327      509.409      166.056       69.339        0.168        0.037       50.994        7.931        0.024      333.544        2.928      859.887
11/12/2014  03:05:00      -63.799      -23.719      -10.218       12.908       10.954        8.602      166.625      119.983       73.999        0.255        0.018       68.065        5.338        0.006      333.664        3.127      859.878
11/12/2014  03:06:00      -52.345      -24.846       -7.401        9.360       12.051        7.153       87.606      145.218       51.169        0.185        0.014       57.943        3.746        0.004      333.624        3.061      859.879
11/12/2014  03:07:00      -64.926      -21.407       -8.041        6.327        8.466        5.826       40.036       71.671       33.947        0.244        0.007       68.364        2.290        0.001      333.585        2.995      859.895
11/12/2014  03:08:00      -66.118      -20.974       -9.817       11.058       10.280        7.790      122.278      105.675       60.677        0.260        0.014       69.365        5.902        0.007      333.586        2.999      859.927
11/12/2014  03:09:00      -57.735      -15.929      -11.293        7.655        9.691        7.920       58.599       93.915       62.725        0.196        0.011       59.892        5.551        0.009      333.552        2.940      859.945
11/12/2014  03:10:00      -40.163      -19.724       -4.645       14.795        7.173        6.083      218.891       51.445       37.008        0.117        0.015       44.745        6.869        0.024      333.561        2.956      859.950
11/12/2014  03:11:00      -27.726       -0.566       -5.362        8.322        6.499        6.613       69.248       42.241       43.731        0.048        0.008       27.732        6.128        0.049      333.547        2.934      859.947
11/12/2014  03:12:00      -35.498      -11.167        1.552        7.106        7.744        6.714       50.492       59.964       45.071        0.077        0.008       37.213        4.503        0.015      333.713        3.210      859.927
11/12/2014  03:13:00      -41.156       -7.191       -2.767        8.665        9.555        5.041       75.077       91.306       25.407        0.097        0.010       41.779        4.560        0.012      333.638        3.084      859.918
11/12/2014  03:14:00      -15.267       -0.743       -7.460       12.551       13.700        5.502      157.528      187.679       30.274        0.033        0.019       15.285        6.689        0.192      333.563        2.961      859.918
11/12/2014  03:15:00      -33.270      -31.343        8.728       17.737       16.541       20.777      314.585      273.605      431.670        0.159        0.051       45.708       16.515        0.131      333.771        3.306      859.926
11/12/2014  03:16:00      -56.986      -21.921       -5.652        9.718        8.971        6.979       94.447       80.477       48.706        0.199        0.011       61.057        6.247        0.010      333.619        3.050      859.941
11/12/2014  03:17:00      -45.063      -22.764       -7.551       10.480        7.494        6.807      109.840       56.153       46.333        0.141        0.011       50.486        3.733        0.005      333.520        2.888      859.960
11/12/2014  03:18:00       -3.964       -3.034       -4.707       13.533        9.608        8.268      183.142       92.310       68.360        0.020        0.017        4.991        5.773        1.338      333.459        2.788      859.975
11/12/2014  03:19:00       -8.287       20.031       -4.704       17.743       22.850       14.001      314.825      522.116      196.032        0.076        0.052       21.678        6.855        0.100      333.631        3.072      859.986
11/12/2014  03:20:00       -3.884       72.455       -2.739       25.720       36.203       17.018      661.536     1310.683      289.601        0.377        0.113       72.559       15.296        0.044      333.762        3.289      859.981
11/12/2014  03:21:00       -5.277       76.030       -6.734       15.952       33.283       12.642      254.470     1107.759      159.815        0.369        0.076       76.212       15.395        0.041      333.735        3.246      859.970
11/12/2014  03:22:00       -3.763       72.732        2.917       16.185       34.217       19.118      261.947     1170.792      365.487        0.356        0.090       72.830       19.436        0.071      333.774        3.309      859.952
11/12/2014  03:23:00       -3.104       96.760       -4.793       23.998       37.436       16.565      575.908     1401.470      274.401        0.582        0.113       96.810       12.167        0.016      333.783        3.325      859.937
11/12/2014  03:24:00       12.445       83.383      -13.002       10.444       11.599        6.699      109.070      134.534       44.877        0.378        0.014       84.307        2.462        0.001      333.744        3.260      859.936
11/12/2014  03:25:00       15.038       30.733       -3.454       14.052       15.264        9.520      197.464      233.001       90.640        0.085        0.026       34.215       10.790        0.099      333.564        2.961      859.945
11/12/2014  03:26:00       28.333       17.219       -0.548       12.582       12.023       12.276      158.304      144.549      150.696        0.078        0.023       33.155        9.547        0.083      333.496        2.848      859.962
11/12/2014  03:27:00        3.976        3.195        1.630       12.468        8.331        5.806      155.450       69.413       33.706        0.014        0.013        5.101        3.254        0.407      333.613        3.042      859.964
11/12/2014  03:28:00      -42.359       -5.256       -1.863       20.369       10.542        6.021      414.885      111.133       36.255        0.119        0.028       42.684        5.348        0.016      333.373        2.647      859.970
11/12/2014  03:29:00      -32.163      -11.040       -5.252       12.790        7.376        6.007      163.573       54.413       36.085        0.072        0.013       34.005        6.851        0.041      333.210        2.376      859.968
11/12/2014  03:30:00       -9.824      -10.808       -5.493        8.748        6.000        5.872       76.533       36.006       34.480        0.020        0.007       14.605        4.839        0.110      333.374        2.645      859.960
11/12/2014  03:31:00        7.554        8.294        0.137        9.961        8.959        7.464       99.229       80.255       55.711        0.018        0.012       11.218        5.264        0.220      333.476        2.815      859.963
11/12/2014  03:32:00       -6.660       14.812       12.752        4.737        9.237        7.932       22.441       85.314       62.909        0.030        0.009       16.241        3.609        0.049      333.477        2.817      859.957
11/12/2014  03:33:00      -10.451       -5.717        4.065        6.960        6.898        6.539       48.435       47.589       42.755        0.015        0.007       11.913        5.674        0.227      333.416        2.715      859.953
11/12/2014  03:34:00      -32.338      -18.497        0.569       15.943        7.043        6.332      254.167       49.601       40.092        0.087        0.017       37.254        3.433        0.008      333.335        2.582      859.960
11/12/2014  03:35:00      -46.928      -28.880       -7.337       25.741       12.256        9.335      662.578      150.199       87.133        0.199        0.045       55.102        7.544        0.019      333.222        2.393      859.966
11/12/2014  03:36:00      -61.757      -33.547      -11.148       21.453       10.485       12.549      460.239      109.929      157.467        0.290        0.036       70.281       11.173        0.025      333.092        2.181      859.978
11/12/2014  03:37:00      -78.213      -50.474       -7.150       18.408       12.473       11.479      338.851      155.581      131.764        0.467        0.031       93.086        9.467        0.010      333.053        2.115      859.980
11/12/2014  03:38:00      -86.692      -38.500      -11.487       13.416       12.031       10.710      180.001      144.755      114.702        0.478        0.022       94.856        7.158        0.006      333.188        2.338      859.967
11/12/2014  03:39:00      -55.122      -29.004       -7.770        9.619       10.540        7.731       92.527      111.082       59.771        0.210        0.013       62.287        4.498        0.005      333.269        2.472      859.959
11/12/2014  03:40:00      -60.763      -36.425      -11.300       14.337       13.089        9.902      205.554      171.310       98.056        0.281        0.024       70.844        7.604        0.012      333.398        2.687      859.949
11/12/2014  03:41:00      -31.653      -23.074       -2.015       21.469       10.355        8.122      460.932      107.219       65.974        0.109        0.032       39.170        5.986        0.023      333.328        2.571      859.939
11/12/2014  03:42:00      -50.848      -17.560       -7.710       24.846       13.704        8.480      617.309      187.787       71.914        0.191        0.044       53.794        6.781        0.016      333.197        2.352      859.928
11/12/2014  03:43:00      -61.205      -37.257       -1.929       19.206       12.044       12.342      368.883      145.063      152.337        0.290        0.033       71.653        2.848        0.002      333.246        2.435      859.926
11/12/2014  03:44:00      -42.026      -25.053        3.240       19.138       13.732       11.644      366.265      188.564      135.581        0.155        0.035       48.927        9.109        0.035      333.147        2.271      859.929
11/12/2014  03:45:00      -43.069      -40.414       -3.636       22.623       21.733       12.299      511.804      472.324      151.259        0.232        0.057       59.061       14.511        0.060      333.161        2.296      859.943
11/12/2014  03:46:00      -53.206      -16.583       -3.141       10.531       14.307        9.264      110.903      204.688       85.826        0.176        0.020       55.730        5.001        0.008      333.158        2.289      859.958
11/12/2014  03:47:00      -52.052      -27.825       -5.752        9.947       11.348        8.276       98.946      128.771       68.493        0.191        0.015       59.022        5.103        0.007      333.117        2.221      859.973
11/12/2014  03:48:00      -26.093      -14.975       -7.046       11.166        9.816        9.223      124.675       96.345       85.065        0.063        0.015       30.085        7.329        0.059      333.088        2.173      859.979
11/12/2014  03:49:00      -37.665      -16.446      -11.494        8.782        7.796        5.605       77.127       60.776       31.418        0.100        0.008       41.099        4.894        0.014      333.199        2.358      859.970
11/12/2014  03:50:00      -45.991       -9.629      -13.164        6.932        7.961        6.450       48.054       63.377       41.598        0.127        0.008       46.988        4.096        0.008      333.187        2.337      859.974
11/12/2014  03:51:00      -50.804       -7.975      -14.319        7.121        7.459        7.636       50.706       55.642       58.303        0.151        0.008       51.426        5.043        0.010      333.150        2.275      859.972
11/12/2014  03:52:00      -65.594      -12.433       -8.227        8.683       10.849        6.993       75.388      117.707       48.897        0.238        0.012       66.762        4.799        0.005      333.096        2.187      859.968
11/12/2014  03:53:00      -46.494      -12.684       -7.957       11.817        6.664        6.252      139.640       44.408       39.083        0.130        0.011       48.193        4.785        0.010      333.194        2.348      859.960
11/12/2014  03:54:00      -58.714       -9.552      -10.680       10.189       13.151        9.351      103.812      172.957       87.444        0.201        0.018       59.486        5.318        0.008      333.052        2.115      859.962
11/12/2014  03:55:00      -63.578      -26.410       -8.341        8.248        7.702        5.592       68.036       59.316       31.271        0.248        0.008       68.845        2.888        0.002      332.985        2.005      859.976
11/12/2014  03:56:00      -73.726      -30.445       -8.046       14.680       16.838       10.514      215.508      283.513      110.538        0.352        0.030       79.765        7.319        0.008      332.981        1.997      859.999
11/12/2014  03:57:00      -79.827      -19.034      -14.585       18.401       12.967       12.520      338.613      168.156      156.743        0.381        0.033       82.065       10.478        0.016      332.938        1.926      860.028
11/12/2014  03:58:00     -101.755      -26.421      -14.903       14.317       13.092        7.980      204.978      171.400       63.674        0.586        0.022      105.129        4.128        0.002      333.002        2.032      860.054
11/12/2014  03:59:00      -87.258      -28.825      -13.872       10.426       11.567        8.599      108.697      133.795       73.946        0.448        0.016       91.896        4.119        0.002      332.943        1.934      860.072
11/12/2014  04:00:00      -91.648      -28.636      -10.591       11.507       10.300        9.255      132.403      106.092       85.656        0.483        0.016       96.018        4.253        0.002      332.922        1.900      860.070
11/12/2014  04:01:00      -95.896      -46.093      -11.789        9.456       12.173        7.932       89.421      148.182       62.920        0.588        0.015      106.398        6.097        0.003      332.977        1.991      860.071
11/12/2014  04:02:00     -101.271      -42.070      -11.858       12.081       10.750        6.264      145.961      115.563       39.233        0.623        0.015      109.662        2.744        0.001      332.983        2.001      860.076
11/12/2014  04:03:00      -80.053      -61.159       -6.964       19.889       13.290       12.533      395.572      176.622      157.071        0.546        0.036      100.742        5.533        0.003      333.011        2.046      860.084
11/12/2014  04:04:00      -86.285      -58.239        3.001       19.262       17.302       17.219      371.022      299.358      296.486        0.591        0.048      104.100       13.453        0.017      332.944        1.936      860.095
11/12/2014  04:05:00     -103.636      -35.755       -5.357       26.750       16.500       12.048      715.557      272.263      145.152        0.659        0.057      109.630        8.361        0.006      332.965        1.971      860.089
11/12/2014  04:06:00      -51.125      -27.260        6.344       21.657       21.321       14.727      469.015      454.566      216.891        0.227        0.057       57.939       12.668        0.048      332.970        1.978      860.089
11/12/2014  04:07:00      -73.386      -33.023       -0.428       32.955       18.704       14.999     1086.049      349.845      224.956        0.407        0.083       80.474       15.081        0.035      333.017        2.058      860.089
11/12/2014  04:08:00      -84.312      -28.544       -3.747       24.884       13.797       13.116      619.235      190.350      172.038        0.446        0.049       89.013       14.353        0.026      332.932        1.916      860.102
11/12/2014  04:09:00     -101.528      -37.864      -13.789        8.002       10.125        7.968       64.026      102.506       63.493        0.608        0.012      108.359        5.477        0.003      332.905        1.873      860.116
11/12/2014  04:10:00      -92.293      -45.365      -10.206        8.652       11.105        5.608       74.856      123.320       31.446        0.545        0.011      102.839        3.838        0.001      332.887        1.845      860.124
11/12/2014  04:11:00      -76.392      -38.649      -13.147       13.792        8.363        8.468      190.221       69.941       71.703        0.392        0.017       85.612        5.758        0.005      332.890        1.849      860.110
11/12/2014  04:12:00      -67.661      -38.483      -10.396       17.707       16.773        8.852      313.528      281.327       78.359        0.342        0.034       77.840        6.715        0.007      332.842        1.770      860.100
11/12/2014  04:13:00      -84.311      -38.057       -8.792       17.521       17.805       13.750      306.994      317.008      189.056        0.472        0.041       92.502       12.351        0.018      332.842        1.769      860.105
11/12/2014  04:14:00      -59.023      -44.053       -2.528       28.256       20.958       15.655      798.408      439.224      245.067        0.346        0.074       73.650       11.521        0.024      332.841        1.768      860.129
11/12/2014  04:15:00      -63.444      -35.930       -8.532       22.716       16.141       13.422      516.027      260.520      180.159        0.317        0.048       72.911        4.030        0.003      332.844        1.771      860.147
11/12/2014  04:16:00      -40.130      -40.436       -0.880       31.792       24.871       18.365     1010.718      618.557      337.259        0.261        0.098       56.970       14.419        0.064      332.865        1.806      860.147
11/12/2014  04:17:00      -62.853      -30.542      -11.502       22.110       17.338       14.726      488.841      300.621      216.854        0.301        0.050       69.881        5.149        0.005      332.844        1.772      860.137
11/12/2014  04:18:00      -41.818      -32.283       -6.867       28.623       19.994       12.666      819.261      399.748      160.425        0.211        0.069       52.829       13.081        0.061      332.846        1.776      860.129
11/12/2014  04:19:00      -38.274      -17.524        3.285       39.657       14.589       13.521     1572.682      212.838      182.814        0.188        0.098       42.095       15.028        0.127      332.810        1.717      860.130
11/12/2014  04:20:00      -20.600      -34.698        5.209       28.392       22.619       15.121      806.101      511.631      228.636        0.160        0.077       40.352       16.814        0.174      332.829        1.748      860.138
11/12/2014  04:21:00      -38.402      -32.015       -4.591       19.233       16.365       15.117      369.902      267.824      228.538        0.169        0.043       49.997       13.494        0.073      332.880        1.833      860.137
11/12/2014  04:22:00      -53.962      -28.277       -7.244       21.345       18.405       17.006      455.624      338.754      289.209        0.242        0.054       60.922       17.239        0.080      332.884        1.838      860.134
11/12/2014  04:23:00      -67.524      -19.428       -7.480       23.634       14.905       14.510      558.579      222.146      210.531        0.299        0.050       70.264       12.691        0.033      332.833        1.753      860.141
11/12/2014  04:24:00      -71.880      -26.399      -10.926       26.167       18.878       13.530      684.718      356.388      183.063        0.360        0.061       76.574       10.344        0.018      332.850        1.783      860.154
11/12/2014  04:25:00      -81.042       -7.516      -13.725        9.230       10.138        7.709       85.201      102.775       59.422        0.353        0.012       81.389        3.846        0.002      332.937        1.926      860.158
11/12/2014  04:26:00      -76.898      -17.006       -8.247       11.766       14.492       10.212      138.446      210.032      104.275        0.336        0.023       78.756        6.401        0.007      332.979        1.993      860.163
11/12/2014  04:27:00      -46.184      -25.380       -3.603       19.559       17.923       11.611      382.559      321.248      134.825        0.181        0.042       52.698        8.162        0.024      333.036        2.086      860.168
11/12/2014  04:28:00      -43.421      -44.416       -7.929       19.474       13.462       15.928      379.249      181.214      253.697        0.237        0.041       62.114        8.419        0.018      332.988        2.008      860.185
11/12/2014  04:29:00      -59.773      -23.682       -3.155       40.132       19.442       17.547     1610.599      377.977      307.905        0.322        0.115       64.294       20.021        0.097      332.842        1.769      860.217
11/12/2014  04:30:00      -71.670      -14.610      -11.749       29.172       15.976       10.558      850.993      255.235      111.462        0.335        0.061       73.144        6.524        0.008      332.774        1.655      860.230
11/12/2014  04:31:00      -54.280       -7.844      -11.071       14.978       23.053       12.737      224.354      531.432      162.236        0.202        0.046       54.844       10.163        0.034      332.812        1.720      860.230
11/12/2014  04:32:00      -60.555      -19.778      -12.106       13.125       14.873        9.916      172.272      221.196       98.320        0.235        0.025       63.703        8.522        0.018      332.874        1.823      860.223
11/12/2014  04:33:00      -67.123      -32.637      -13.222       10.765       18.843       12.807      115.883      355.055      164.031        0.319        0.032       74.637       10.136        0.018      332.840        1.766      860.240
11/12/2014  04:34:00      -71.732      -47.421       -9.505       17.937       21.752       17.859      321.742      473.159      318.940        0.430        0.056       85.989       12.569        0.021      332.764        1.639      860.268
11/12/2014  04:35:00      -77.303      -50.031       -4.533       20.914       19.937       18.534      437.402      397.487      343.509        0.484        0.059       92.081       12.320        0.018      332.726        1.578      860.270
11/12/2014  04:36:00      -79.368      -18.892      -11.805       23.964       21.386       14.178      574.256      457.358      201.027        0.401        0.062       81.586       15.054        0.034      332.671        1.486      860.267
11/12/2014  04:37:00      -31.441      -33.830        2.221       26.380       20.113       17.490      695.897      404.523      305.897        0.177        0.070       46.185       15.705        0.116      332.677        1.496      860.253
11/12/2014  04:38:00      -68.440      -22.852       -6.811       28.514       16.773       13.512      813.073      281.331      182.585        0.326        0.064       72.154        9.057        0.016      332.623        1.407      860.240
11/12/2014  04:39:00      -58.003      -20.712       -9.736       22.167       26.002       13.853      491.382      676.091      191.898        0.262        0.068       61.590        9.460        0.024      332.678        1.498      860.234
11/12/2014  04:40:00      -82.082      -27.727      -10.618       16.382       13.547       11.010      268.369      183.513      121.217        0.410        0.029       86.638        8.043        0.009      332.651        1.452      860.248
11/12/2014  04:41:00      -70.918      -24.027      -14.234       20.403       20.696       11.296      416.263      428.332      127.596        0.339        0.049       74.878        5.199        0.005      332.702        1.537      860.259
11/12/2014  04:42:00      -55.599      -44.048       -9.422       27.298       18.558       16.161      745.174      344.393      261.181        0.324        0.068       70.933       11.952        0.028      332.602        1.371      860.268
11/12/2014  04:43:00      -39.824      -27.241       -7.382       30.734       17.826       23.377      944.604      317.766      546.472        0.210        0.090       48.249       21.752        0.203      332.594        1.357      860.276
11/12/2014  04:44:00      -43.869      -37.496       -1.375       33.789       15.698       20.285     1141.702      246.415      411.501        0.257        0.090       57.710       21.362        0.137      332.578        1.332      860.263
11/12/2014  04:45:00      -93.329      -30.776      -16.126       17.994       19.631       12.795      323.772      385.381      163.713        0.540        0.044       98.273       10.224        0.011      332.538        1.265      860.247
11/12/2014  04:46:00      -98.154      -32.747      -18.828       12.561       13.912       11.241      157.782      193.542      126.365        0.577        0.024      103.472        8.495        0.007      332.425        1.078      860.252
11/12/2014  04:47:00     -104.525      -26.202      -19.613       13.711       15.942       10.571      187.983      254.139      111.740        0.628        0.028      107.759        5.287        0.002      332.408        1.051      860.276
11/12/2014  04:48:00     -111.124      -16.587      -20.897       11.329       12.085       10.737      128.356      146.054      115.275        0.672        0.019      112.355        6.397        0.003      332.416        1.062      860.297
11/12/2014  04:49:00     -102.552      -28.562      -27.382       16.237       16.853       14.397      263.632      284.008      207.260        0.642        0.038      106.455       11.084        0.011      332.476        1.164      860.324
11/12/2014  04:50:00     -104.803      -21.898      -20.175       30.179       17.051       13.360      910.782      290.721      178.501        0.662        0.069      107.066       13.391        0.016      332.449        1.117      860.338
11/12/2014  04:51:00     -110.496      -37.484      -16.944       17.853       23.627       17.926      318.739      558.230      321.331        0.755        0.060      116.681       14.576        0.016      332.457        1.131      860.331
11/12/2014  04:52:00      -99.021      -10.325      -19.301       20.236       20.270       13.181      409.479      410.880      173.730        0.564        0.050       99.558       12.829        0.017      332.584        1.342      860.332
11/12/2014  04:53:00      -76.539      -15.395      -15.383       17.480       23.711       17.866      305.539      562.205      319.199        0.376        0.059       78.072       15.644        0.040      332.597        1.363      860.342
11/12/2014  04:54:00      -65.950      -17.076       -7.011       16.238       20.083       14.189      263.680      403.309      201.319        0.278        0.043       68.125        9.955        0.021      332.575        1.327      860.339
11/12/2014  04:55:00      -67.739      -19.639      -14.498       19.723       13.914       10.787      389.008      193.599      116.354        0.294        0.035       70.529        8.991        0.016      332.578        1.331      860.330
11/12/2014  04:56:00      -71.755      -13.738      -12.661       16.907       15.147       10.122      285.857      229.428      102.456        0.306        0.031       73.059       10.443        0.020      332.603        1.372      860.338
11/12/2014  04:57:00      -67.825      -14.337      -11.544       19.731       20.006       14.055      389.307      400.257      197.543        0.296        0.049       69.324       12.613        0.033      332.613        1.389      860.358
11/12/2014  04:58:00      -47.901      -18.473       -8.164       12.391       15.893       11.859      153.526      252.585      140.639        0.162        0.027       51.339        8.365        0.027      332.589        1.349      860.374
11/12/2014  04:59:00      -54.678      -11.853      -15.834       10.059        9.402        8.813      101.178       88.396       77.669        0.182        0.013       55.948        4.043        0.005      332.681        1.503      860.385
11/12/2014  05:00:00      -32.418      -16.095       -6.902        9.900        9.693        7.109       98.004       93.953       50.531        0.080        0.012       36.194        5.051        0.019      332.875        1.823      860.386
11/12/2014  05:01:00      -17.505      -20.416       -0.602       10.635        8.713        7.020      113.106       75.911       49.277        0.048        0.012       26.893        3.176        0.014      332.963        1.967      860.366
11/12/2014  05:02:00      -38.523      -18.091       -6.269        8.597        9.904        6.566       73.906       98.099       43.113        0.103        0.011       42.560        3.244        0.006      332.650        1.450      860.344
11/12/2014  05:03:00      -17.282      -27.207       -7.546       11.066       11.824        6.581      122.457      139.813       43.310        0.070        0.015       32.232        3.414        0.011      332.878        1.828      860.342
11/12/2014  05:04:00      -29.839      -17.601       -8.221       20.285       18.820        9.933      411.490      354.203       98.673        0.107        0.043       34.644        6.950        0.040      333.010        2.046      860.355
11/12/2014  05:05:00      -42.031      -10.427        2.064       14.673       12.062        9.378      215.302      145.492       87.952        0.116        0.022       43.305        5.867        0.018      332.943        1.935      860.387
11/12/2014  05:06:00      -57.393      -14.127      -10.804       13.588       10.010        9.024      184.632      100.205       81.424        0.199        0.018       59.106        6.368        0.012      332.586        1.344      860.421
11/12/2014  05:07:00      -62.510       -7.564       -6.270       11.481       10.942        8.516      131.803      119.720       72.516        0.216        0.016       62.966        6.459        0.011      332.535        1.261      860.443
11/12/2014  05:08:00      -71.023      -14.099      -13.300       19.200       12.568        9.465      368.644      157.944       89.589        0.302        0.031       72.409        6.880        0.009      332.583        1.340      860.452
11/12/2014  05:09:00      -56.931      -24.524      -11.708       14.346       11.135       10.250      205.811      123.994      105.066        0.221        0.022       61.989        7.232        0.014      332.540        1.267      860.466
11/12/2014  05:10:00      -45.124      -27.692       -9.132       13.914       11.291        9.164      193.588      127.483       83.983        0.165        0.020       52.943        5.964        0.013      332.589        1.350      860.480
11/12/2014  05:11:00      -45.625      -25.963       -9.759       17.461        9.943       10.295      304.885       98.869      105.997        0.168        0.025       52.495        6.068        0.013      332.571        1.321      860.484
11/12/2014  05:12:00      -45.722       -4.898       -0.058       11.540       19.182        7.353      133.183      367.945       54.069        0.133        0.028       45.983        4.311        0.009      332.582        1.340      860.480
11/12/2014  05:13:00      -20.193       -6.449       -3.897       12.377       11.036        6.992      153.184      121.795       48.886        0.039        0.016       21.198        7.099        0.112      332.892        1.851      860.458
11/12/2014  05:14:00      -17.496       -5.880       -3.093        7.801        7.227        9.702       60.848       52.225       94.121        0.028        0.010       18.458        6.097        0.109      332.663        1.471      860.454
11/12/2014  05:15:00      -26.171      -23.042       -4.846       32.427       17.989        8.784     1051.505      323.595       77.166        0.135        0.073       34.869        5.495        0.025      332.610        1.384      860.453
11/12/2014  05:16:00      -83.772      -12.565       -7.573       13.629       12.421       10.148      185.741      154.286      102.980        0.384        0.022       84.709        6.568        0.006      332.429        1.087      860.471
11/12/2014  05:17:00      -69.049      -22.978      -12.316       18.650       14.356       11.722      347.812      206.082      137.415        0.307        0.035       72.772        7.171        0.010      332.388        1.017      860.481
11/12/2014  05:18:00      -61.860      -19.289       -3.850       29.422       18.574       12.661      865.666      344.998      160.306        0.279        0.069       64.798       10.702        0.027      332.362        0.973      860.490
11/12/2014  05:19:00      -87.761      -30.471      -10.789       20.178       19.849       12.307      407.170      393.973      151.465        0.485        0.048       92.900        8.361        0.008      332.316        0.899      860.499
11/12/2014  05:20:00      -86.388      -18.780      -17.248       12.714       18.016       12.959      161.653      324.592      167.927        0.438        0.033       88.406        7.385        0.007      332.325        0.914      860.500
11/12/2014  05:21:00      -81.123      -24.260      -14.163       22.709       15.893       13.045      515.689      252.575      170.170        0.415        0.047       84.673        6.002        0.005      332.287        0.851      860.503
11/12/2014  05:22:00      -77.729      -18.176      -16.330       23.898       15.628       11.921      571.097      244.248      142.107        0.380        0.048       79.825       10.278        0.017      332.233        0.762      860.506
11/12/2014  05:23:00      -74.891      -12.991      -15.030       11.347       11.689       11.124      128.764      136.627      123.740        0.320        0.019       76.009        7.380        0.009      332.251        0.794      860.495
11/12/2014  05:24:00      -66.887       -8.266      -10.220       10.045       11.862        8.878      100.898      140.708       78.819        0.248        0.016       67.396        5.510        0.007      332.450        1.120      860.494
11/12/2014  05:25:00      -24.407        0.881       -2.456       22.088        9.177        8.294      487.892       84.219       68.799        0.062        0.032       24.422        7.170        0.086      332.712        1.554      860.506
11/12/2014  05:26:00       -3.760       19.055       -1.852       26.390       16.523       16.430      696.411      273.010      269.935        0.081        0.062       19.423       13.003        0.448      332.742        1.604      860.532
11/12/2014  05:27:00       -5.376       68.779       -9.953       19.891       29.366       13.950      395.645      862.386      194.596        0.316        0.073       68.989       11.519        0.028      333.058        2.124      860.572
11/12/2014  05:28:00      -16.480       55.692       -7.455       24.176       29.693       15.893      584.488      881.669      252.576        0.257        0.086       58.079       11.349        0.038      333.046        2.105      860.596
11/12/2014  05:29:00      -11.643       47.533       -2.795       20.128       35.674       18.124      405.118     1272.606      328.489        0.220        0.100       48.939       18.156        0.138      333.068        2.140      860.614
11/12/2014  05:30:00      -47.478      -11.278       -5.485       10.863       14.521        8.205      118.008      210.856       67.321        0.140        0.020       48.799        6.392        0.017      332.442        1.107      860.627
11/12/2014  05:31:00      -33.249       17.299        1.668       28.684       24.365       13.488      822.782      593.674      181.913        0.150        0.080       37.480       11.806        0.099      332.736        1.593      860.631
11/12/2014  05:32:00      -67.765       -0.354      -11.806       19.606        9.361       12.586      384.394       87.628      158.409        0.268        0.032       67.766       10.370        0.023      332.424        1.078      860.638
11/12/2014  05:33:00      -38.272       -3.786       -3.896       16.454       12.981        8.622      270.724      168.508       74.342        0.100        0.026       38.459        9.518        0.061      332.500        1.203      860.638
11/12/2014  05:34:00      -16.318        8.393       -2.650       19.483       19.847       10.825      379.576      393.911      117.185        0.062        0.045       18.349       10.351        0.318      332.749        1.615      860.634
11/12/2014  05:35:00        8.906       62.791      -11.831       21.320       41.554        9.301      454.534     1726.742       86.514        0.321        0.113       63.419       10.118        0.025      332.940        1.929      860.630
11/12/2014  05:36:00        8.089      103.751      -11.632       20.157       18.380       10.554      406.323      337.821      111.382        0.591        0.043      104.066        7.577        0.005      333.157        2.289      860.628
11/12/2014  05:37:00       23.554       76.742       -4.996       22.712       30.885       17.077      515.845      953.905      291.629        0.411        0.088       80.275       17.272        0.046      333.103        2.199      860.628
11/12/2014  05:38:00       22.491       60.994      -10.962       18.432       21.688       12.559      339.729      470.355      157.740        0.266        0.048       65.009       10.271        0.025      333.114        2.217      860.633
11/12/2014  05:39:00       23.531       86.083      -16.035       16.808       14.043       10.368      282.496      197.212      107.502        0.440        0.029       89.242        8.835        0.010      333.127        2.238      860.647
11/12/2014  05:40:00       17.300      114.775      -12.011       19.574       29.207       16.672      383.128      853.076      277.944        0.757        0.076      116.072       14.358        0.015      333.150        2.276      860.664
11/12/2014  05:41:00       32.465       76.896      -12.483       17.900       24.373       15.400      320.401      594.027      237.158        0.414        0.058       83.468       13.263        0.025      333.050        2.112      860.678
11/12/2014  05:42:00       25.047       62.259       -3.093       29.406       40.484       24.064      864.702     1638.971      579.073        0.380        0.154       67.109       25.439        0.144      333.078        2.158      860.681
11/12/2014  05:43:00       28.406       67.839        0.998       21.942       32.685       24.781      481.438     1068.284      614.107        0.379        0.108       73.546       23.496        0.102      333.013        2.049      860.684
11/12/2014  05:44:00       38.000       35.961       -1.956       26.757       26.264       20.539      715.952      689.804      421.831        0.228        0.091       52.318       18.467        0.125      332.999        2.027      860.684
11/12/2014  05:45:00       28.386       30.078        4.611       20.882       25.913       19.782      436.060      671.468      391.324        0.161        0.075       41.358       17.125        0.171      333.022        2.066      860.687
11/12/2014  05:46:00       31.801       58.200       -6.148       19.730       26.574       18.366      389.259      706.193      337.328        0.293        0.072       66.322       17.241        0.068      332.986        2.003      860.698
11/12/2014  05:47:00       28.412       54.516       -4.127       19.382       31.803       18.584      375.646     1011.402      345.381        0.276        0.087       61.476       18.342        0.089      332.973        1.984      860.718
11/12/2014  05:48:00       22.797       49.853       -4.354       19.368       18.070       16.392      375.131      326.537      268.701        0.200        0.049       54.818       15.042        0.075      332.949        1.944      860.737
11/12/2014  05:49:00       18.829       41.961       -5.494       17.821       32.421       11.847      317.592     1051.108      140.363        0.183        0.075       45.992       13.354        0.084      332.995        2.020      860.767
11/12/2014  05:50:00       25.517       46.880       -2.022       20.351       26.696       15.960      414.163      712.667      254.710        0.212        0.069       53.375       15.338        0.083      333.016        2.054      860.791
11/12/2014  05:51:00       40.584       31.242        5.885       29.005       27.411       24.622      841.310      751.339      606.243        0.243        0.110       51.217       11.742        0.053      333.036        2.087      860.811
11/12/2014  05:52:00       33.315       51.296       -8.969       21.214       23.011       14.768      450.027      529.504      218.097        0.251        0.060       61.165       13.504        0.049      333.083        2.165      860.816
11/12/2014  05:53:00       24.461       60.820      -10.696       15.731       14.381       10.291      247.450      206.817      105.912        0.249        0.028       65.555        5.219        0.006      333.034        2.085      860.822
11/12/2014  05:54:00       23.046       77.596      -13.597       12.003       11.048        8.333      144.080      122.064       69.431        0.354        0.017       80.946        3.655        0.002      333.099        2.194      860.823
11/12/2014  05:55:00       22.171       64.500       -6.726       15.424       22.240       12.938      237.886      494.633      167.391        0.280        0.045       68.204       12.261        0.032      333.042        2.097      860.826
11/12/2014  05:56:00       17.690      117.090      -13.884       15.008       31.959        7.889      225.255     1021.392       62.233        0.776        0.065      118.418       10.311        0.008      333.248        2.437      860.840
11/12/2014  05:57:00       23.610      104.081      -18.108       13.482       36.168        9.852      181.775     1308.110       97.069        0.665        0.079      106.725       12.241        0.013      333.153        2.281      860.865
11/12/2014  05:58:00       28.913      106.008      -14.891       20.156       33.210       11.127      406.254     1102.936      123.815        0.696        0.082      109.880       12.710        0.013      333.102        2.196      860.881
11/12/2014  05:59:00       31.000       85.361      -11.360       13.789       15.141       13.955      190.143      229.252      194.738        0.450        0.031       90.816        7.930        0.008      333.112        2.213      860.896
11/12/2014  06:00:00       26.249       91.512      -16.441       22.161       17.894       13.153      491.104      320.180      172.998        0.516        0.049       95.202        8.058        0.007      333.152        2.278      860.903
11/12/2014  06:01:00       16.856       48.267       -1.874       23.478       24.867       17.075      551.235      618.367      291.543        0.204        0.073       51.126       13.807        0.073      333.049        2.110      860.920
11/12/2014  06:02:00        6.067       88.823      -13.861       14.657       21.405        9.608      214.823      458.170       92.317        0.444        0.038       89.030        9.359        0.011      333.148        2.272      860.932
11/12/2014  06:03:00       15.460       58.462       -1.419       23.449       25.658       16.694      549.869      658.313      278.699        0.257        0.074       60.471       16.990        0.079      333.064        2.135      860.952
11/12/2014  06:04:00       26.273       61.214       -8.934       13.620       17.805       12.024      185.507      317.004      144.579        0.258        0.032       66.614        8.338        0.016      333.121        2.229      860.968
11/12/2014  06:05:00       -0.385       83.143       -5.397       18.793       34.136       12.236      353.191     1165.286      149.709        0.430        0.083       83.144       13.433        0.026      333.106        2.203      860.965
11/12/2014  06:06:00       17.306       44.257       -3.317       15.524       25.479       11.937      240.988      649.176      142.484        0.165        0.052       47.520       13.484        0.081      333.103        2.200      860.964
11/12/2014  06:07:00      -30.035       18.806      -10.389       25.514       15.896       10.579      650.987      252.683      111.906        0.119        0.051       35.437       10.868        0.094      332.942        1.932      860.958
11/12/2014  06:08:00      -73.278      -24.145      -15.920       12.995       12.128       10.812      168.859      147.095      116.907        0.332        0.022       77.153        3.298        0.002      332.451        1.122      860.965
11/12/2014  06:09:00      -71.363      -36.543       -8.088       12.443       10.314        9.282      154.840      106.377       86.158        0.342        0.017       80.175        6.718        0.007      332.397        1.033      860.980
11/12/2014  06:10:00      -67.798      -38.491       -2.576       15.951       14.157       12.792      254.450      200.433      163.624        0.335        0.031       77.963        9.818        0.016      332.384        1.013      860.990
11/12/2014  06:11:00      -50.468      -17.903       -5.020       17.876       18.900       10.366      319.544      357.211      107.446        0.184        0.039       53.549        6.664        0.015      332.428        1.085      861.007
11/12/2014  06:12:00      -63.440      -39.899      -10.745       19.580       11.400        8.555      383.360      129.953       73.191        0.316        0.029       74.944        8.084        0.012      332.481        1.170      861.023
11/12/2014  06:13:00      -73.032      -24.516      -16.395       13.246       10.595        6.705      175.465      112.258       44.962        0.327        0.017       77.037        6.567        0.007      332.454        1.127      861.028
11/12/2014  06:14:00      -73.849      -26.182       -8.158       16.012       14.087        8.893      256.381      198.445       79.089        0.337        0.027       78.353        8.106        0.011      332.332        0.926      861.026
11/12/2014  06:15:00      -86.693      -27.896      -12.115       11.456        8.112        7.201      131.243       65.811       51.853        0.434        0.012       91.071        5.605        0.004      332.327        0.917      861.036
11/12/2014  06:16:00      -87.617      -11.698      -13.780       10.643        9.740        6.418      113.271       94.866       41.192        0.413        0.012       88.395        4.036        0.002      332.324        0.912      861.054
11/12/2014  06:17:00      -65.496      -31.232      -11.030       14.205       11.996        7.833      201.792      143.910       61.357        0.290        0.020       72.561        5.235        0.005      332.399        1.036      861.056
11/12/2014  06:18:00      -46.874      -19.168       -5.279        8.001       10.374        5.170       64.021      107.624       26.725        0.140        0.010       50.642        1.194        0.001      332.470        1.154      861.064
11/12/2014  06:19:00      -46.840        2.052       -7.273        7.517       12.982        7.463       56.508      168.522       55.699        0.127        0.014       46.884        5.338        0.013      332.400        1.039      861.071
11/12/2014  06:20:00      -47.854       -5.360       -6.192        7.331       12.281        4.396       53.737      150.830       19.325        0.129        0.011       48.154        3.519        0.005      332.442        1.109      861.083
11/12/2014  06:21:00      -63.470       -2.891       -8.992        7.341        7.549        7.725       53.885       56.994       59.673        0.214        0.009       63.535        2.742        0.002      332.433        1.092      861.100
11/12/2014  06:22:00      -50.877       -9.272      -10.232        6.298        6.002        5.199       39.671       36.026       27.024        0.144        0.005       51.715        2.951        0.003      332.411        1.058      861.117
11/12/2014  06:23:00      -49.828      -18.405       -2.684        8.828       11.105        7.711       77.933      123.313       59.455        0.154        0.013       53.119        3.591        0.005      332.401        1.038      861.119
11/12/2014  06:24:00      -52.394      -13.330       -5.745        9.096        8.146        7.133       82.731       66.350       50.883        0.158        0.010       54.063        4.047        0.006      332.364        0.977      861.127
11/12/2014  06:25:00      -62.225      -18.152      -11.839        8.410       11.266        7.497       70.726      126.923       56.208        0.230        0.013       64.819        3.747        0.003      332.260        0.807      861.135
11/12/2014  06:26:00      -90.384      -16.417      -12.927       12.765       13.423        8.724      162.944      180.184       76.107        0.451        0.021       91.862        4.751        0.003      332.146        0.618      861.154
11/12/2014  06:27:00      -72.416      -19.744      -10.539       15.537       12.666       12.513      241.391      160.422      156.583        0.315        0.028       75.060        7.493        0.010      332.167        0.654      861.170
11/12/2014  06:28:00      -82.892      -18.373       -4.770       23.036       17.059       16.904      530.656      291.026      285.746        0.417        0.055       84.903       16.460        0.038      332.127        0.589      861.177
11/12/2014  06:29:00      -89.282      -23.447       -6.649       15.854       14.163        9.087      251.359      200.598       82.580        0.455        0.027       92.310        7.584        0.007      332.116        0.571      861.175
11/12/2014  06:30:00      -89.183      -25.519      -11.296       19.922       18.550       10.020      396.870      344.093      100.397        0.479        0.042       92.763        8.773        0.009      332.159        0.640      861.171
11/12/2014  06:31:00      -91.961      -21.968      -13.453       12.698       13.871       10.740      161.240      192.413      115.354        0.479        0.023       94.549        8.186        0.007      332.178        0.672      861.177
11/12/2014  06:32:00      -82.452      -14.893      -12.530       21.867       14.812       14.242      478.144      219.401      202.839        0.404        0.045       83.786        9.485        0.013      332.152        0.628      861.190
11/12/2014  06:33:00      -83.089      -32.468      -10.985       12.866       12.025        9.307      165.539      144.600       86.620        0.424        0.020       89.207        4.660        0.003      332.210        0.726      861.199
11/12/2014  06:34:00      -80.800      -27.160       -7.834       17.619       16.804       10.696      310.445      282.361      114.399        0.402        0.035       85.243       10.468        0.015      332.164        0.650      861.210
11/12/2014  06:35:00      -77.467      -31.675       -5.546       12.725       15.956       11.653      161.936      254.599      135.796        0.379        0.028       83.693        8.201        0.010      332.195        0.701      861.215
11/12/2014  06:36:00      -79.194      -26.644       -7.187       12.622       12.693       10.727      159.304      161.119      115.076        0.373        0.022       83.556        6.344        0.006      332.180        0.674      861.207
11/12/2014  06:37:00      -84.827      -32.206       -9.006       16.444       11.917        9.338      270.394      142.008       87.190        0.441        0.025       90.735        7.482        0.007      332.216        0.736      861.213
11/12/2014  06:38:00      -94.415      -29.735      -12.750       12.856       18.463       12.075      165.264      340.888      145.805        0.531        0.033       98.987        5.309        0.003      332.235        0.767      861.228
11/12/2014  06:39:00      -96.426      -29.122      -13.744       17.390       19.825       14.374      302.408      393.028      206.604        0.562        0.045      100.728       12.220        0.015      332.092        0.530      861.260
11/12/2014  06:40:00      -78.886      -51.683      -10.038       24.039       16.964       12.668      577.881      287.769      160.483        0.501        0.051       94.308        6.560        0.005      332.052        0.464      861.293
11/12/2014  06:41:00      -92.803      -57.199       -7.813       30.020       17.949       15.822      901.174      322.176      250.334        0.671        0.074      109.015        6.842        0.004      332.106        0.553      861.312
11/12/2014  06:42:00     -106.532      -52.421       -2.679       31.234       28.122       15.568      975.570      790.832      242.375        0.806        0.100      118.731       13.716        0.013      332.051        0.463      861.301
11/12/2014  06:43:00      -98.550      -42.879      -10.732       36.309       19.683       17.771     1318.370      387.414      315.817        0.684        0.101      107.474       12.731        0.014      332.023        0.415      861.296
11/12/2014  06:44:00      -99.578      -17.386       -7.669       23.397       26.946       15.425      547.423      726.070      237.925        0.589        0.076      101.084       13.621        0.018      331.934        0.269      861.292
11/12/2014  06:45:00      -78.631      -12.387       -8.534       36.641       16.852       16.016     1342.531      283.985      256.507        0.415        0.094       79.600       19.487        0.060      331.865        0.156      861.299
11/12/2014  06:46:00      -95.159      -14.416      -10.075       30.410       25.371       16.376      924.745      643.693      268.181        0.560        0.092       96.245       14.309        0.022      331.898        0.210      861.312
11/12/2014  06:47:00     -107.192      -10.852      -10.825       47.914       30.992       24.229     2295.714      960.518      587.032        0.778        0.192      107.740       25.882        0.058      331.902        0.217      861.333
11/12/2014  06:48:00      -87.364       -8.313       -0.555       46.773       34.976       24.606     2187.691     1223.346      605.437        0.586        0.201       87.759       26.454        0.091      331.807        0.060      861.337
11/12/2014  06:49:00     -111.207      -11.839       -5.117       48.508       35.729       26.003     2353.059     1276.572      676.171        0.842        0.215      111.835       24.547        0.048      331.794        0.040      861.337
11/12/2014  06:50:00      -54.504        0.223       -3.497       41.347       27.775       14.657     1709.540      771.423      214.832        0.284        0.135       54.505       15.198        0.078      331.778        0.013      861.335
11/12/2014  06:51:00      -80.121      -13.791       -5.934       39.942       36.700       19.745     1595.399     1346.901      389.863        0.499        0.167       81.300       19.440        0.057      331.849        0.130      861.335
11/12/2014  06:52:00      -76.642        0.515      -12.361       41.351       35.498       20.843     1709.924     1260.100      434.424        0.472        0.170       76.644       20.531        0.072      331.881        0.181      861.346
11/12/2014  06:53:00       -2.923      -18.059       -5.149       43.188       24.904       20.229     1865.169      620.192      409.203        0.163        0.145       18.294       19.197        1.101      331.972        0.331      861.361
11/12/2014  06:54:00      -70.476      -63.127       -0.436       41.438       32.853       23.156     1717.121     1079.317      536.222        0.614        0.167       94.615       20.016        0.045      331.955        0.303      861.375
11/12/2014  06:55:00      -43.663      -59.420        6.895       44.136       28.058       24.102     1947.981      787.231      580.896        0.440        0.166       73.738       24.667        0.112      332.009        0.392      861.372
11/12/2014  06:56:00      -71.939      -42.138        3.449       36.653       29.070       21.609     1343.416      845.062      466.939        0.481        0.133       83.371       22.783        0.075      332.045        0.452      861.362
11/12/2014  06:57:00      -53.745      -38.176        0.006       41.005       22.711       19.683     1681.407      515.777      387.426        0.346        0.129       65.924       21.899        0.110      332.092        0.530      861.353
11/12/2014  06:58:00      -89.453      -14.766        0.568       43.813       25.750       16.879     1919.612      663.050      284.899        0.554        0.143       90.663       21.442        0.056      332.045        0.452      861.356
11/12/2014  06:59:00      -81.023      -56.328       -2.143       41.847       21.863       20.605     1751.187      477.981      424.584        0.620        0.133       98.679       10.794        0.012      332.086        0.520      861.369
11/12/2014  07:00:00      -29.446      -37.468       10.211       39.854       28.162       23.907     1588.321      793.076      571.522        0.266        0.148       47.654       23.494        0.243      332.158        0.638      861.385
11/12/2014  07:01:00      -85.778      -63.942       -0.557       37.392       20.819       21.523     1398.176      433.422      463.256        0.687        0.115      106.988       14.994        0.020      332.092        0.530      861.403
11/12/2014  07:02:00      -75.420      -37.427        2.206       36.611       31.014       22.068     1340.350      961.884      486.990        0.494        0.139       84.196       23.480        0.078      332.177        0.671      861.414
11/12/2014  07:03:00      -84.196      -71.039       -2.385       24.108       21.203       16.453      581.197      449.569      270.687        0.672        0.065      110.162       14.813        0.018      332.211        0.727      861.429
11/12/2014  07:04:00      -47.738      -45.566        2.970       42.838       36.234       16.543     1835.072     1312.926      273.664        0.389        0.171       65.993       23.475        0.127      332.257        0.802      861.454
11/12/2014  07:05:00      -51.235      -34.642       -0.918       27.430       27.666       18.282      752.385      765.425      334.226        0.284        0.093       61.847       21.116        0.117      332.302        0.876      861.462
11/12/2014  07:06:00      -17.685      -25.159       -2.205       27.917       25.446       18.930      779.354      647.477      358.355        0.137        0.089       30.752       19.104        0.386      332.333        0.926      861.460
11/12/2014  07:07:00      -69.238      -31.310       -0.078       27.933       15.083       15.865      780.268      227.498      251.693        0.352        0.063       75.988       17.220        0.051      332.257        0.801      861.454
11/12/2014  07:08:00      -46.501      -25.427       -0.870       16.934       14.987       12.199      286.758      224.608      148.812        0.173        0.033       52.999        7.561        0.020      332.333        0.925      861.451
11/12/2014  07:09:00      -44.982      -16.968       -2.492       10.822       18.184        9.972      117.121      330.652       99.440        0.143        0.027       48.076        9.623        0.040      332.392        1.025      861.447
11/12/2014  07:10:00      -78.554      -10.774      -10.923       18.869       15.329        9.700      356.036      234.971       94.089        0.355        0.034       79.290        9.081        0.013      332.297        0.869      861.452
11/12/2014  07:11:00      -81.602      -12.729       -8.391       22.808       14.239       14.280      520.218      202.763      203.928        0.391        0.046       82.589       12.448        0.023      332.290        0.855      861.467
11/12/2014  07:12:00      -94.131      -33.910       -6.964       27.011       16.590       13.216      729.600      275.220      174.674        0.562        0.059      100.052       12.987        0.017      332.357        0.966      861.480
11/12/2014  07:13:00      -64.926      -40.370       -0.387       30.246       23.702       18.496      914.831      561.778      342.084        0.383        0.091       76.453       16.817        0.048      332.304        0.879      861.480
11/12/2014  07:14:00      -76.416      -26.435       -5.749       31.883       20.190       14.994     1016.496      407.655      224.813        0.411        0.082       80.859       18.165        0.050      332.336        0.932      861.478
11/12/2014  07:15:00      -67.973      -37.617       -2.567       23.511       19.134       12.948      552.788      366.097      167.653        0.356        0.054       77.688       12.642        0.026      332.290        0.856      861.477
11/12/2014  07:16:00       -3.174       -7.509       12.149       21.686       13.211       17.243      470.287      174.527      297.310        0.058        0.047        8.152       10.618        1.697      332.468        1.150      861.460
11/12/2014  07:17:00      -48.908        1.810       -5.711       25.093       11.451       13.895      629.645      131.125      193.070        0.169        0.048       48.941       11.481        0.055      332.319        0.903      861.454
11/12/2014  07:18:00      -52.548        0.276       -7.826        7.753       19.147       10.129       60.113      366.609      102.598        0.168        0.026       52.549        8.036        0.023      332.333        0.926      861.446
11/12/2014  07:19:00      -51.944       -8.204       -9.677        9.247       11.559        7.750       85.507      133.609       60.066        0.157        0.014       52.588        3.632        0.005      332.396        1.032      861.448
11/12/2014  07:20:00      -70.357        9.770       -9.154       11.854        8.792        7.271      140.517       77.291       52.866        0.270        0.014       71.032        2.706        0.001      332.427        1.082      861.467
11/12/2014  07:21:00      -61.689        8.472       -6.432       11.362        9.654        9.217      129.104       93.198       84.961        0.211        0.015       62.268        5.883        0.009      332.457        1.133      861.482
11/12/2014  07:22:00      -56.302        1.638       -5.609       14.668        7.379        8.430      215.136       54.452       71.058        0.177        0.017       56.326        8.642        0.024      332.488        1.182      861.499
11/12/2014  07:23:00      -51.708        0.081       -6.388       14.752       12.951        9.013      217.636      167.739       81.238        0.159        0.023       51.708        8.419        0.027      332.558        1.299      861.518
11/12/2014  07:24:00      -34.317        0.107        2.413       13.801       11.338        8.946      190.476      128.560       80.022        0.079        0.020       34.318        7.963        0.054      332.616        1.395      861.527
11/12/2014  07:25:00      -23.763        2.403       -4.758       12.969        8.172        5.831      168.190       66.775       34.001        0.043        0.013       23.884        2.791        0.014      332.603        1.373      861.534
11/12/2014  07:26:00      -41.345       -2.318       -5.192        7.163        6.601        6.967       51.309       43.568       48.534        0.094        0.007       41.410        4.159        0.010      332.639        1.432      861.539
11/12/2014  07:27:00      -33.414        3.007       -0.220        7.772        4.909        4.856       60.406       24.102       23.578        0.062        0.005       33.550        2.888        0.007      332.717        1.562      861.545
11/12/2014  07:28:00      -25.279       -7.174       -3.394        7.950        7.686        5.936       63.201       59.073       35.239        0.043        0.008       26.278        2.783        0.011      332.847        1.777      861.556
11/12/2014  07:29:00      -13.710       -1.517       -4.364       11.771        7.521        6.332      138.559       56.569       40.090        0.022        0.012       13.794        5.961        0.187      332.951        1.949      861.555
11/12/2014  07:30:00       -3.728        1.572        2.357        5.305        7.166        9.696       28.138       51.354       94.017        0.010        0.009        4.046        5.173        1.635      333.259        2.457      861.555
11/12/2014  07:31:00       -7.907        5.810       16.173        6.801        6.652        8.857       46.252       44.248       78.445        0.026        0.008        9.812        5.939        0.366      333.411        2.709      861.566
11/12/2014  07:32:00       -0.503       16.396       27.798        6.334        9.986        5.583       40.119       99.712       31.168        0.061        0.009       16.404        2.958        0.033      333.380        2.656      861.583
11/12/2014  07:33:00        4.597       12.937       31.409       11.471       13.368        8.046      131.594      178.711       64.731        0.077        0.019       13.729        5.985        0.190      333.357        2.620      861.602
11/12/2014  07:34:00        7.690       22.746       45.327       17.942       21.488        8.863      321.913      461.734       78.557        0.175        0.043       24.011        8.424        0.123      333.368        2.636      861.616
11/12/2014  07:35:00       35.867       41.446       49.892       24.941       17.739       11.618      622.043      314.667      134.984        0.328        0.054       54.811        6.215        0.013      333.267        2.470      861.619
11/12/2014  07:36:00       31.097       35.434       36.721       22.149       20.426       18.461      490.584      417.208      340.816        0.241        0.062       47.144       14.058        0.089      333.292        2.510      861.628
11/12/2014  07:37:00       33.058       44.836       31.888       23.204       24.767       26.839      538.432      613.401      720.343        0.300        0.094       55.706       19.368        0.121      333.245        2.434      861.636
11/12/2014  07:38:00        8.112      -12.347       33.829       17.190       41.256       20.535      295.480     1702.020      421.695        0.189        0.121       14.774       22.951        2.413      333.422        2.726      861.655
11/12/2014  07:39:00       21.786      -38.764       18.198       19.698       37.057       25.799      388.012     1373.255      665.582        0.237        0.121       44.466       17.533        0.155      333.366        2.635      861.677
11/12/2014  07:40:00       46.048      -60.751       -5.541       26.730       35.038       19.761      714.504     1227.689      390.503        0.409        0.117       76.231       19.724        0.067      333.262        2.462      861.681
11/12/2014  07:41:00        4.399        0.728       31.535       23.069       42.941       22.852      532.191     1843.916      522.229        0.196        0.145        4.459       26.691       35.832      333.360        2.624      861.685
11/12/2014  07:42:00       18.425       -9.840        8.740       25.226       27.654       25.005      636.362      764.724      625.246        0.127        0.101       20.888       23.954        1.315      333.489        2.837      861.683
11/12/2014  07:43:00       -3.066       49.550       49.991       19.827       23.953       21.271      393.115      573.739      452.446        0.319        0.071       49.645       15.242        0.094      333.496        2.849      861.677
11/12/2014  07:44:00        5.478       76.050       79.915       44.713       35.491       39.895     1999.268     1259.601     1591.624        0.852        0.243       76.247       32.393        0.180      333.361        2.625      861.680
11/12/2014  07:45:00       54.443       73.041       66.227       53.003       29.951       37.250     2809.323      897.087     1387.526        0.889        0.255       91.099       34.639        0.145      333.266        2.467      861.680
11/12/2014  07:46:00       54.087       76.909       64.793       30.154       24.044       24.437      909.266      578.129      597.170        0.756        0.104       94.024       20.046        0.045      333.250        2.441      861.687
11/12/2014  07:47:00       49.432       36.426       12.640       30.014       31.242       24.756      900.860      976.082      612.854        0.321        0.124       61.403       15.115        0.061      333.436        2.749      861.686
11/12/2014  07:48:00       19.377       30.585       35.818       32.541       34.885       26.771     1058.893     1216.946      716.675        0.279        0.150       36.206       15.596        0.186      333.626        3.064      861.699
11/12/2014  07:49:00       20.278       29.697       41.000       36.698       34.822       19.901     1346.735     1212.577      396.062        0.296        0.148       35.960        8.948        0.062      333.727        3.231      861.703
11/12/2014  07:50:00        1.212        3.933       48.620       28.495       57.890       34.597      811.967     3351.212     1196.941        0.387        0.268        4.115       28.311       47.324      333.650        3.104      861.703
11/12/2014  07:51:00       37.347       65.309       74.496       47.503       62.108       33.432     2256.552     3857.399     1117.673        0.922        0.362       75.233       34.635        0.212      333.461        2.792      861.719
11/12/2014  07:52:00       75.005       53.281       36.649       38.621       38.064       43.120     1491.578     1448.848     1859.303        0.730        0.240       92.003       30.763        0.112      333.349        2.605      861.718
11/12/2014  07:53:00       41.764       67.163       88.311       42.279       32.221       36.300     1787.479     1038.207     1317.708        0.910        0.207       79.090       25.133        0.101      333.454        2.777      861.733
11/12/2014  07:54:00       59.825       88.804       76.221       33.801       30.345       32.395     1142.499      920.847     1049.417        1.019        0.156      107.075       19.666        0.034      333.280        2.491      861.747
11/12/2014  07:55:00       88.479       73.756       49.411       39.541       25.382       30.642     1563.481      644.236      938.947        0.943        0.157      115.189       16.917        0.022      333.213        2.381      861.766
11/12/2014  07:56:00       70.528       57.587       37.303       39.445       31.015       33.676     1555.875      961.906     1134.105        0.667        0.183       91.052       30.053        0.109      333.283        2.497      861.776
11/12/2014  07:57:00       41.086      -16.205       45.389       44.174       66.473       39.351     1951.356     4418.603     1548.474        0.596        0.396       44.167       37.054        0.704      333.421        2.724      861.770
11/12/2014  07:58:00       29.375      -14.446       27.718       40.157       54.116       33.079     1612.593     2928.525     1094.194        0.374        0.282       32.735       31.364        0.918      333.551        2.940      861.777
11/12/2014  07:59:00       12.095        5.877       45.522       38.447       39.860       30.114     1478.134     1588.848      906.881        0.311        0.199       13.447       19.228        2.045      333.720        3.219      861.775
11/12/2014  08:00:00       61.467       60.150       33.644       41.285       26.606       29.869     1704.485      707.890      892.133        0.592        0.165       86.002       27.092        0.099      333.270        2.475      861.775
11/12/2014  08:01:00       37.149       52.541        4.668       20.666       38.636       22.372      427.099     1492.778      500.505        0.329        0.121       64.347       10.977        0.029      333.212        2.379      861.775
11/12/2014  08:02:00       26.981        1.646       20.016       31.239       29.924       29.456      975.880      895.472      867.678        0.193        0.137       27.031       18.620        0.474      333.605        3.029      861.768
11/12/2014  08:03:00       32.306       -6.659       10.949       31.435       34.241       27.738      988.158     1172.443      769.390        0.207        0.146       32.985       25.627        0.604      333.525        2.897      861.774
11/12/2014  08:04:00       41.627       28.407       22.218       21.386       28.176       23.129      457.358      793.881      534.937        0.241        0.089       50.396       17.984        0.127      333.382        2.661      861.782
11/12/2014  08:05:00       28.954       41.915       38.678       33.092       24.691       25.291     1095.048      609.667      639.631        0.322        0.117       50.943       13.589        0.071      333.527        2.900      861.789
11/12/2014  08:06:00       30.861       36.736       51.551       41.848       31.638       24.997     1751.245     1000.988      624.829        0.417        0.169       47.979       20.888        0.190      333.535        2.913      861.792
11/12/2014  08:07:00       48.887        1.304       30.488       46.927       67.903       48.563     2202.132     4610.844     2358.391        0.624        0.459       48.905       54.414        1.238      333.500        2.856      861.776
11/12/2014  08:08:00       58.852      -31.020        6.594       31.743       56.015       37.321     1007.615     3137.703     1392.880        0.500        0.277       66.526       37.156        0.312      333.557        2.949      861.763
11/12/2014  08:09:00       28.796       -6.386       46.298       22.081       31.269       19.258      487.549      977.779      370.885        0.242        0.092       29.496       19.214        0.424      333.692        3.174      861.745
11/12/2014  08:10:00       14.524      -13.072        2.373       22.873       24.179       22.264      523.156      584.621      495.680        0.100        0.080       19.540       13.385        0.469      333.508        2.867      861.735
11/12/2014  08:11:00       39.513       36.414        3.367       26.273       33.214       30.219      690.290     1103.189      913.162        0.280        0.135       53.734       23.831        0.197      333.742        3.256      861.719
11/12/2014  08:12:00       11.878      -20.169       32.425       39.564       45.161       34.971     1565.318     2039.485     1222.979        0.321        0.241       23.407       26.205        1.253      334.011        3.702      861.697
11/12/2014  08:13:00       70.195      -44.256        7.211       52.588       68.707       42.863     2765.502     4720.606     1837.235        0.813        0.466       82.981       49.748        0.359      333.679        3.152      861.681
11/12/2014  08:14:00       21.718       36.876       60.271       29.931       38.441       26.480      895.861     1477.731      701.170        0.427        0.154       42.796       25.969        0.368      333.764        3.293      861.682
11/12/2014  08:15:00       11.661       14.437       55.431       22.490       21.799       17.017      505.815      475.199      289.585        0.234        0.064       18.558       14.938        0.648      334.038        3.748      861.680
11/12/2014  08:16:00       40.693       13.089       40.296       35.072       30.594       27.811     1230.078      935.977      773.450        0.319        0.147       42.746       22.682        0.282      333.665        3.130      861.694
11/12/2014  08:17:00       -2.090       48.148       63.201       17.960       35.048       21.442      322.548     1228.347      459.756        0.416        0.101       48.194       20.762        0.186      333.926        3.561      861.704
11/12/2014  08:18:00        8.714        2.779       49.061       36.702       77.274       44.898     1347.007     5971.208     2015.846        0.591        0.467        9.146       51.110       31.229      333.701        3.189      861.723
11/12/2014  08:19:00       34.023      -13.734       44.965       33.072       59.061       42.107     1093.762     3488.154     1773.028        0.486        0.318       36.691       37.248        1.031      333.893        3.507      861.714
11/12/2014  08:20:00       74.937       62.976       73.426       50.066       47.221       40.119     2506.580     2229.782     1609.525        1.066        0.317       97.885       42.536        0.189      333.477        2.817      861.708
11/12/2014  08:21:00       80.091       17.285       26.178       43.890       26.693       26.169     1926.314      712.519      684.841        0.536        0.166       81.935       19.694        0.058      333.464        2.796      861.691
11/12/2014  08:22:00       99.236        3.557        9.136       39.023       23.127       26.643     1522.825      534.853      709.832        0.636        0.138       99.299       22.557        0.052      333.437        2.750      861.682
11/12/2014  08:23:00       45.585       43.959       42.707       31.836       29.291       30.255     1013.544      857.956      915.387        0.431        0.139       63.328       16.892        0.071      333.580        2.988      861.679
11/12/2014  08:24:00       28.363       26.156       44.627       36.114       30.665       24.967     1304.212      940.348      623.337        0.317        0.143       38.583       23.750        0.379      333.624        3.061      861.681
11/12/2014  08:25:00       29.199      -10.517       19.108       15.369       22.437       16.686      236.221      503.408      278.439        0.117        0.051       31.035        7.503        0.058      333.744        3.260      861.689
11/12/2014  08:26:00       44.901       29.183       24.924       31.567       17.933       19.152      996.491      321.609      366.786        0.259        0.084       53.552       11.960        0.050      333.836        3.412      861.700
11/12/2014  08:27:00       61.093       50.617        6.287       36.947       29.768       28.045     1365.064      886.105      786.536        0.469        0.152       79.337        9.625        0.015      333.782        3.324      861.724
11/12/2014  08:28:00       46.139       44.999       17.032       46.043       33.662       34.935     2119.961     1133.131     1220.440        0.446        0.224       64.449       29.284        0.206      334.102        3.854      861.737
11/12/2014  08:29:00       25.431       35.680       27.630       27.359       32.771       30.116      748.540     1073.949      906.956        0.271        0.136       43.815       16.466        0.141      334.218        4.046      861.737
11/12/2014  08:30:00       13.971       -4.810       12.382       24.809       55.800       20.919      615.478     3113.628      437.599        0.227        0.208       14.776       18.281        1.531      333.965        3.625      861.730
11/12/2014  08:31:00       37.448       57.935       20.551       23.282       30.804       28.092      542.039      948.880      789.186        0.373        0.114       68.984       18.571        0.072      334.150        3.934      861.728
11/12/2014  08:32:00       27.243       20.174       17.745       34.851       35.147       32.284     1214.584     1235.300     1042.236        0.248        0.175       33.900       24.374        0.517      334.186        3.993      861.723
11/12/2014  08:33:00       96.172       73.434       24.438       44.048       26.159       29.561     1940.202      684.299      873.837        0.937        0.175      121.003       26.516        0.048      333.715        3.211      861.718
11/12/2014  08:34:00       47.456       52.132       31.335       44.311       28.444       24.518     1963.430      809.041      601.114        0.466        0.169       70.497       15.449        0.048      334.138        3.913      861.707
11/12/2014  08:35:00       32.866       52.343       50.313       50.116       43.687       36.169     2511.636     1908.594     1308.188        0.604        0.286       61.806       33.070        0.286      334.182        3.987      861.695
11/12/2014  08:36:00        8.713      -17.686       32.337       22.013       46.863       30.079      484.578     2196.103      904.731        0.251        0.179       19.716       31.305        2.521      334.442        4.418      861.708
11/12/2014  08:37:00        1.511      -27.103       25.682       29.418       51.421       27.646      865.406     2644.082      764.317        0.283        0.214       27.145       25.982        0.916      334.535        4.571      861.723
11/12/2014  08:38:00        8.728       23.808       51.474       23.470       41.713       21.257      550.838     1740.001      451.842        0.302        0.137       25.358       19.668        0.602      334.324        4.221      861.744
11/12/2014  08:39:00      -15.090       58.411       81.898       17.381       41.676       34.806      302.090     1736.860     1211.477        0.680        0.163       60.328       26.664        0.195      334.408        4.362      861.747
11/12/2014  08:40:00       20.899       23.480       34.951       43.230       46.463       39.583     1868.861     2158.812     1566.811        0.390        0.280       31.433       26.553        0.714      334.211        4.035      861.762
11/12/2014  08:41:00       10.436        4.070       19.033       30.043       40.628       21.472      902.568     1650.640      461.049        0.175        0.151       11.202       14.610        1.701      334.282        4.153      861.752
11/12/2014  08:42:00       60.507       33.530       19.902       36.659       28.118       29.329     1343.912      790.623      860.206        0.409        0.150       69.176       20.123        0.085      334.305        4.190      861.745
11/12/2014  08:43:00       96.266       39.469       13.675       56.902       35.051       33.495     3237.865     1228.604     1121.899        0.830        0.279      104.043       25.626        0.061      334.310        4.199      861.744
11/12/2014  08:44:00      157.577       77.510       10.498       23.160       32.488       34.889      536.385     1055.497     1217.232        1.688        0.140      175.609       14.469        0.007      333.841        3.420      861.731
11/12/2014  08:45:00       95.964       99.669       -2.209       42.066       30.122       29.917     1769.545      907.323      895.047        1.136        0.179      138.358       18.773        0.018      333.863        3.457      861.704
11/12/2014  08:46:00       82.288       64.393        8.895       52.080       31.185       36.908     2712.375      972.493     1362.212        0.802        0.252      104.488       19.480        0.035      334.160        3.950      861.689
11/12/2014  08:47:00       75.424       86.464        4.220       35.408       31.411       34.770     1253.744      986.671     1208.979        0.832        0.172      114.738       18.439        0.026      334.083        3.823      861.692
11/12/2014  08:48:00       79.179       68.060       21.309       46.790       28.779       28.185     2189.334      828.222      794.406        0.758        0.191      104.411       17.525        0.028      334.165        3.957      861.701
11/12/2014  08:49:00       38.186       79.879       81.852       41.847       43.227       32.163     1751.159     1868.589     1034.487        0.960        0.233       88.537       24.595        0.077      334.389        4.330      861.709
11/12/2014  08:50:00       70.355       92.889       71.671       47.677       35.826       41.635     2273.122     1283.508     1733.510        1.200        0.265      116.526       30.286        0.068      334.178        3.979      861.721
11/12/2014  08:51:00       24.216       60.874       79.978       35.429       31.081       19.256     1255.238      965.998      370.790        0.664        0.130       65.514       23.538        0.129      334.215        4.041      861.726
11/12/2014  08:52:00       27.660       44.057       63.946       29.087       39.522       35.252      846.076     1561.966     1242.679        0.522        0.183       52.020       30.893        0.353      334.331        4.233      861.715
11/12/2014  08:53:00       38.177      -12.552        9.746       29.581       46.408       24.520      875.045     2153.743      601.235        0.267        0.182       40.188       22.636        0.317      334.295        4.173      861.692
11/12/2014  08:54:00        0.915       36.118       44.050       21.922       28.297       25.370      480.579      800.746      643.652        0.258        0.096       36.130       14.003        0.150      334.821        5.048      861.676
11/12/2014  08:55:00       21.598       46.281       39.307       36.043       38.678       33.362     1299.080     1495.992     1113.034        0.403        0.195       51.072       16.510        0.105      334.731        4.897      861.671
11/12/2014  08:56:00       65.050        8.674       19.793       45.473       64.003       41.387     2067.805     4096.337     1712.907        0.629        0.394       65.626       41.469        0.399      334.323        4.220      861.682
11/12/2014  08:57:00       13.884       27.993       44.786       32.750       48.402       25.903     1072.558     2342.781      670.969        0.353        0.204       31.247       18.793        0.362      334.671        4.798      861.691
11/12/2014  08:58:00       23.957       29.473       21.103       33.863       42.730       27.293     1146.730     1825.841      744.933        0.280        0.186       37.981       23.621        0.387      334.780        4.978      861.693
11/12/2014  08:59:00       46.647       35.693       21.853       43.782       35.042       29.172     1916.890     1227.962      850.984        0.396        0.200       58.736       19.768        0.113      334.601        4.682      861.689
11/12/2014  09:00:00       44.161       33.643        7.537       34.357       27.958       28.989     1180.422      781.651      840.371        0.297        0.140       55.516       21.649        0.152      334.754        4.936      861.689
11/12/2014  09:01:00       61.065       85.022        6.066       49.469       41.652       32.025     2447.189     1734.914     1025.575        0.810        0.260      104.679       28.180        0.072      334.453        4.436      861.692
11/12/2014  09:02:00       37.006       82.408       -0.355       34.007       39.550       32.410     1156.506     1564.165     1050.413        0.597        0.189       90.335       27.187        0.091      334.552        4.601      861.708
11/12/2014  09:03:00       34.330       74.940      -17.678       32.125       23.660       27.771     1031.988      559.780      771.235        0.473        0.118       82.429       17.263        0.044      334.699        4.845      861.706
11/12/2014  09:04:00       14.685       94.468       -2.398       42.028       36.200       31.689     1766.351     1310.435     1004.180        0.661        0.204       95.603       28.040        0.086      334.687        4.823      861.703
11/12/2014  09:05:00       25.691       56.627       22.820       33.980       43.668       29.221     1154.615     1906.910      853.864        0.415        0.196       62.182       16.274        0.068      334.859        5.108      861.689
11/12/2014  09:06:00       14.774       22.098       63.105       29.206       44.468       26.410      852.985     1977.365      697.498        0.411        0.176       26.582       26.413        0.987      335.004        5.351      861.674
11/12/2014  09:07:00       65.708       55.702       48.955       31.104       31.969       41.336      967.444     1022.016     1708.679        0.676        0.185       86.141       22.458        0.068      334.324        4.222      861.663
11/12/2014  09:08:00       76.670       47.380       14.264       25.145       34.335       35.809      632.284     1178.881     1282.307        0.571        0.155       90.129       25.742        0.082      334.393        4.337      861.655
11/12/2014  09:09:00       84.630       48.799        8.898       33.406       31.851       31.103     1115.974     1014.483      967.366        0.636        0.155       97.691       15.660        0.026      334.627        4.724      861.642
11/12/2014  09:10:00       44.683       55.253       17.601       45.585       42.127       34.186     2078.000     1774.702     1168.684        0.519        0.251       71.060       27.392        0.149      334.830        5.060      861.631
11/12/2014  09:11:00       89.767       65.817        5.805       50.036       42.320       34.531     2503.571     1790.983     1192.414        0.895        0.274      111.311       22.933        0.042      334.598        4.675      861.616
11/12/2014  09:12:00       77.543       66.461        8.796       44.165       30.929       42.564     1950.561      956.608     1811.695        0.761        0.236      102.127       14.392        0.020      334.895        5.168      861.596
11/12/2014  09:13:00      131.976       67.858       -3.046       43.397       30.451       36.869     1883.285      927.236     1359.336        1.310        0.208      148.400       18.083        0.015      334.503        4.519      861.598
11/12/2014  09:14:00      110.206       65.179       14.486       66.244       48.136       42.851     4388.286     2317.117     1836.212        1.257        0.427      128.038       35.909        0.079      334.744        4.918      861.601
11/12/2014  09:15:00      120.227       74.185        9.194       38.254       35.416       33.434     1463.354     1254.284     1117.838        1.194        0.192      141.272       16.623        0.014      334.328        4.227      861.607
11/12/2014  09:16:00      134.175       75.309       12.850       41.706       35.366       37.554     1739.418     1250.744     1410.333        1.412        0.220      153.865       17.160        0.012      334.394        4.338      861.597
11/12/2014  09:17:00       57.263       82.448       48.517       49.152       34.231       39.079     2415.873     1171.733     1527.185        0.877        0.256      100.383       33.138        0.109      334.553        4.602      861.579
11/12/2014  09:18:00      -16.840       95.483      114.159       26.906       55.630       34.741      723.933     3094.706     1206.952        1.373        0.251       96.956       38.087        0.154      334.930        5.228      861.562
11/12/2014  09:19:00       92.331       94.328       64.389       89.410       51.990       53.636     7994.182     2702.979     2876.853        1.757        0.679      131.996       59.320        0.202      334.715        4.870      861.545
11/12/2014  09:20:00      -21.896       76.130       88.324       36.973       46.017       41.265     1367.016     2117.537     1702.826        0.963        0.259       79.216       30.599        0.149      335.216        5.703      861.527
11/12/2014  09:21:00      -11.397       66.774      110.073       25.377       46.799       29.358      644.016     2190.170      861.867        1.020        0.185       67.740       29.786        0.193      334.918        5.208      861.520
11/12/2014  09:22:00       75.870       80.981       66.659       98.126       43.318       50.634     9628.761     1876.440     2563.853        1.541        0.703      110.970       62.693        0.319      334.939        5.242      861.529
11/12/2014  09:23:00      118.694       88.273       27.395       53.415       31.766       32.913     2853.117     1009.095     1083.291        1.379        0.247      147.920       29.394        0.039      334.545        4.586      861.524
11/12/2014  09:24:00       44.426       58.232       43.020       54.038       34.150       48.222     2920.066     1166.196     2325.340        0.681        0.321       73.243       33.017        0.203      334.729        4.894      861.514
11/12/2014  09:25:00       86.982       75.449        8.175       38.731       27.732       43.230     1500.094      769.063     1868.838        0.873        0.207      115.145       13.882        0.015      334.665        4.787      861.519
11/12/2014  09:26:00       60.919       73.599        6.950       39.654       31.957       26.754     1572.401     1021.234      715.758        0.624        0.165       95.540       22.319        0.055      334.574        4.636      861.507
11/12/2014  09:27:00       25.684       36.719       50.336       40.198       47.104       38.498     1615.862     2218.788     1482.071        0.493        0.266       44.810       29.574        0.436      335.172        5.629      861.495
11/12/2014  09:28:00       54.461       68.573       65.459       47.296       39.188       35.333     2236.931     1535.694     1248.389        0.849        0.251       87.569       25.773        0.087      334.959        5.277      861.474
11/12/2014  09:29:00       61.448       28.899       17.037       44.736       68.797       48.490     2001.297     4733.094     2351.272        0.699        0.454       67.904       39.016        0.330      334.912        5.199      861.472
11/12/2014  09:30:00       41.271      -16.881       36.288       55.138       51.805       28.353     3040.201     2683.759      803.920        0.492        0.326       44.590       19.058        0.183      335.061        5.446      861.479
11/12/2014  09:31:00      103.303       72.979       46.006       49.118       46.588       48.459     2412.566     2170.482     2348.309        1.252        0.347      126.481       34.861        0.076      334.724        4.885      861.463
11/12/2014  09:32:00      110.119       97.060       58.971       70.016       64.496       60.786     4902.283     4159.778     3694.902        1.889        0.638      146.788       51.147        0.121      334.771        4.963      861.445
11/12/2014  09:33:00       70.719       -7.131       22.903       66.053       50.484       40.298     4362.971     2548.600     1623.919        0.705        0.427       71.078       37.103        0.272      334.960        5.277      861.437
11/12/2014  09:34:00       37.844       58.848       67.831       55.557       45.034       33.917     3086.586     2028.087     1150.358        0.788        0.313       69.967       16.181        0.053      335.416        6.036      861.418
11/12/2014  09:35:00       44.525       65.131       91.590       64.683       69.081       53.335     4183.905     4772.127     2844.600        1.320        0.590       78.895       47.746        0.366      334.971        5.296      861.405
11/12/2014  09:36:00      116.417       98.812       66.489       37.050       34.507       46.352     1372.680     1190.717     2148.525        1.622        0.236      152.698       29.199        0.037      334.547        4.591      861.398
11/12/2014  09:37:00       78.100       44.220        7.840       22.445       28.110       31.351      503.770      790.170      982.911        0.520        0.114       89.750       23.218        0.067      334.686        4.822      861.398
11/12/2014  09:38:00       61.406       17.905       17.530       39.559       37.053       31.746     1564.952     1372.947     1007.825        0.417        0.197       63.964       21.932        0.118      334.880        5.146      861.398
11/12/2014  09:39:00       30.204        7.346       45.222       35.979       59.168       41.382     1294.524     3500.794     1712.431        0.476        0.325       31.085       42.843        1.900      335.229        5.724      861.415
11/12/2014  09:40:00       17.762      -13.620       27.790       42.206       54.132       31.185     1781.331     2930.314      972.511        0.348        0.284       22.383       30.747        1.887      335.440        6.076      861.421
11/12/2014  09:41:00       32.107       65.166       -5.588       30.642       46.477       23.548      938.939     2160.103      554.501        0.448        0.183       72.646       12.707        0.031      335.093        5.499      861.437
11/12/2014  09:42:00       49.891       61.057        3.714       32.365       28.852       23.949     1047.499      832.410      573.571        0.434        0.123       78.848       16.019        0.041      335.016        5.369      861.436
11/12/2014  09:43:00       95.725       60.120       31.707       42.518       36.612       32.779     1807.810     1340.435     1074.476        0.900        0.211      113.038       15.240        0.018      335.017        5.372      861.430
11/12/2014  09:44:00       21.182      103.952      -15.345       31.831       28.675       24.702     1013.203      822.261      610.205        0.697        0.122      106.088       16.601        0.024      334.948        5.257      861.413
11/12/2014  09:45:00       45.060       29.108       21.222       61.049       38.881       23.166     3726.933     1511.744      536.666        0.455        0.289       53.644       12.458        0.054      335.484        6.150      861.403
11/12/2014  09:46:00      147.539      105.342        8.965       58.117       44.939       37.125     3377.544     2019.491     1378.296        1.986        0.339      181.286       33.076        0.033      334.842        5.081      861.385
11/12/2014  09:47:00       57.855       54.149        4.507       53.811       41.887       31.994     2895.608     1754.528     1023.612        0.599        0.284       79.242       22.796        0.083      335.087        5.489      861.379
11/12/2014  09:48:00       45.643       22.230       10.437       49.083       33.392       33.786     2409.115     1115.039     1141.477        0.368        0.233       50.769       20.760        0.167      335.518        6.204      861.370
11/12/2014  09:49:00       20.846       55.180        8.130       62.009       46.315       46.069     3845.155     2145.060     2122.379        0.583        0.406       58.986       37.587        0.406      335.413        6.031      861.386
11/12/2014  09:50:00       23.078       40.818       50.674       34.029       50.025       40.528     1157.951     2502.477     1642.498        0.503        0.265       46.890       37.983        0.656      335.375        5.968      861.397
11/12/2014  09:51:00        9.875      -43.967       11.391       29.227       46.962       24.655      854.227     2205.472      607.851        0.291        0.183       45.062       17.931        0.158      335.202        5.680      861.402
11/12/2014  09:52:00       27.728        4.912       17.659       34.910       40.300       30.676     1218.707     1624.098      941.005        0.244        0.189       28.160       19.023        0.456      335.603        6.345      861.381
11/12/2014  09:53:00       37.065      -41.499       13.815       35.341       68.662       44.943     1248.998     4714.526     2019.867        0.563        0.399       55.641       41.732        0.563      335.753        6.597      861.380
11/12/2014  09:54:00       34.937       35.564       47.770       38.247       50.021       37.092     1462.864     2502.102     1375.786        0.505        0.267       49.854       30.770        0.381      335.461        6.111      861.368
11/12/2014  09:55:00      114.668       44.666       15.087       74.132       43.325       38.737     5495.519     1877.027     1500.526        1.212        0.444      123.060       44.089        0.128      335.330        5.892      861.367
11/12/2014  09:56:00      132.829       79.184        5.751       44.504       29.219       34.415     1980.602      853.778     1184.403        1.398        0.201      154.640       27.419        0.031      335.011        5.362      861.367
11/12/2014  09:57:00       27.397       46.548       -5.201       32.645       25.704       27.301     1065.719      660.707      745.351        0.271        0.124       54.013       21.769        0.162      335.150        5.592      861.351
11/12/2014  09:58:00      -43.275       30.201      -12.909       26.450       31.182       24.802      699.588      972.332      615.138        0.262        0.114       52.772       14.305        0.073      335.253        5.765      861.336
11/12/2014  09:59:00      -54.763       84.430      -12.127       33.197       49.120       24.630     1102.011     2412.793      606.650        0.720        0.206      100.636       24.288        0.058      335.247        5.754      861.334
11/12/2014  10:00:00      -28.982       41.839       -8.568       25.689       28.642       20.641      659.929      820.341      426.066        0.228        0.095       50.897       18.546        0.133      335.457        6.104      861.336
11/12/2014  10:01:00        5.909       22.085        4.378       20.808       53.074       21.300      432.963     2816.890      453.698        0.212        0.185       22.862       18.997        0.690      335.571        6.294      861.329
11/12/2014  10:02:00        4.303      119.340       -3.655       26.408       51.681       34.657      697.371     2670.963     1201.129        0.942        0.228      119.418       30.355        0.065      335.419        6.040      861.337
11/12/2014  10:03:00       13.150      111.726       -6.218       42.292       77.266       37.086     1788.585     5970.064     1375.384        1.091        0.457      112.497       32.931        0.086      335.529        6.224      861.318
11/12/2014  10:04:00      140.650      122.440       19.322       59.350       46.836       44.220     3522.381     2193.597     1955.449        2.141        0.384      186.478       22.232        0.014      335.370        5.958      861.297
11/12/2014  10:05:00       56.951       70.594       56.202       82.169       48.787       50.586     6751.745     2380.150     2558.985        1.154        0.585       90.703       34.131        0.142      335.837        6.737      861.290
11/12/2014  10:06:00      114.816      108.646       28.431       46.210       40.787       46.859     2135.337     1663.542     2195.792        1.589        0.300      158.072       27.415        0.030      335.493        6.162      861.299
11/12/2014  10:07:00       27.146       43.154      -11.021       48.915       54.425       26.581     2392.714     2962.131      706.547        0.439        0.303       50.983       11.805        0.054      335.227        5.720      861.311
11/12/2014  10:08:00       94.014       81.168       17.895       69.526       44.302       40.907     4833.813     1962.670     1673.397        1.211        0.423      124.205       24.651        0.039      335.687        6.487      861.310
11/12/2014  10:09:00       19.424       48.581       63.254       62.519       50.614       32.629     3908.592     2561.772     1064.621        0.714        0.377       52.321       25.521        0.238      336.035        7.067      861.301
11/12/2014  10:10:00       26.538       40.287       55.504       35.236       31.988       28.405     1241.592     1023.234      806.836        0.424        0.154       48.242       19.442        0.162      335.820        6.709      861.306
11/12/2014  10:11:00        9.994       20.654       44.200       25.200       48.888       37.100      635.046     2390.019     1376.424        0.344        0.220       22.945       36.152        2.483      335.943        6.913      861.300
11/12/2014  10:12:00       44.849       49.171       58.773       36.333       33.240       32.860     1320.116     1104.906     1079.751        0.569        0.175       66.552       11.969        0.032      335.721        6.544      861.301
11/12/2014  10:13:00       32.276       44.824        5.986       33.507       19.137       24.285     1122.725      366.228      589.755        0.258        0.104       55.235        9.727        0.031      335.374        5.964      861.297
11/12/2014  10:14:00      -19.132       56.472      -14.613       18.578       27.109       16.517      345.153      734.911      272.818        0.256        0.068       59.625       12.187        0.042      335.276        5.802      861.309
11/12/2014  10:15:00       30.755       24.732        6.157       30.831       31.662       20.497      950.525     1002.466      420.117        0.198        0.119       39.465       14.117        0.128      335.493        6.163      861.299
11/12/2014  10:16:00       -5.135       32.193       32.631       24.039       44.662       34.406      577.894     1994.698     1183.750        0.294        0.188       32.600       17.946        0.303      336.394        7.666      861.276
11/12/2014  10:17:00       21.631       55.886       31.352       41.484       51.413       44.286     1720.934     2643.305     1961.226        0.545        0.316       59.926       25.114        0.176      336.316        7.536      861.268
11/12/2014  10:18:00       59.654       87.077       -5.972       36.661       45.524       31.236     1344.000     2072.392      975.666        0.778        0.220      105.551       26.560        0.063      335.606        6.351      861.263
11/12/2014  10:19:00       39.621       62.885       10.229       53.655       41.781       35.386     2878.853     1745.640     1252.155        0.575        0.294       74.326       25.556        0.118      335.939        6.907      861.264
11/12/2014  10:20:00       22.413      127.040       -4.710       38.987       62.765       42.200     1519.954     3939.429     1780.848        1.195        0.362      129.002       40.218        0.097      335.833        6.730      861.268
11/12/2014  10:21:00       17.924       60.102       28.568       52.033       44.639       62.468     2707.391     1992.605     3902.242        0.667        0.430       62.718       36.274        0.335      336.049        7.091      861.266
11/12/2014  10:22:00       58.177      108.003      110.215       50.170       60.147       42.195     2517.028     3617.632     1780.400        1.755        0.396      122.675       34.435        0.079      335.766        6.617      861.268
11/12/2014  10:23:00       71.883      108.792       94.303       57.860       57.112       39.788     3347.824     3261.812     1583.113        1.704        0.410      130.395       33.582        0.066      335.918        6.872      861.256
11/12/2014  10:24:00       68.481      -55.756       -0.693       37.828       38.222       36.483     1430.956     1460.954     1331.020        0.601        0.211       88.309       26.600        0.091      335.510        6.191      861.264
11/12/2014  10:25:00       36.578       -6.199        3.617       40.562       61.613       27.237     1645.258     3796.182      741.865        0.379        0.309       37.100       31.777        0.734      335.999        7.007      861.270
11/12/2014  10:26:00       81.429      102.231        9.966       60.531       38.251       44.718     3664.031     1463.101     1999.732        1.215        0.356      130.698       39.600        0.092      335.451        6.092      861.279
11/12/2014  10:27:00       35.509       58.070       22.559       40.248       24.873       42.941     1619.914      618.643     1843.940        0.461        0.204       68.066       36.714        0.291      335.747        6.587      861.300
11/12/2014  10:28:00       -5.625       22.046       34.791       41.362       29.084       32.081     1710.850      845.872     1029.183        0.266        0.179       22.752       27.180        1.427      336.148        7.255      861.295
11/12/2014  10:29:00        3.546        7.667       38.091       33.548       84.398       46.164     1125.457     7122.956     2131.077        0.595        0.519        8.448       21.449        6.447      335.920        6.875      861.282
11/12/2014  10:30:00       22.975       90.779      110.294       53.683       81.050       48.415     2881.824     6569.163     2344.039        1.636        0.590       93.641       45.756        0.239      336.354        7.598      861.255
11/12/2014  10:31:00      151.819      146.076       89.128       83.242       63.196       59.810     6929.263     3993.751     3577.258        3.341        0.725      210.683       55.554        0.070      335.653        6.426      861.245
11/12/2014  10:32:00       64.845       48.790       52.458       80.594      105.057       51.688     6495.411    11037.048     2671.618        1.477        1.010       81.150       57.486        0.502      335.922        6.877      861.249
11/12/2014  10:33:00       82.440       73.863       70.969       74.439       84.663       42.702     5541.212     7167.782     1823.472        1.591        0.727      110.689       38.526        0.121      336.044        7.081      861.252
11/12/2014  10:34:00       99.206      134.060      107.526       82.275       60.926       64.339     6769.225     3711.998     4139.487        2.700        0.731      166.775       53.513        0.103      335.775        6.630      861.242
11/12/2014  10:35:00      119.838      150.235      117.799       89.753       89.397       63.591     8055.688     7991.909     4043.789        3.545        1.005      192.177       56.188        0.085      335.711        6.523      861.236
11/12/2014  10:36:00      135.198       43.859       75.022       63.783       77.478       57.518     4068.283     6002.764     3308.301        1.960        0.669      142.134       60.462        0.181      335.760        6.608      861.242
11/12/2014  10:37:00      132.310      113.382       80.113       60.327       32.412       44.887     3639.373     1050.510     2014.838        2.174        0.335      174.246       34.433        0.039      335.623        6.378      861.227
11/12/2014  10:38:00       42.565       18.395       32.066       35.852       33.364       38.494     1285.375     1113.157     1481.797        0.353        0.194       46.370       29.108        0.394      335.764        6.615      861.212
11/12/2014  10:39:00      -30.147       25.639       -1.380       45.681       26.844       17.773     2086.721      720.604      315.889        0.235        0.156       39.575       11.823        0.089      335.947        6.919      861.187
11/12/2014  10:40:00       11.524       31.886        6.905       37.295       25.043       21.067     1390.900      627.153      443.800        0.183        0.123       33.904       19.119        0.318      336.420        7.710      861.175
11/12/2014  10:41:00       -4.833       43.612        3.158       30.404       38.846       28.644      924.425     1509.004      820.503        0.259        0.163       43.879       17.123        0.152      336.336        7.570      861.165
11/12/2014  10:42:00       89.860       81.316       28.665       58.203       50.352       40.450     3387.624     2535.332     1636.228        1.153        0.378      121.190       13.244        0.012      336.229        7.390      861.157
11/12/2014  10:43:00       81.367       72.537       53.852       67.966       60.378       64.604     4619.338     3645.505     4173.726        1.361        0.622      109.006       55.842        0.262      336.015        7.033      861.141
11/12/2014  10:44:00       71.586       63.460       16.405       43.045       33.860       28.802     1852.911     1146.530      829.574        0.662        0.191       95.665       15.878        0.028      335.978        6.972      861.118
11/12/2014  10:45:00      124.878       76.760       56.986       74.958       83.642       67.359     5618.775     6996.038     4537.203        2.094        0.858      146.583       60.432        0.170      335.995        6.998      861.093
11/12/2014  10:46:00      143.327      105.213       54.068       50.002       32.997       47.201     2500.180     1088.826     2227.894        2.018        0.291      177.799       27.586        0.024      335.938        6.903      861.087
11/12/2014  10:47:00       54.058       22.980       25.719       37.800       54.457       32.526     1428.843     2965.556     1057.929        0.478        0.273       58.739        7.624        0.017      336.449        7.757      861.075
11/12/2014  10:48:00       71.808       64.088       41.748       84.355       63.194       49.451     7115.789     3993.494     2445.355        1.228        0.678       96.248       35.958        0.140      336.621        8.045      861.071
11/12/2014  10:49:00      109.614       73.846       38.708       44.637       44.287       32.846     1992.503     1961.296     1078.855        1.200        0.252      132.169       13.635        0.011      336.247        7.421      861.054
11/12/2014  10:50:00       19.751       40.929       49.814       36.497       41.978       32.814     1332.008     1762.161     1076.777        0.436        0.209       45.445       32.523        0.512      336.412        7.697      861.026
11/12/2014  10:51:00        8.037       -6.492       35.637       34.232       56.256       37.674     1171.815     3164.761     1419.304        0.357        0.288       10.332       37.307       13.038      336.706        8.187      861.008
11/12/2014  10:52:00        6.120       38.661       76.610       35.394       41.819       32.923     1252.707     1748.846     1083.936        0.574        0.204       39.142       20.674        0.279      336.802        8.349      860.966
11/12/2014  10:53:00       86.302       44.657       73.818       67.405       67.238       43.696     4543.389     4521.008     1909.369        1.293        0.549       97.171       37.006        0.145      336.313        7.531      860.943
11/12/2014  10:54:00       62.253       18.204       26.369       73.789       75.290       36.799     5444.778     5668.577     1354.193        0.868        0.623       64.860       36.121        0.310      336.372        7.630      860.919
11/12/2014  10:55:00      129.937      -70.598       24.970       78.337      106.070       72.345     6136.683    11250.925     5233.755        2.255        1.131      147.877       73.527        0.247      336.313        7.529      860.908
11/12/2014  10:56:00      106.980       47.476       22.022       48.727       33.977       30.823     2374.358     1154.408      950.034        0.933        0.224      117.041        7.230        0.004      336.055        7.101      860.907
11/12/2014  10:57:00        9.290       16.201       34.635       46.038       54.879       51.941     2119.519     3011.744     2697.832        0.469        0.391       18.676       25.491        1.863      336.715        8.203      860.867
11/12/2014  10:58:00       32.830      -26.747       43.325       57.075       64.859       46.727     3257.602     4206.739     2183.428        0.666        0.482       42.346       44.081        1.084      336.893        8.501      860.846
11/12/2014  10:59:00       30.661      -92.584       19.772       55.249       61.017       39.957     3052.461     3723.119     1596.553        0.914        0.419       97.529       34.191        0.123      336.489        7.824      860.810
11/12/2014  11:00:00       53.227      -11.291       39.618       36.281       88.768       35.332     1316.321     7879.842     1248.325        0.749        0.522       54.412       24.258        0.199      336.817        8.372      860.799
11/12/2014  11:01:00       18.321       12.790       16.864       19.676       33.058       23.352      387.157     1092.851      545.339        0.140        0.101       22.344        6.072        0.074      337.158        8.944      860.790
11/12/2014  11:02:00       58.282        0.528       38.083       33.208       65.677       36.639     1102.763     4313.495     1342.413        0.580        0.338       58.285       37.165        0.407      336.621        8.046      860.772
11/12/2014  11:03:00       74.157       41.348       48.994      102.401       52.953       53.657    10485.916     2804.003     2879.076        1.289        0.808       84.905       60.805        0.513      336.864        8.451      860.755
11/12/2014  11:04:00      146.894       99.381       18.753       83.632       62.599       58.089     6994.352     3918.653     3374.341        2.304        0.714      177.354       27.938        0.025      336.486        7.818      860.745
11/12/2014  11:05:00      155.532      104.223       19.347       78.422       54.026       42.666     6149.980     2918.845     1820.362        2.316        0.544      187.224       23.610        0.016      336.224        7.380      860.728
11/12/2014  11:06:00      110.204      123.836       77.759      101.720       63.694       70.081    10346.945     4056.964     4911.290        2.642        0.966      165.771       63.687        0.148      336.757        8.271      860.707
11/12/2014  11:07:00      124.524       84.802       38.915       73.467       55.588       51.463     5397.395     3089.982     2648.413        1.767        0.557      150.657       38.776        0.066      336.668        8.123      860.710
11/12/2014  11:08:00       44.755       68.272       89.499       66.483       69.125       51.100     4419.932     4778.291     2611.171        1.324        0.590       81.633       51.486        0.398      336.853        8.434      860.688
11/12/2014  11:09:00       52.248       64.922       64.675       50.844       51.420       36.817     2585.128     2644.000     1355.526        0.885        0.329       83.335       30.902        0.138      336.848        8.426      860.689
11/12/2014  11:10:00       72.820      101.957       43.067       87.275       55.128       67.211     7616.930     3039.138     4517.362        1.636        0.759      125.292       58.511        0.218      336.498        7.839      860.692
11/12/2014  11:11:00       47.497      108.149        3.555       56.026       56.859       40.556     3138.880     3232.986     1644.822        1.099        0.401      118.119       33.203        0.079      336.359        7.606      860.689
11/12/2014  11:12:00       15.700      107.087       -7.397       47.816       84.621       35.936     2286.408     7160.692     1291.399        1.125        0.537      108.231       38.313        0.125      336.458        7.773      860.680
11/12/2014  11:13:00       64.535       72.793       77.848       71.560       51.825       51.476     5120.836     2685.875     2649.760        1.299        0.523       97.281       47.613        0.240      336.924        8.554      860.660
11/12/2014  11:14:00       81.684       88.622       18.082       59.126       40.736       50.598     3495.911     1659.400     2560.186        1.128        0.386      120.525       35.751        0.088      336.323        7.549      860.642
11/12/2014  11:15:00       28.206       17.863       25.672       40.334       31.521       24.468     1626.807      993.592      598.707        0.250        0.161       33.387       22.638        0.460      336.997        8.674      860.620
11/12/2014  11:16:00       -6.969       65.733       13.214       27.465       56.243       35.383      754.324     3163.298     1251.923        0.486        0.258       66.101       28.225        0.182      336.745        8.254      860.594
11/12/2014  11:17:00       45.426       67.416       33.480       40.987       50.714       43.413     1679.897     2571.954     1884.679        0.693        0.307       81.292       30.629        0.142      336.626        8.054      860.571
11/12/2014  11:18:00      132.724       73.432       13.189       71.465       47.798       40.000     5107.220     2284.679     1599.974        1.609        0.450      151.684       24.293        0.026      336.621        8.045      860.554
11/12/2014  11:19:00       66.928       70.569       22.175       72.885       72.569       46.112     5312.177     5266.306     2126.279        1.133        0.635       97.259       37.998        0.153      337.146        8.922      860.535
11/12/2014  11:20:00       47.617       64.657       42.804       57.251       57.370       54.990     3277.623     3291.317     3023.857        0.893        0.480       80.298       36.349        0.205      337.406        9.359      860.512
11/12/2014  11:21:00       91.391       53.350       12.118       50.339       53.418       40.180     2534.000     2853.432     1614.460        0.917        0.350      105.823       11.703        0.012      336.926        8.555      860.512
11/12/2014  11:22:00       52.402       56.899       12.369       61.186       40.228       39.203     3743.718     1618.332     1536.851        0.652        0.345       77.353       29.850        0.149      336.852        8.430      860.500
11/12/2014  11:23:00      119.442       94.442       43.799       67.839       50.917       46.296     4602.186     2592.579     2143.331        1.722        0.467      152.269       35.069        0.053      337.065        8.787      860.476
11/12/2014  11:24:00      116.442       74.374       10.449       70.348       43.407       42.375     4948.895     1884.150     1795.632        1.391        0.431      138.168       14.703        0.011      336.632        8.062      860.471
11/12/2014  11:25:00       49.723       53.505       27.447       48.475       44.752       40.842     2349.868     2002.733     1668.072        0.605        0.301       73.043       23.789        0.106      336.946        8.588      860.425
11/12/2014  11:26:00      218.197      155.725       21.103       80.078       65.879       52.763     6412.470     4340.106     2783.895        4.292        0.677      268.067       17.425        0.004      336.570        7.957      860.386
11/12/2014  11:27:00      128.612       75.271       62.789       89.157       75.011       51.988     7948.947     5626.618     2702.716        2.121        0.814      149.020       46.822        0.099      337.029        8.726      860.352
11/12/2014  11:28:00       59.080       67.013       70.287       53.641       62.879       37.779     2877.377     3953.787     1427.286        1.059        0.413       89.338       35.096        0.154      337.239        9.078      860.335
11/12/2014  11:29:00       83.140       99.937      113.630       90.557       84.963       58.974     8200.507     7218.637     3477.990        2.435        0.945      129.999       58.856        0.205      337.093        8.833      860.305
11/12/2014  11:30:00       75.305       69.225       73.986       80.606       62.844       34.621     6497.265     3949.410     1198.637        1.379        0.582      102.289       26.089        0.065      336.844        8.418      860.299
11/12/2014  11:31:00       38.345       14.614       35.829       36.493       30.683       29.741     1331.708      941.417      884.551        0.306        0.158       41.036       25.646        0.391      336.767        8.289      860.270
11/12/2014  11:32:00       -2.662       -3.498       16.361       17.621       26.423       12.795      310.515      698.192      163.719        0.073        0.059        4.396        9.686        4.855      337.102        8.850      860.235
11/12/2014  11:33:00      -21.022      -39.810        3.159       22.875       30.733       22.207      523.265      944.488      493.133        0.200        0.098       45.019        9.877        0.048      336.720        8.210      860.222
11/12/2014  11:34:00       36.081      -18.758       23.446       39.742       22.963       20.583     1579.443      527.282      423.670        0.237        0.127       40.666       15.108        0.138      337.048        8.758      860.212
11/12/2014  11:35:00       22.236       46.791       15.897       40.789       41.712       36.137     1663.721     1739.893     1305.912        0.382        0.235       51.806       28.167        0.296      337.030        8.729      860.198
11/12/2014  11:36:00      -11.277       31.196      -17.904       27.445       39.774       14.059      753.255     1581.944      197.651        0.198        0.127       33.172        4.776        0.021      336.465        7.786      860.201
11/12/2014  11:37:00      -45.467       -2.477      -17.980       25.966       25.233       18.004      674.217      636.687      324.157        0.202        0.082       45.534        4.087        0.008      336.637        8.073      860.179
11/12/2014  11:38:00      -34.602        4.890       12.124       40.889       15.658       16.616     1671.934      245.183      276.078        0.178        0.110       34.945       16.597        0.226      336.714        8.200      860.168
11/12/2014  11:39:00       22.634       56.518       73.412       38.650       52.234       50.430     1493.827     2728.419     2543.154        0.793        0.338       60.881       43.282        0.505      336.998        8.675      860.174
11/12/2014  11:40:00      101.594       85.112       62.091       48.642       48.689       34.814     2366.068     2370.644     1211.992        1.368        0.297      132.534       29.739        0.050      336.803        8.350      860.162
11/12/2014  11:41:00       42.248       47.172       48.678       62.352       49.958       38.974     3887.799     2495.765     1518.967        0.714        0.395       63.325       29.438        0.216      337.225        9.056      860.158
11/12/2014  11:42:00       50.024       49.181       41.638       43.473       35.982       39.115     1889.901     1294.704     1529.993        0.568        0.236       70.152       26.405        0.142      337.394        9.338      860.157
11/12/2014  11:43:00       44.339       39.726        0.173       45.731       26.540       24.558     2091.306      704.366      603.099        0.347        0.170       59.532       16.981        0.081      337.417        9.376      860.137
11/12/2014  11:44:00       12.391       28.461       47.273       39.288       68.105       40.679     1543.585     4638.317     1654.758        0.552        0.392       31.041       43.333        1.949      337.541        9.584      860.125
11/12/2014  11:45:00      108.635       39.202       -0.540      101.134       78.582       47.568    10228.087     6175.081     2262.741        1.600        0.933      115.492       28.285        0.060      336.964        8.617      860.106
11/12/2014  11:46:00      152.441       82.357       23.970       68.856       48.391       47.372     4741.160     2341.684     2244.106        1.996        0.466      173.265       34.646        0.040      337.094        8.834      860.102
11/12/2014  11:47:00       25.458       24.431       27.683       44.704       49.172       35.678     1998.448     2417.929     1272.900        0.385        0.284       35.285       19.983        0.321      337.336        9.241      860.092
11/12/2014  11:48:00       46.407     -115.437       -9.482       62.212       67.131       57.580     3870.368     4506.506     3315.441        1.363        0.585      124.416       48.090        0.149      337.116        8.873      860.076
11/12/2014  11:49:00       54.053     -100.878      -29.672       68.480       41.864       32.015     4689.453     1752.597     1024.966        1.072        0.373      114.447       27.579        0.058      337.023        8.717      860.070
11/12/2014  11:50:00        4.596      -49.843       -7.562       50.578       33.816       29.077     2558.180     1143.519      845.476        0.355        0.227       50.055       20.809        0.173      337.175        8.972      860.050
11/12/2014  11:51:00     -114.735      -47.953       -8.222       36.449       35.753       24.806     1328.558     1278.283      615.357        0.938        0.161      124.353       18.031        0.021      336.825        8.388      860.032
11/12/2014  11:52:00      -76.401      -12.432        1.010       28.353       26.023       18.660      803.917      677.200      348.193        0.391        0.091       77.406        8.138        0.011      336.764        8.284      860.019
11/12/2014  11:53:00      -42.580       10.642        0.388       18.225       15.811       21.889      332.167      250.000      479.114        0.149        0.053       43.889       13.416        0.093      336.904        8.518      860.000
11/12/2014  11:54:00       52.313       57.489       42.137       69.481       46.458       35.016     4827.670     2158.311     1226.155        0.801        0.411       77.728       18.359        0.056      337.273        9.136      859.992
11/12/2014  11:55:00       89.158       62.681       21.355       50.796       38.771       42.906     2580.214     1503.206     1840.899        0.913        0.296      108.986       29.544        0.073      337.201        9.015      859.984
11/12/2014  11:56:00       82.280       90.446       94.230       79.883       75.695       52.634     6381.348     5729.768     2770.289        1.935        0.744      122.272       50.882        0.173      337.153        8.934      859.981
11/12/2014  11:57:00       87.015      109.816       83.015       78.296       53.219       53.082     6130.282     2832.311     2817.746        1.915        0.589      140.112       48.968        0.122      337.232        9.067      859.983
11/12/2014  11:58:00      115.904       65.543       10.624       64.880       55.039       35.583     4209.353     3029.245     1266.176        1.317        0.425      133.153       26.470        0.040      337.008        8.691      860.011
11/12/2014  11:59:00       19.541       22.571        9.094       21.198       34.360       21.111      449.344     1180.618      445.682        0.152        0.104       29.855       15.041        0.254      337.137        8.907      860.031
11/12/2014  12:00:00       43.864       -5.708       17.555       44.114       30.195       29.966     1946.072      911.744      897.953        0.301        0.188       44.233       25.708        0.338      337.419        9.381      860.024
11/12/2014  12:01:00       62.855       51.463       31.238       73.250       49.580       64.248     5365.629     2458.222     4127.837        0.976        0.598       81.236       55.051        0.459      337.239        9.078      860.006
11/12/2014  12:02:00       38.635       62.182       32.078       49.904       27.320       30.825     2490.433      746.400      950.152        0.529        0.209       73.206        6.964        0.009      337.315        9.205      859.991
11/12/2014  12:03:00       -3.799       -9.728       11.278       23.374       25.325       20.228      546.333      641.347      409.190        0.092        0.080       10.444       14.462        1.918      337.627        9.729      859.973
11/12/2014  12:04:00        9.513       43.518       11.485       26.453       34.320       27.654      699.779     1177.861      764.729        0.238        0.132       44.545       24.688        0.307      337.359        9.281      859.951
11/12/2014  12:05:00        1.216       27.458       -7.813       12.311       22.805       10.632      151.558      520.080      113.029        0.080        0.039       27.485        3.573        0.017      337.178        8.977      859.937
11/12/2014  12:06:00      -36.998      -20.437       -0.293       26.525       19.442       14.935      703.590      377.974      223.067        0.155        0.065       42.268        7.723        0.033      337.220        9.047      859.921
11/12/2014  12:07:00       87.827     -141.342      -14.035       63.965       63.230       27.676     4091.489     3998.028      765.944        1.837        0.443      166.406       25.385        0.023      337.236        9.074      859.909
11/12/2014  12:08:00       72.937       -8.852       46.614       79.469      124.604       65.167     6315.348    15526.138     4246.691        1.682        1.304       73.472       88.142        1.439      337.420        9.382      859.885
11/12/2014  12:09:00       53.877        6.007       47.982       59.687       50.337       40.625     3562.558     2533.801     1650.396        0.649        0.387       54.211       40.190        0.550      337.487        9.495      859.871
11/12/2014  12:10:00       53.512       -8.253       39.838       57.560       53.436       45.409     3313.119     2855.411     2061.995        0.637        0.412       54.145       40.128        0.549      337.322        9.218      859.855
11/12/2014  12:11:00       26.370       22.802       58.097       48.296       49.259       29.357     2332.472     2426.466      861.821        0.510        0.281       34.861       30.701        0.776      337.478        9.479      859.844
11/12/2014  12:12:00       10.786      -10.314       24.497       22.459       56.019       29.771      504.393     3138.122      886.287        0.267        0.226       14.924       38.372        6.611      337.786        9.995      859.829
11/12/2014  12:13:00       31.604       -3.050       25.099       36.117       50.419       26.941     1304.457     2542.109      725.791        0.310        0.229       31.751       34.190        1.160      337.384        9.321      859.816
11/12/2014  12:14:00        3.945      -38.509        3.326       51.087       53.894       33.921     2609.877     2904.518     1150.616        0.409        0.333       38.710       31.221        0.650      337.533        9.571      859.807
11/12/2014  12:15:00        6.204      -16.268       27.728       28.634       46.701       39.159      819.908     2180.969     1533.464        0.280        0.227       17.411       28.592        2.697      337.764        9.960      859.794
11/12/2014  12:16:00        1.644       17.037       47.871       25.099       31.262       24.273      629.981      977.332      589.168        0.239        0.110       17.116       25.063        2.144      337.646        9.760      859.788
11/12/2014  12:17:00       13.994       47.746       70.854       59.836       51.163       43.830     3580.348     2617.664     1921.105        0.781        0.406       49.754       35.920        0.521      337.593        9.672      859.781
11/12/2014  12:18:00      102.741       77.374       79.769       68.151       64.140       66.219     4644.583     4114.002     4385.002        1.802        0.657      128.617       50.640        0.155      337.239        9.077      859.769
11/12/2014  12:19:00       37.512       26.690       42.353       51.693       50.154       26.304     2672.209     2515.454      691.889        0.490        0.294       46.038       23.429        0.259      337.529        9.565      859.752
11/12/2014  12:20:00        8.266        5.553       38.510       57.134       47.819       38.094     3264.247     2286.635     1451.190        0.429        0.350        9.958       32.689       10.776      337.845       10.093      859.732
11/12/2014  12:21:00       34.762        6.924       47.894       71.407       58.805       42.225     5098.990     3457.975     1782.993        0.694        0.517       35.444       39.703        1.255      337.955       10.279      859.723
11/12/2014  12:22:00       66.175      -79.409       31.735       66.122       88.912       50.601     4372.112     7905.359     2560.486        1.326        0.742      103.368       57.895        0.314      337.754        9.941      859.726
11/12/2014  12:23:00       24.831       45.589       51.337       40.904       70.879       62.543     1673.163     5023.815     3911.598        0.797        0.530       51.913       52.490        1.022      337.882       10.155      859.747
11/12/2014  12:24:00      139.136       82.590       69.331      106.780       77.381       60.430    11401.942     5987.770     3651.737        2.601        1.052      161.803       51.190        0.100      337.364        9.286      859.756
11/12/2014  12:25:00       70.269       86.970       75.307       81.624       51.063       54.136     6662.415     2607.414     2930.706        1.518        0.610      111.810       51.686        0.214      337.277        9.142      859.788
11/12/2014  12:26:00       18.103       63.144       47.067       27.239       33.264       36.553      741.986     1106.525     1336.104        0.486        0.159       65.688       17.114        0.068      337.457        9.444      859.799
11/12/2014  12:27:00       15.423       -4.179       22.504       44.246       39.110       29.120     1957.742     1529.583      847.986        0.255        0.217       15.979       13.562        0.720      337.555        9.608      859.792
11/12/2014  12:28:00       78.634       61.942       45.566       34.711       46.316       41.526     1204.840     2145.216     1724.432        0.858        0.254      100.100       19.330        0.037      337.260        9.114      859.773
11/12/2014  12:29:00       40.708       55.384       25.062       46.761       33.999       35.961     2186.604     1155.908     1293.198        0.499        0.232       68.736       31.051        0.204      337.464        9.456      859.759
11/12/2014  12:30:00       50.374       24.910        8.830       33.661       26.975       24.312     1133.055      727.651      591.070        0.284        0.123       56.197       11.667        0.043      337.422        9.385      859.743
11/12/2014  12:31:00       61.723        0.940        8.791       52.359       76.835       40.485     2741.515     5903.592     1639.064        0.708        0.514       61.730       31.440        0.259      337.589        9.666      859.752
11/12/2014  12:32:00       53.919      -47.922       19.310       60.874       84.923       61.136     3705.676     7211.924     3737.645        1.011        0.733       72.137       67.028        0.863      337.617        9.712      859.733
11/12/2014  12:33:00       44.177      -78.418       25.509       50.858       56.415       40.985     2586.490     3182.637     1679.742        0.810        0.372       90.005       38.292        0.181      337.404        9.355      859.716
11/12/2014  12:34:00      -24.293      -56.782      -14.892       32.453       21.256       16.091     1053.220      451.816      258.924        0.290        0.088       61.761        6.897        0.012      336.949        8.594      859.699
11/12/2014  12:35:00      -28.924      -42.789        0.802       30.538       24.649       28.050      932.592      607.576      786.812        0.250        0.116       51.648       11.325        0.048      337.347        9.259      859.670
11/12/2014  12:36:00       36.397       13.462        9.114       45.325       32.708       25.067     2054.326     1069.842      628.362        0.267        0.188       38.807       12.659        0.106      337.645        9.759      859.657
11/12/2014  12:37:00       22.334       30.947       36.113       48.337       51.843       33.744     2336.418     2687.737     1138.684        0.446        0.308       38.164       19.077        0.250      337.725        9.893      859.659
11/12/2014  12:38:00       -6.677      101.069       -5.257       23.193       33.714       24.341      537.921     1136.624      592.503        0.628        0.113      101.289       10.239        0.010      337.386        9.325      859.673
11/12/2014  12:39:00       55.670       59.981       24.723       35.784       29.995       28.912     1280.473      899.689      835.896        0.516        0.151       81.835       22.865        0.078      337.395        9.340      859.686
11/12/2014  12:40:00       57.284      117.934        4.157       55.309       70.998       46.269     3059.118     5040.696     2140.862        1.372        0.512      131.110       44.924        0.117      337.303        9.185      859.707
11/12/2014  12:41:00       41.917       70.547        2.937       47.397       48.023       41.798     2246.429     2306.252     1747.061        0.652        0.315       82.061       27.206        0.110      337.346        9.258      859.705
11/12/2014  12:42:00       36.330       59.620       -8.528       26.077       33.984       17.015      680.035     1154.895      289.499        0.354        0.106       69.817       14.688        0.044      337.220        9.046      859.694
11/12/2014  12:43:00       37.787       38.025       23.316       28.551       20.345       26.789      815.176      413.916      717.672        0.268        0.097       53.607       13.778        0.066      337.414        9.372      859.678
11/12/2014  12:44:00      136.592       85.066       35.743       64.223       47.463       51.039     4124.641     2252.705     2604.986        1.807        0.449      160.915       28.663        0.032      337.249        9.093      859.659
11/12/2014  12:45:00      115.923       58.843       37.918       81.612       49.243       53.872     6660.517     2424.900     2902.162        1.516        0.599      130.003       46.472        0.128      337.511        9.533      859.625
11/12/2014  12:46:00       86.060       63.285       28.971       68.845       51.583       47.263     4739.657     2660.755     2233.784        1.094        0.482      106.824       27.468        0.066      337.573        9.638      859.618
11/12/2014  12:47:00       24.819     -130.129       -4.290       70.693       79.076       31.960     4997.554     6252.986     1021.419        1.492        0.614      132.475       34.145        0.066      337.797       10.013      859.640
11/12/2014  12:48:00       78.702     -135.879       -7.726       60.831       70.417       40.941     3700.451     4958.603     1676.141        1.752        0.517      157.026       45.852        0.085      337.550        9.598      859.665
11/12/2014  12:49:00        7.060       36.553       49.031       41.850       47.288       42.394     1751.394     2236.200     1797.239        0.479        0.289       37.229       41.657        1.252      337.662        9.787      859.691
11/12/2014  12:50:00       -6.223      -38.741       18.308       18.630       50.846       33.032      347.082     2585.303     1091.090        0.295        0.201       39.238       25.761        0.431      337.740        9.918      859.705
11/12/2014  12:51:00       21.480      -39.791        8.023       30.028       41.415       28.363      901.679     1715.232      804.463        0.276        0.171       45.219       25.317        0.313      337.884       10.159      859.714
11/12/2014  12:52:00       35.290      -20.280       39.101       38.958       67.482       35.619     1517.709     4553.769     1268.722        0.526        0.367       40.702       33.092        0.661      337.735        9.909      859.722
11/12/2014  12:53:00       27.167      -31.326       30.723       56.924       60.828       42.347     3240.290     3700.059     1793.280        0.570        0.437       41.466       42.676        1.059      337.905       10.194      859.719
11/12/2014  12:54:00       91.240       13.557       50.306       63.518       92.267       56.088     4034.534     8513.250     3145.906        1.336        0.785       92.242       66.145        0.514      337.634        9.739      859.708
11/12/2014  12:55:00      148.574     -183.087      -31.021       41.758       48.537       27.468     1743.751     2355.821      754.497        3.070        0.243      235.786       22.133        0.009      337.357        9.273      859.689
11/12/2014  12:56:00       97.904     -144.672      -30.070       42.452       46.708       27.580     1802.163     2181.619      760.656        1.808        0.237      174.686       22.629        0.017      337.476        9.475      859.685
11/12/2014  12:57:00       41.330      -66.707       -0.198       33.241       32.941       30.056     1104.962     1085.109      903.383        0.463        0.155       78.473       25.757        0.108      337.540        9.582      859.683
11/12/2014  12:58:00       17.122      -39.650       -2.833       35.492       44.825       32.066     1259.682     2009.239     1028.223        0.308        0.215       43.189       27.084        0.393      337.742        9.922      859.665
11/12/2014  12:59:00      -27.161      -15.640        3.758       35.043       23.735       21.679     1228.044      563.355      469.988        0.163        0.113       31.342       19.983        0.406      337.849       10.101      859.661
11/12/2014  13:00:00       -4.992       -3.090       14.153       22.478       21.213       16.124      505.280      449.997      259.987        0.072        0.061        5.871       14.609        6.192      337.796       10.014      859.660
11/12/2014  13:01:00       -1.958       12.998       14.192       12.251       19.313       10.952      150.082      373.008      119.939        0.051        0.032       13.145        7.844        0.356      337.985       10.328      859.661
11/12/2014  13:02:00       21.027       24.924       45.420       25.210       21.576       13.042      635.533      465.534      170.091        0.220        0.064       32.609        8.639        0.070      337.876       10.148      859.658
11/12/2014  13:03:00       56.568       39.270       31.777       35.791       22.631       33.520     1280.966      512.182     1123.599        0.433        0.146       68.863       28.322        0.169      337.707        9.863      859.642
11/12/2014  13:04:00       37.618      -52.259       17.491       39.046       44.513       33.350     1524.610     1981.374     1112.199        0.453        0.231       64.390       22.012        0.117      337.935       10.246      859.626
11/12/2014  13:05:00       63.567       61.183       52.353       54.446       45.838       32.944     2964.336     2101.132     1085.320        0.834        0.308       88.228       10.935        0.015      337.861       10.120      859.617
11/12/2014  13:06:00       37.112       82.489       86.828       57.009       43.518       41.196     3250.067     1893.792     1697.077        1.128        0.342       90.452       34.775        0.148      337.930       10.237      859.613
11/12/2014  13:07:00      119.433       92.259      114.230       86.050      106.284       70.568     7404.561    11296.314     4979.814        2.975        1.184      150.917       81.667        0.293      337.565        9.621      859.608
11/12/2014  13:08:00       83.847      142.634      139.421       90.936       84.594       59.734     8269.398     7156.214     3568.177        3.290        0.950      165.453       60.484        0.134      337.491        9.498      859.593
11/12/2014  13:09:00       18.124      114.031      129.934       61.464       70.478       52.350     3777.835     4967.174     2740.495        2.085        0.574      115.462       52.208        0.204      337.581        9.650      859.593
11/12/2014  13:10:00       51.832      -38.741       27.103       57.686       72.362       47.024     3327.725     5236.188     2211.292        0.785        0.539       64.710       33.943        0.275      337.735        9.909      859.588
11/12/2014  13:11:00       42.469       41.281       74.211       51.134       73.841       35.190     2614.719     5452.502     1238.338        0.916        0.465       59.226       35.451        0.358      337.800       10.019      859.580
11/12/2014  13:12:00       16.016      -56.178       14.769       29.631       42.274       30.002      878.011     1787.116      900.133        0.360        0.178       58.416       28.301        0.235      337.452        9.436      859.574
11/12/2014  13:13:00        5.283      -50.165      -13.389       19.213       23.479       17.706      369.138      551.246      313.505        0.198        0.062       50.442        8.988        0.032      337.528        9.565      859.553
11/12/2014  13:14:00       10.869      -34.000        4.814       20.243       18.860       17.672      409.796      355.712      312.307        0.119        0.054       35.695        9.801        0.075      337.735        9.909      859.528
11/12/2014  13:15:00       18.958       11.974        9.305       36.136       21.388       14.474     1305.812      457.426      209.487        0.128        0.099       22.423       12.324        0.302      337.796       10.012      859.506
11/12/2014  13:16:00       64.446       55.250        2.403       34.289       35.072       24.594     1175.741     1230.073      604.878        0.511        0.151       84.888        9.312        0.012      337.611        9.702      859.487
11/12/2014  13:17:00       10.966       29.453        1.078       32.431       25.080       20.386     1051.753      629.008      415.607        0.154        0.105       31.428       17.390        0.306      337.617        9.712      859.473
11/12/2014  13:18:00       13.685       37.804       17.444       59.916       26.370       22.864     3589.950      695.368      522.753        0.336        0.240       40.205       18.569        0.213      337.881       10.155      859.459
11/12/2014  13:19:00      101.211      102.946       13.688       74.381       68.596       50.458     5532.597     4705.351     2545.982        1.690        0.639      144.366       34.918        0.059      337.557        9.610      859.450
11/12/2014  13:20:00      126.853       99.823       31.534       52.000       32.244       36.296     2703.982     1039.658     1317.428        1.605        0.253      161.419       24.256        0.023      337.519        9.548      859.441
11/12/2014  13:21:00       77.360       39.562       20.781       55.857       30.108       26.863     3120.007      906.467      721.625        0.636        0.237       86.889       14.347        0.027      337.660        9.784      859.437
11/12/2014  13:22:00       87.621        8.793       48.817       81.599       78.710       47.206     6658.474     6195.268     2228.425        1.261        0.754       88.061       51.235        0.338      337.880       10.152      859.427
11/12/2014  13:23:00       93.156      -73.204       23.198       66.944       90.140       54.773     4481.500     8125.297     3000.105        1.509        0.780      118.478       60.758        0.263      337.872       10.139      859.389
11/12/2014  13:24:00      127.099     -179.352      -31.634       50.789       77.514       37.119     2579.567     6008.383     1377.853        2.964        0.498      219.822       26.381        0.014      337.700        9.846      859.386
11/12/2014  13:25:00       58.209     -123.261      -15.058       55.121       81.357       47.002     3038.317     6618.920     2209.209        1.533        0.593      136.314       49.966        0.134      337.678        9.813      859.390
11/12/2014  13:26:00       26.408      -39.245       12.470       37.307       61.563       38.048     1391.806     3789.976     1447.680        0.451        0.331       47.303       40.490        0.733      337.948       10.267      859.390
11/12/2014  13:27:00      -21.381        1.648        3.366       30.548       23.083       22.763      933.159      532.802      518.136        0.123        0.099       21.445       17.016        0.630      338.107       10.533      859.387
11/12/2014  13:28:00      -41.176        9.564      -14.452       32.266       33.637       22.285     1041.099     1131.456      496.602        0.233        0.133       42.272       18.380        0.189      337.986       10.331      859.387
11/12/2014  13:29:00      -25.387       -9.492       -1.209       32.076       36.893       23.555     1028.848     1361.087      554.839        0.184        0.147       27.103       24.192        0.797      338.217       10.720      859.387
11/12/2014  13:30:00       31.310      -87.869       -1.184       61.003       67.127       45.752     3721.353     4506.099     2093.200        0.951        0.516       93.281       30.137        0.104      338.029       10.403      859.401
11/12/2014  13:31:00       35.764      -25.012       46.526       54.403       84.000       47.435     2959.686     7056.032     2250.075        0.817        0.613       43.643       56.526        1.678      337.980       10.322      859.425
11/12/2014  13:32:00       44.698      -74.794       17.380       42.030       77.779       38.469     1766.561     6049.589     1479.841        0.859        0.465       87.132       48.590        0.311      337.943       10.258      859.412
11/12/2014  13:33:00       21.411      -91.675        8.521       37.651       62.848       38.032     1417.619     3949.848     1446.471        0.787        0.341       94.142       25.633        0.074      338.109       10.537      859.384
11/12/2014  13:34:00       37.994      -52.855       49.203       49.800       82.562       44.207     2480.078     6816.523     1954.276        0.895        0.563       65.093       37.133        0.325      338.086       10.498      859.357
11/12/2014  13:35:00       83.736       51.503       33.169       66.036       55.928       58.054     4360.814     3127.924     3370.295        1.081        0.543       98.307       44.432        0.204      337.921       10.222      859.350
11/12/2014  13:36:00       63.280      128.814      137.502       79.710       83.061       63.824     6353.641     6899.051     4073.461        2.841        0.866      143.518       64.455        0.202      337.792       10.003      859.331
11/12/2014  13:37:00      131.926      117.329       95.890       90.713       62.660       67.640     8228.855     3926.298     4575.212        2.854        0.837      176.551       63.766        0.130      337.654        9.771      859.348
11/12/2014  13:38:00       58.824       28.272       17.264       57.056       41.369       25.060     3255.441     1711.364      627.992        0.508        0.280       65.265       16.813        0.066      337.755        9.945      859.367
11/12/2014  13:39:00       26.095        7.222       17.714       29.044       34.917       25.395      843.562     1219.166      644.881        0.188        0.135       27.076       14.555        0.289      338.076       10.483      859.357
11/12/2014  13:40:00       37.380       46.068       60.269       38.393       53.076       35.008     1474.018     2817.107     1225.525        0.633        0.276       59.326       36.992        0.389      338.162       10.625      859.334
11/12/2014  13:41:00       54.432       64.271       56.350       55.974       37.012       32.957     3133.090     1369.859     1086.169        0.793        0.279       84.223       22.589        0.072      338.010       10.371      859.314
11/12/2014  13:42:00       94.511     -117.006      -16.445       53.866       81.258       35.006     2901.534     6602.872     1225.406        1.681        0.536      150.408       47.256        0.099      337.815       10.043      859.297
11/12/2014  13:43:00       82.819      -56.247       32.342       76.009       83.086       64.752     5777.293     6903.233     4192.858        1.397        0.844      100.114       59.873        0.358      338.057       10.448      859.273
11/12/2014  13:44:00       42.898       47.456       88.374       67.263       65.230       52.722     4524.279     4254.948     2779.584        1.173        0.578       63.971       35.489        0.308      338.096       10.514      859.258
11/12/2014  13:45:00       38.975      -25.761       27.751       90.638       82.249       60.026     8215.205     6764.864     3603.063        1.076        0.929       46.719       58.035        1.543      338.130       10.573      859.259
11/12/2014  13:46:00       72.963     -126.872        4.615       74.729       69.847       47.144     5584.482     4878.563     2222.602        1.706        0.634      146.356       54.149        0.137      337.920       10.218      859.260
11/12/2014  13:47:00       23.672      -34.929       17.678       42.074       42.886       33.792     1770.216     1839.171     1141.909        0.342        0.238       42.195       34.805        0.680      338.122       10.558      859.243
11/12/2014  13:48:00       84.440       42.793       26.396       71.845       61.953       37.929     5161.683     3838.200     1438.620        1.005        0.522       94.665       32.734        0.120      337.946       10.264      859.231
11/12/2014  13:49:00       72.827       65.957       36.969       44.776       38.413       32.535     2004.934     1475.586     1058.551        0.778        0.227       98.255       21.900        0.050      338.027       10.400      859.214
11/12/2014  13:50:00      127.325       98.799       24.308       54.194       43.334       39.978     2936.953     1877.825     1598.252        1.649        0.321      161.161       23.041        0.020      337.782        9.988      859.192
11/12/2014  13:51:00       35.506       47.290        2.310       61.101       52.755       18.766     3733.353     2783.137      352.180        0.518        0.343       59.136       29.171        0.243      337.750        9.936      859.168
11/12/2014  13:52:00       27.927       74.942        6.413       31.355       42.931       30.248      983.156     1843.093      914.926        0.509        0.187       79.976       28.764        0.129      338.002       10.358      859.159
11/12/2014  13:53:00       58.898       60.155        2.008       37.886       27.461       22.255     1435.341      754.123      495.303        0.489        0.134       84.188       16.955        0.041      337.972       10.308      859.160
11/12/2014  13:54:00       68.950       52.017        8.384       55.901       56.553       34.872     3124.954     3198.222     1216.028        0.753        0.377       86.371       39.151        0.205      338.137       10.585      859.174
11/12/2014  13:55:00      183.287      117.478       56.646       96.110       64.994       59.146     9237.206     4224.163     3498.201        3.378        0.848      217.705       54.501        0.063      338.139       10.584      859.187
11/12/2014  13:56:00      139.031       74.273       51.665       76.305       51.894       52.182     5822.476     2693.033     2722.997        1.937        0.562      157.627       33.406        0.045      337.975       10.310      859.207
11/12/2014  13:57:00       50.570       78.905       77.971       55.563       61.889       46.710     3087.252     3830.191     2181.813        1.198        0.455       93.719       45.510        0.236      337.943       10.258      859.197
11/12/2014  13:58:00       95.193       64.885        7.435       45.073       35.287       34.862     2031.609     1245.180     1215.379        0.891        0.225      115.203        9.915        0.007      338.010       10.372      859.197
11/12/2014  13:59:00       38.987      106.905       -3.240       51.878       70.292       43.784     2691.286     4940.956     1917.016        1.125        0.477      113.792       32.135        0.080      337.955       10.278      859.189
11/12/2014  14:00:00       24.798       89.184       14.294       45.166       57.321       37.385     2039.934     3285.703     1397.671        0.775        0.336       92.568       30.988        0.112      338.206       10.700      859.177
11/12/2014  14:01:00      -11.628       47.918       -6.160       14.820       22.872       17.130      219.643      523.136      293.436        0.175        0.052       49.309        7.196        0.021      338.024       10.396      859.172
11/12/2014  14:02:00       60.644       47.131       43.800       54.591       51.259       36.907     2980.129     2627.509     1362.116        0.739        0.348       76.805       13.796        0.032      338.027       10.399      859.172
11/12/2014  14:03:00       23.424       22.420       66.893       43.283       49.182       38.040     1873.378     2418.902     1447.017        0.563        0.287       32.424       29.899        0.850      338.152       10.608      859.161
11/12/2014  14:04:00       33.518       45.759       50.109       54.265       55.154       38.097     2944.740     3042.015     1451.388        0.658        0.372       56.721       32.910        0.337      338.223       10.729      859.159
11/12/2014  14:05:00       60.466       26.745        3.627       72.493       52.933       40.632     5255.207     2801.943     1650.946        0.704        0.485       66.117       40.176        0.369      338.220       10.722      859.159
11/12/2014  14:06:00       71.083       76.113       -4.790       55.682       42.838       33.218     3100.501     1835.104     1103.440        0.845        0.302      104.144       20.146        0.037      337.887       10.166      859.154
11/12/2014  14:07:00       -2.344       13.886       -6.385       15.713       20.729       16.130      246.895      429.676      260.179        0.059        0.047       14.082        5.848        0.172      337.943       10.259      859.155
11/12/2014  14:08:00       88.111       59.632       11.024       48.750       32.723       23.926     2376.576     1070.793      572.461        0.773        0.201      106.393       15.795        0.022      337.905       10.196      859.144
11/12/2014  14:09:00       70.461       73.567       14.704       32.201       31.566       30.538     1036.917      996.406      932.570        0.678        0.148      101.867       17.538        0.030      337.999       10.352      859.131
11/12/2014  14:10:00       29.842       38.346       27.285       49.199       31.269       32.811     2420.523      977.775     1076.570        0.379        0.224       48.590       25.206        0.269      338.429       11.075      859.147
11/12/2014  14:11:00       82.265       85.261        8.923       80.164       70.866       48.655     6426.205     5022.008     2367.315        1.396        0.691      118.478       41.394        0.122      338.296       10.850      859.166
11/12/2014  14:12:00       59.398       90.806        2.904       59.684       52.285       41.983     3562.165     2733.758     1762.609        0.992        0.403      108.508       35.611        0.108      338.089       10.501      859.166
11/12/2014  14:13:00       90.908      130.169      -10.336       79.232       81.368       51.407     6277.766     6620.828     2642.699        2.043        0.777      158.771       48.765        0.094      338.128       10.568      859.168
11/12/2014  14:14:00      123.448      132.275       19.341       68.370       70.056       54.441     4674.443     4907.869     2963.771        2.283        0.627      180.931       34.681        0.037      337.982       10.324      859.176
11/12/2014  14:15:00      173.313      133.660       44.874      133.373       79.676       68.399    17788.295     6348.283     4678.486        3.936        1.441      218.867       32.987        0.023      338.049       10.433      859.153
11/12/2014  14:16:00      213.273      148.368       58.698      119.899       87.065       83.197    14375.684     7580.287     6921.701        4.990        1.444      259.804       76.137        0.086      337.993       10.339      859.142
11/12/2014  14:17:00      213.813      135.714       27.464       97.769       65.824       55.823     9558.756     4332.747     3116.155        4.094        0.850      253.248       29.213        0.013      337.948       10.265      859.136
11/12/2014  14:18:00      155.161      110.403       17.354       71.022       39.600       40.343     5044.174     1568.166     1627.573        2.240        0.412      190.431       26.336        0.019      337.967       10.297      859.135
11/12/2014  14:19:00      131.932      105.139       11.139       53.456       44.063       39.797     2857.546     1941.577     1583.780        1.748        0.319      168.702       18.404        0.012      338.011       10.372      859.124
11/12/2014  14:20:00       63.307      109.948      -19.717       55.120       48.186       34.437     3038.226     2321.899     1185.926        1.151        0.327      126.871       27.272        0.046      337.904       10.192      859.128
11/12/2014  14:21:00       95.863       90.077       12.797       78.269       60.389       45.960     6125.965     3646.842     2112.337        1.467        0.594      131.543       34.501        0.069      338.106       10.531      859.117
11/12/2014  14:22:00       83.644       80.506       16.984       35.249       26.225       27.541     1242.505      687.742      758.516        0.823        0.134      116.093       16.662        0.021      337.870       10.136      859.132
11/12/2014  14:23:00       77.435       68.325       27.230       15.469       26.013       25.707      239.294      676.674      660.871        0.649        0.079      103.269       12.419        0.014      337.916       10.213      859.139
11/12/2014  14:24:00       56.047       49.412        4.139       51.288       24.377       27.479     2630.501      594.234      755.122        0.479        0.199       74.718       24.722        0.109      337.988       10.335      859.154
11/12/2014  14:25:00      182.308      111.122       34.317       39.494       27.799       31.406     1559.748      772.775      986.353        2.504        0.166      213.505       18.316        0.007      338.091       10.504      859.172
11/12/2014  14:26:00       94.811       66.345       19.726       80.036       50.920       41.710     6405.714     2592.805     1739.735        1.226        0.537      115.719       30.349        0.069      338.163       10.628      859.192
11/12/2014  14:27:00       12.872       79.170       -9.129       23.464       31.520       16.775      550.552      993.485      281.402        0.417        0.091       80.210       12.614        0.025      338.058       10.450      859.207
11/12/2014  14:28:00       87.882       62.973       40.656       51.336       28.481       25.099     2635.396      811.161      629.954        0.871        0.204      108.115       17.529        0.026      338.298       10.854      859.211
11/12/2014  14:29:00       60.062       39.040       29.098       58.136       55.482       35.485     3379.780     3078.202     1259.209        0.685        0.386       71.635       28.159        0.155      338.403       11.031      859.219
11/12/2014  14:30:00       46.489      -42.825       22.157       53.569       95.839       58.101     2869.599     9185.098     3375.714        0.996        0.772       63.207       64.593        1.044      338.422       11.062      859.216
11/12/2014  14:31:00      124.238     -151.911      -18.796       42.538       61.209       34.824     1809.507     3746.536     1212.697        2.282        0.338      196.245       26.397        0.018      338.120       10.554      859.216
11/12/2014  14:32:00       53.138      -60.194       16.514       45.769       38.999       21.644     2094.835     1520.940      468.450        0.540        0.204       80.293       16.944        0.045      338.121       10.559      859.227
11/12/2014  14:33:00       40.315       25.160       33.554       35.747       39.887       28.742     1277.849     1590.982      826.098        0.354        0.185       47.522       24.763        0.272      338.197       10.686      859.217
11/12/2014  14:34:00       56.555       61.223       74.914       68.100       52.474       40.623     4637.565     2753.552     1650.256        1.080        0.452       83.347       39.904        0.229      338.241       10.758      859.217
11/12/2014  14:35:00       65.423       64.761       59.976       81.401       66.788       52.896     6626.048     4460.636     2797.940        1.298        0.694       92.055       47.620        0.268      338.348       10.937      859.235
11/12/2014  14:36:00       65.087       62.475       55.342       65.964       55.605       46.130     4351.226     3091.969     2127.958        1.038        0.479       90.219       46.749        0.269      338.305       10.867      859.266
11/12/2014  14:37:00       72.941       45.534       66.377       67.123       54.732       44.499     4505.474     2995.610     1980.142        1.064        0.474       85.987       41.513        0.233      338.126       10.564      859.277
11/12/2014  14:38:00      112.902       94.150       64.161       92.538       43.518       48.001     8563.256     1893.774     2304.063        1.924        0.638      147.007       55.396        0.142      338.283       10.827      859.262
11/12/2014  14:39:00      108.501      105.269       69.208       85.548       71.445       65.310     7318.530     5104.395     4265.379        2.216        0.834      151.176       46.011        0.093      338.324       10.898      859.250
11/12/2014  14:40:00       97.622       61.032       84.583       88.881       77.886       58.150     7899.813     6066.198     3381.404        1.887        0.867      115.131       60.027        0.272      338.138       10.585      859.252
11/12/2014  14:41:00       87.532       74.873       85.708       76.712       67.222       60.219     5884.739     4518.821     3626.361        1.732        0.701      115.186       60.909        0.280      338.070       10.471      859.254
11/12/2014  14:42:00       75.692       55.845       42.085       76.757       52.918       44.921     5891.602     2800.362     2017.879        1.066        0.535       94.064       36.473        0.150      338.148       10.601      859.271
11/12/2014  14:43:00       63.673       63.329       57.927       62.830       41.683       38.566     3947.618     1737.431     1487.355        0.929        0.359       89.804       34.219        0.145      338.114       10.546      859.293
11/12/2014  14:44:00      104.732       62.472       35.773       69.202       61.427       34.393     4788.958     3773.279     1182.898        1.295        0.487      121.949       27.508        0.051      338.100       10.522      859.302
11/12/2014  14:45:00       17.279       15.520       34.810       78.592       58.906       26.276     6176.767     3469.894      690.448        0.604        0.517       23.226       18.629        0.643      338.445       11.102      859.290
11/12/2014  14:46:00       88.971     -106.481       -7.655       65.438       33.335       31.114     4282.187     1111.252      968.104        1.284        0.318      138.759       30.635        0.049      338.152       10.609      859.265
11/12/2014  14:47:00       50.362      -24.776       24.188       41.635       78.998       42.114     1733.460     6240.691     1773.568        0.674        0.487       56.126       46.893        0.698      338.336       10.917      859.233
11/12/2014  14:48:00       74.492       52.384       39.427       73.452       56.859       45.277     5395.269     3232.964     2049.988        1.026        0.534       91.066       38.010        0.174      338.264       10.797      859.222
11/12/2014  14:49:00      160.814       99.063       13.200       71.296       53.582       46.791     5083.107     2871.051     2189.375        2.299        0.507      188.877       36.704        0.038      338.213       10.709      859.217
11/12/2014  14:50:00      115.302       95.152       -3.176       42.830       37.484       35.527     1834.418     1405.080     1262.152        1.343        0.225      149.494       23.802        0.025      338.064       10.461      859.224
11/12/2014  14:51:00      118.224       80.113       14.736       71.953       51.550       40.052     5177.252     2657.396     1604.172        1.502        0.472      142.811       25.380        0.032      338.111       10.540      859.206
11/12/2014  14:52:00       96.153       68.436       29.886       63.175       74.082       39.068     3991.109     5488.168     1526.346        1.291        0.550      118.021       26.039        0.049      338.257       10.786      859.196
11/12/2014  14:53:00       25.596       73.999       96.800       78.250       57.321       50.380     6123.111     3285.655     2538.191        1.372        0.597       78.301       44.281        0.320      338.153       10.610      859.175
11/12/2014  14:54:00       96.165       81.264       20.111       95.379       71.285       54.085     9097.213     5081.618     2925.151        1.668        0.855      125.903       30.764        0.060      338.185       10.663      859.167
11/12/2014  14:55:00      169.780       98.290       52.273       98.892       66.171       56.381     9779.648     4378.578     3178.817        2.927        0.867      196.179       51.845        0.070      338.204       10.694      859.156
11/12/2014  14:56:00       85.615       85.499       82.918       85.319       60.997       57.559     7279.309     3720.652     3313.090        1.791        0.716      120.996       44.336        0.134      338.217       10.717      859.155
11/12/2014  14:57:00       79.710       57.231       23.657       66.551       41.388       37.461     4429.008     1712.936     1403.325        0.887        0.377       98.128       17.014        0.030      338.245       10.764      859.166
11/12/2014  14:58:00      116.824       78.992       26.915       61.016       49.997       41.491     3722.902     2499.726     1721.489        1.428        0.397      141.023       26.118        0.034      338.098       10.518      859.176
11/12/2014  14:59:00      175.214       99.046       36.094       66.006       64.163       43.089     4356.804     4116.946     1856.663        2.607        0.517      201.272       24.938        0.015      338.042       10.422      859.179
11/12/2014  15:00:00       42.958       36.712       14.594       37.702       57.345       39.232     1421.458     3288.406     1539.144        0.483        0.312       56.508        7.051        0.016      338.308       10.873      859.180
11/12/2014  15:01:00       60.673       30.533        3.863       50.555       34.642       20.277     2555.791     1200.080      411.158        0.440        0.208       67.923       17.168        0.064      338.285       10.831      859.164
11/12/2014  15:02:00       27.117       64.368       70.169       63.396       60.300       64.383     4019.085     3636.105     4145.221        1.080        0.590       69.847       47.594        0.464      338.305       10.866      859.131
11/12/2014  15:03:00      144.807      127.788       72.379      117.951       66.381       83.184    13912.486     4406.455     6919.577        3.388        1.262      193.129       78.553        0.165      338.203       10.693      859.110
11/12/2014  15:04:00      194.136      111.954       30.821       75.186       72.013       52.617     5652.941     5185.809     2768.531        3.239        0.680      224.103       37.343        0.028      338.134       10.576      859.110
11/12/2014  15:05:00      164.089       88.751       37.565       80.485       65.064       46.652     6477.772     4233.349     2176.434        2.455        0.644      186.553       37.775        0.041      337.993       10.341      859.116
11/12/2014  15:06:00      161.887      108.471       38.565       40.995       37.241       41.253     1680.565     1386.919     1701.830        2.211        0.238      194.868       20.684        0.011      337.965       10.294      859.129
11/12/2014  15:07:00      123.668       67.018       44.505       49.186       36.901       43.209     2419.311     1361.709     1867.038        1.371        0.282      140.660       15.651        0.012      338.017       10.383      859.137
11/12/2014  15:08:00       95.195       35.606       67.540       92.086       70.202       53.998     8479.892     4928.358     2915.807        1.560        0.816      101.636       50.716        0.249      338.125       10.561      859.130
11/12/2014  15:09:00       68.870       24.282       43.203       70.601       41.290       40.303     4984.514     1704.829     1624.294        0.775        0.416       73.025       43.854        0.361      338.186       10.667      859.139
11/12/2014  15:10:00       47.734       38.000       46.181       55.016       42.944       39.016     3026.773     1844.186     1522.255        0.612        0.320       61.013       37.103        0.370      338.242       10.760      859.131
11/12/2014  15:11:00      281.194      148.970       57.138       83.058       71.122       56.546     6898.618     5058.311     3197.403        5.984        0.758      318.217       31.375        0.010      338.071       10.471      859.139
11/12/2014  15:12:00      231.685      161.323       25.284       84.901       66.806       58.440     7208.108     4463.040     3415.181        4.771        0.754      282.317       31.601        0.013      338.001       10.353      859.132
11/12/2014  15:13:00      108.965       69.491       18.142       71.300       53.897       41.574     5083.663     2904.940     1728.379        1.337        0.486      129.237       37.331        0.083      338.182       10.659      859.126
11/12/2014  15:14:00       87.802       81.852        3.611       62.717       44.483       40.639     3933.441     1978.776     1651.526        1.099        0.378      120.037       25.113        0.044      338.224       10.730      859.124
11/12/2014  15:15:00      119.111       75.985       13.252       63.719       53.351       39.454     4060.142     2846.373     1556.635        1.430        0.423      141.284       27.115        0.037      338.040       10.420      859.120
11/12/2014  15:16:00       60.831       56.541       13.376       58.032       41.239       33.692     3367.712     1700.661     1135.174        0.664        0.310       83.050       25.205        0.092      338.090       10.504      859.130
11/12/2014  15:17:00      124.897       84.172        9.496       62.575       34.538       31.282     3915.642     1192.849      978.570        1.443        0.304      150.613       15.654        0.011      338.015       10.379      859.130
11/12/2014  15:18:00      142.116      117.457       71.524       97.624       80.510       78.726     9530.493     6481.847     6197.729        3.065        1.111      184.373       48.516        0.069      338.010       10.367      859.115
11/12/2014  15:19:00       68.122       86.391       76.791       97.461       49.190       62.109     9498.621     2419.682     3857.574        1.689        0.789      110.018       70.131        0.406      338.058       10.451      859.111
11/12/2014  15:20:00       97.999       96.009       53.677       66.241       50.956       51.795     4387.917     2596.493     2682.677        1.568        0.483      137.192       32.042        0.055      338.025       10.395      859.107
11/12/2014  15:21:00      132.382      100.657       51.696       68.478       56.294       62.107     4689.287     3169.007     3857.269        2.102        0.586      166.304       46.128        0.077      337.973       10.307      859.090
11/12/2014  15:22:00       77.719       77.887       69.250       82.106       54.067       54.275     6741.470     2923.274     2945.774        1.475        0.631      110.030       40.687        0.137      338.013       10.376      859.073
11/12/2014  15:23:00      114.890       54.221       35.466       66.005       48.629       37.575     4356.682     2364.790     1411.916        1.276        0.407      127.042       23.797        0.035      337.949       10.269      859.053
11/12/2014  15:24:00       82.616       52.398       39.011       43.546       41.520       37.476     1896.291     1723.901     1404.472        0.806        0.251       97.831       16.508        0.028      337.969       10.302      859.039
11/12/2014  15:25:00       41.354       21.647       44.744       70.147       66.794       47.395     4920.599     4461.440     2246.252        0.790        0.581       46.677       47.128        1.019      338.001       10.356      859.034
11/12/2014  15:26:00       74.531       42.429       35.840       64.266       53.519       39.939     4130.171     2864.286     1595.150        0.861        0.429       85.762       40.059        0.218      338.040       10.420      859.062
11/12/2014  15:27:00       29.776       42.123       58.395       63.973       50.827       39.116     4092.548     2583.394     1530.036        0.714        0.410       51.584       36.886        0.511      338.052       10.441      859.047
11/12/2014  15:28:00      119.330       69.277       10.223       53.377       43.424       37.416     2849.057     1885.632     1399.941        1.264        0.307      137.982       16.407        0.014      338.014       10.377      859.052
11/12/2014  15:29:00       89.718       75.316       45.078       57.808       39.808       46.246     3341.796     1584.652     2138.718        1.141        0.353      117.140       27.494        0.055      337.960       10.288      859.046
11/12/2014  15:30:00      110.253       82.487        9.302       53.337       58.121       37.890     2844.796     3378.076     1435.646        1.335        0.383      137.695       16.021        0.014      337.954       10.277      859.042
11/12/2014  15:31:00      174.313       90.621       22.629       70.092       61.605       41.106     4912.877     3795.179     1689.739        2.475        0.520      196.462       28.962        0.022      337.905       10.193      859.031
11/12/2014  15:32:00      212.078      141.161       17.142       68.786       62.341       51.531     4731.533     3886.435     2655.429        3.823        0.564      254.762       33.869        0.018      337.935       10.242      859.006
11/12/2014  15:33:00      141.627       76.512       44.865      109.848       52.651       44.568    12066.517     2772.096     1986.298        2.237        0.841      160.972       47.732        0.088      337.938       10.248      859.027
11/12/2014  15:34:00      154.736       85.457       46.089       99.777       66.566       47.440     9955.475     4431.066     2250.597        2.500        0.832      176.765       47.475        0.072      337.917       10.213      859.025
11/12/2014  15:35:00      142.588      103.078       18.606       70.809       56.915       41.344     5013.925     3239.286     1709.328        2.063        0.498      175.944       24.335        0.019      337.859       10.114      859.031
11/12/2014  15:36:00       81.995       67.980       29.299       66.356       42.438       44.156     4403.148     1801.000     1949.761        1.018        0.408      106.510       29.801        0.078      337.922       10.223      859.039
11/12/2014  15:37:00      103.426       67.197       37.170       42.094       27.958       32.729     1771.931      781.646     1071.193        1.011        0.181      123.339       10.335        0.007      337.858       10.117      859.037
11/12/2014  15:38:00       73.890       58.957       31.622       48.388       39.698       29.115     2341.421     1575.913      847.685        0.735        0.238       94.529       17.730        0.035      337.913       10.208      859.029
11/12/2014  15:39:00      200.194      101.092       37.009       69.243       39.425       53.195     4794.625     1554.315     2829.673        3.042        0.459      224.270       30.262        0.018      337.829       10.063      859.048
11/12/2014  15:40:00      145.419       69.141       46.620       58.672       54.141       57.965     3442.397     2931.268     3359.955        1.892        0.487      161.019       28.890        0.032      337.853       10.104      859.067
11/12/2014  15:41:00      168.520       89.881       11.957       51.576       37.990       38.089     2660.122     1443.212     1450.751        2.109        0.278      190.991       21.473        0.013      337.754        9.941      859.107
11/12/2014  15:42:00       97.923       64.746       14.484       31.109       31.435       26.153      967.763      988.186      683.969        0.831        0.132      117.392       18.083        0.024      337.775        9.979      859.121
11/12/2014  15:43:00       93.002       43.320       16.959       52.030       52.346       35.281     2707.141     2740.080     1244.746        0.875        0.335      102.596       25.076        0.060      337.815       10.042      859.135
11/12/2014  15:44:00      127.078       72.388        7.669      100.251       64.544       51.330    10050.178     4165.910     2634.750        1.915        0.843      146.250       36.177        0.061      337.786        9.994      859.139
11/12/2014  15:45:00      161.469       91.096       37.638      115.969       71.339       48.245    13448.744     5089.279     2327.622        2.832        1.043      185.393       51.333        0.077      337.779        9.981      859.142
11/12/2014  15:46:00       91.087       81.163       12.387       57.146       38.127       40.363     3265.703     1453.632     1629.145        1.069        0.317      122.001       19.725        0.026      337.807       10.030      859.143
11/12/2014  15:47:00      134.866      114.190       24.694       82.327       70.196       52.306     6777.656     4927.415     2735.871        2.314        0.722      176.715       40.033        0.051      337.767        9.963      859.136
11/12/2014  15:48:00      163.136      123.820       19.527       82.610       55.329       47.838     6824.395     3061.274     2288.509        2.725        0.609      204.805       33.114        0.026      337.727        9.894      859.132
11/12/2014  15:49:00      138.757       62.333       22.697       54.853       50.458       42.357     3008.840     2546.025     1794.119        1.550        0.367      152.114       33.562        0.049      337.762        9.954      859.133
11/12/2014  15:50:00      161.276       97.101       25.303       72.092       49.290       45.880     5197.323     2429.553     2104.962        2.290        0.487      188.251       26.740        0.020      337.776        9.978      859.160
11/12/2014  15:51:00       68.237       55.873       18.252       80.975       52.675       39.998     6556.925     2774.610     1599.880        0.952        0.547       88.193       34.490        0.153      337.765        9.961      859.175
11/12/2014  15:52:00       76.244       74.647       58.169       99.612       57.559       36.959     9922.522     3313.030     1365.978        1.468        0.730      106.702       26.396        0.061      337.765        9.960      859.194
11/12/2014  15:53:00      150.408       89.174       27.264       73.530       57.748       52.848     5406.617     3334.883     2792.941        2.142        0.577      174.856       34.313        0.039      337.733        9.905      859.206
11/12/2014  15:54:00      142.014       84.929       11.938       54.546       47.497       29.925     2975.258     2255.958      895.491        1.682        0.306      165.472       16.901        0.010      337.709        9.864      859.214
11/12/2014  15:55:00      103.542       72.804       35.922       43.003       36.260       31.378     1849.228     1314.793      984.601        1.073        0.207      126.576       11.349        0.008      337.750        9.935      859.213
11/12/2014  15:56:00       96.943       66.702        5.299       38.727       22.759       28.760     1499.817      517.968      827.164        0.836        0.142      117.674       21.899        0.035      337.771        9.970      859.220
11/12/2014  15:57:00       76.724       45.331       11.712       54.796       40.872       37.471     3002.579     1670.502     1404.060        0.708        0.304       89.115       21.042        0.056      337.757        9.946      859.224
11/12/2014  15:58:00       94.323       43.456       19.791       55.769       61.111       32.253     3110.187     3734.584     1040.226        0.953        0.394      103.852       23.875        0.053      337.724        9.891      859.242
11/12/2014  15:59:00      120.122       89.586       18.167       45.661       40.095       39.547     2084.957     1607.608     1563.971        1.402        0.263      149.849       27.001        0.032      337.702        9.854      859.247
11/12/2014  16:00:00       61.577       66.193       -3.405       60.397       58.929       32.235     3647.802     3472.637     1039.094        0.817        0.408       90.406       30.123        0.111      337.743        9.925      859.257
11/12/2014  16:01:00       59.104       67.727        1.310       59.338       58.554       45.495     3520.963     3428.572     2069.832        0.855        0.451       89.890       29.531        0.108      337.723        9.889      859.257
11/12/2014  16:02:00      111.171       71.466       14.859       82.521       48.927       39.910     6809.707     2393.806     1592.779        1.424        0.540      132.161       27.072        0.042      337.648        9.764      859.265
11/12/2014  16:03:00       67.047      130.474      -10.932       53.767       62.918       41.575     2890.846     3958.656     1728.492        1.511        0.429      146.693       37.143        0.064      337.650        9.767      859.238
11/12/2014  16:04:00      105.612       83.313        0.213       63.115       49.361       35.941     3983.455     2436.513     1291.785        1.290        0.386      134.518       23.438        0.030      337.654        9.775      859.217
11/12/2014  16:05:00      141.098       88.508       23.800       70.748       62.954       46.118     5005.324     3963.245     2126.840        1.970        0.555      166.560       41.115        0.061      337.659        9.781      859.185
11/12/2014  16:06:00      139.271       83.751        9.988       61.898       62.871       53.010     3831.404     3952.749     2810.044        1.855        0.530      162.513       19.172        0.014      337.628        9.730      859.195
11/12/2014  16:07:00      163.976       79.768       34.527       93.354       66.514       42.214     8714.901     4424.092     1782.012        2.468        0.746      182.349       25.918        0.020      337.596        9.674      859.201
11/12/2014  16:08:00      151.958       94.735       26.614       60.302       46.700       41.538     3636.348     2180.878     1725.424        2.016        0.377      179.070       21.242        0.014      337.569        9.629      859.218
11/12/2014  16:09:00      181.667      118.874       37.225       83.303       48.950       49.658     6939.406     2396.122     2465.890        3.016        0.590      217.103       36.342        0.028      337.543        9.584      859.216
11/12/2014  16:10:00      194.781      118.633       26.242       57.709       53.312       52.892     3330.320     2842.166     2797.598        3.083        0.449      228.064       31.520        0.019      337.540        9.577      859.223
11/12/2014  16:11:00      157.185      113.549       44.080       60.996       63.567       32.548     3720.532     4040.798     1059.359        2.418        0.441      193.909       22.961        0.014      337.540        9.577      859.239
11/12/2014  16:12:00      154.557       95.950       36.470       71.066       53.144       40.869     5050.399     2824.303     1670.301        2.198        0.477      181.919       33.503        0.034      337.533        9.569      859.242
11/12/2014  16:13:00      156.846       63.476       21.772       91.529       63.734       55.182     8377.526     4061.982     3045.090        2.229        0.774      169.204       47.343        0.078      337.539        9.579      859.257
11/12/2014  16:14:00      132.945       76.409       22.944       52.380       52.084       43.693     2743.714     2712.762     1909.049        1.570        0.368      153.338       29.683        0.037      337.512        9.536      859.262
11/12/2014  16:15:00      154.777       77.521       34.112       55.958       43.156       36.767     3131.330     1862.408     1351.807        1.874        0.317      173.105       26.092        0.023      337.502        9.520      859.258
11/12/2014  16:16:00      188.419      116.083       35.520       71.938       53.361       46.057     5175.137     2847.391     2121.214        3.019        0.507      221.308       15.441        0.005      337.450        9.431      859.258
11/12/2014  16:17:00      176.110       99.475       30.025       63.473       46.003       46.278     4028.819     2116.258     2141.692        2.505        0.414      202.262       23.752        0.014      337.441        9.414      859.247
11/12/2014  16:18:00      157.789       91.346       30.296       84.515       63.039       41.004     7142.713     3973.948     1681.297        2.348        0.640      182.322       24.321        0.018      337.408        9.359      859.236
11/12/2014  16:19:00      116.718       74.022       13.896       69.486       48.969       38.663     4828.354     2397.943     1494.845        1.401        0.436      138.212       17.600        0.016      337.406        9.357      859.248
11/12/2014  16:20:00      113.656       76.381       34.745       37.117       28.519       33.883     1377.707      813.323     1148.088        1.165        0.167      136.937       20.326        0.022      337.414        9.371      859.252
11/12/2014  16:21:00       90.061       58.266        7.180       43.122       35.186       29.819     1859.513     1238.071      889.150        0.777        0.199      107.265       20.521        0.037      337.414        9.373      859.244
11/12/2014  16:22:00      123.776       66.652       14.414       45.194       39.409       42.776     2042.521     1553.104     1829.806        1.270        0.271      140.581       25.853        0.034      337.414        9.372      859.240
11/12/2014  16:23:00      132.697       63.497       23.445       64.484       49.116       32.814     4158.153     2412.363     1076.758        1.492        0.382      147.107       26.128        0.032      337.388        9.326      859.224
11/12/2014  16:24:00      108.097       78.675       12.366       35.343       27.518       26.139     1249.160      757.224      683.230        1.036        0.134      133.696       10.775        0.006      337.353        9.270      859.218
11/12/2014  16:25:00      101.341       68.032       17.736       40.863       24.742       29.492     1669.744      612.170      869.791        0.918        0.158      122.059        7.212        0.003      337.324        9.221      859.226
11/12/2014  16:26:00       86.496       65.095       24.155       41.814       32.553       36.873     1748.380     1059.724     1359.632        0.823        0.208      108.254       21.558        0.040      337.297        9.176      859.247
11/12/2014  16:27:00       70.613       44.361       25.521       56.145       43.429       39.493     3152.273     1886.063     1559.697        0.710        0.330       83.391       22.351        0.072      337.313        9.202      859.269
11/12/2014  16:28:00       79.796       72.838       -3.374       43.768       36.333       29.674     1915.665     1320.093      880.546        0.790        0.206      108.041       24.743        0.052      337.291        9.165      859.299
11/12/2014  16:29:00       98.107       69.622       12.351       67.686       42.855       26.737     4581.354     1836.531      714.848        1.088        0.357      120.301       27.796        0.053      337.273        9.136      859.321
11/12/2014  16:30:00       98.215       45.297        6.482       66.994       73.233       38.482     4488.170     5363.057     1480.893        1.153        0.567      108.157       24.109        0.050      337.241        9.084      859.328
11/12/2014  16:31:00      124.727       94.273       20.769       57.155       50.774       39.623     3266.665     2577.969     1569.994        1.614        0.371      156.346       29.262        0.035      337.225        9.056      859.315
11/12/2014  16:32:00      137.349       97.057       19.114       51.991       40.453       29.736     2703.088     1636.418      884.253        1.694        0.261      168.181       18.559        0.012      337.212        9.034      859.279
11/12/2014  16:33:00       81.133       70.464       13.144       46.676       40.873       35.814     2178.650     1670.627     1282.633        0.843        0.257      107.460       22.714        0.045      337.187        8.993      859.242
11/12/2014  16:34:00      129.626       87.540       26.744       56.427       39.432       35.709     3184.031     1554.861     1275.137        1.560        0.301      156.417       24.246        0.024      337.170        8.962      859.218
11/12/2014  16:35:00      121.746       82.212       23.401       53.867       52.533       42.547     2901.679     2759.702     1810.233        1.480        0.374      146.904       24.620        0.028      337.140        8.913      859.220
11/12/2014  16:36:00      154.165      115.403        9.553       61.668       45.589       56.261     3802.967     2078.353     3165.273        2.311        0.452      192.573       31.189        0.026      337.121        8.880      859.248
11/12/2014  16:37:00      121.169       96.636       15.238       70.454       48.932       45.332     4963.813     2394.377     2055.020        1.683        0.471      154.985       22.174        0.020      337.104        8.852      859.273
11/12/2014  16:38:00      123.121       98.382       28.951       62.131       47.401       38.743     3860.304     2246.900     1501.001        1.664        0.380      157.600       22.909        0.021      337.094        8.833      859.274
11/12/2014  16:39:00      152.237      105.193       27.749       83.996       68.559       37.555     7055.410     4700.380     1410.380        2.409        0.658      185.045       15.749        0.007      337.089        8.824      859.271
11/12/2014  16:40:00      123.304      108.651       25.775       61.744       46.969       45.928     3812.363     2206.134     2109.392        1.790        0.406      164.344       36.443        0.049      337.077        8.807      859.264
11/12/2014  16:41:00      101.307       76.707       12.957       61.410       34.281       31.364     3771.149     1175.204      983.729        1.112        0.297      127.071       19.360        0.023      337.050        8.762      859.259
11/12/2014  16:42:00      100.389       65.369       33.980       68.757       38.127       35.562     4727.576     1453.650     1264.656        1.147        0.372      119.796       28.485        0.057      337.031        8.729      859.262
11/12/2014  16:43:00      156.070       75.696       12.098       53.510       42.359       33.288     2863.340     1794.302     1108.112        1.800        0.288      173.458        9.909        0.003      337.020        8.712      859.246
11/12/2014  16:44:00      113.096       85.890        9.829       56.213       54.890       40.323     3159.939     3012.883     1625.941        1.403        0.390      142.013       31.458        0.049      337.001        8.679      859.232
11/12/2014  16:45:00      142.165       70.637       23.428       63.232       53.633       43.270     3998.270     2876.505     1872.298        1.725        0.437      158.746       22.788        0.021      337.011        8.695      859.221
11/12/2014  16:46:00      109.727       79.612        9.808       60.491       56.981       43.885     3659.142     3246.810     1925.928        1.365        0.442      135.566       28.505        0.044      336.983        8.648      859.217
11/12/2014  16:47:00      113.478       81.325       15.387       40.860       32.476       40.226     1669.512     1054.676     1618.163        1.203        0.217      139.611       13.651        0.010      336.951        8.596      859.228
11/12/2014  16:48:00      147.117       96.446       28.356       40.739       33.249       34.096     1659.689     1105.465     1162.552        1.784        0.196      175.913       18.248        0.011      336.978        8.641      859.255
11/12/2014  16:49:00       98.811       75.694       53.770       63.310       41.911       39.193     4008.156     1756.523     1536.074        1.284        0.365      124.471       28.854        0.054      336.957        8.606      859.273
11/12/2014  16:50:00       98.892       61.664       30.458       61.040       43.390       47.681     3725.930     1882.728     2273.486        1.119        0.394      116.542       35.465        0.093      336.906        8.521      859.282
11/12/2014  16:51:00      147.851      104.950       13.274       48.668       45.734       43.033     2368.569     2091.577     1851.842        1.968        0.316      181.313       19.086        0.011      336.906        8.520      859.304
11/12/2014  16:52:00       71.658       45.794       14.793       61.096       48.369       33.666     3732.708     2339.557     1133.426        0.733        0.360       85.041       19.701        0.054      336.852        8.431      859.325
11/12/2014  16:53:00      156.279      106.760       10.253       59.062       60.915       48.980     3488.295     3710.617     2399.024        2.276        0.480      189.264       33.609        0.032      336.867        8.455      859.322
11/12/2014  16:54:00      150.715       93.005       30.229       88.755       50.131       38.890     7877.366     2513.075     1512.407        2.209        0.595      177.102       35.307        0.040      336.844        8.417      859.310
11/12/2014  16:55:00      157.368       83.772       22.018       74.876       59.213       51.146     5606.485     3506.212     2615.869        2.200        0.586      178.276       18.665        0.011      336.862        8.444      859.307
11/12/2014  16:56:00       85.669       70.063        7.707       55.463       45.813       30.366     3076.173     2098.857      922.100        0.920        0.305      110.671       13.493        0.015      336.829        8.392      859.316
11/12/2014  16:57:00      121.927       91.474       27.307       65.407       34.422       40.483     4278.028     1184.858     1638.914        1.554        0.355      152.426       27.109        0.032      336.833        8.399      859.331
11/12/2014  16:58:00      119.798       85.975        7.915       55.338       40.353       29.559     3062.292     1628.360      873.732        1.368        0.278      147.456       18.940        0.016      336.827        8.388      859.336
11/12/2014  16:59:00      109.297       92.576       10.678       52.261       41.067       30.153     2731.169     1686.513      909.210        1.298        0.266      143.234       13.568        0.009      336.801        8.345      859.354
11/12/2014  17:00:00      123.844       86.665        9.249       42.794       42.698       30.885     1831.357     1823.080      953.876        1.377        0.230      151.156        9.981        0.004      336.807        8.357      859.372
11/12/2014  17:01:00      118.762       85.187       15.273       39.055       36.764       35.401     1525.323     1351.627     1253.204        1.286        0.207      146.155       21.042        0.021      336.789        8.327      859.367
11/12/2014  17:02:00      114.648       77.965       17.744       34.706       29.051       30.665     1204.480      843.972      940.344        1.126        0.149      138.646       21.011        0.023      336.751        8.265      859.371
11/12/2014  17:03:00      101.161       64.428       16.031       25.051       21.382       24.463      627.554      457.193      598.428        0.816        0.084      119.935       13.743        0.013      336.750        8.262      859.385
11/12/2014  17:04:00       47.007       34.176        4.859       35.787       22.599       16.272     1280.720      510.694      264.789        0.273        0.103       58.118        6.506        0.013      336.752        8.267      859.410
11/12/2014  17:05:00       81.704       78.173       -2.039       46.138       42.422       34.434     2128.686     1799.596     1185.703        0.895        0.256      113.078       24.686        0.048      336.748        8.258      859.413
11/12/2014  17:06:00       88.858      100.098       10.687       51.471       48.031       44.556     2649.232     2306.963     1985.280        1.248        0.347      133.848       34.821        0.068      336.724        8.219      859.425
11/12/2014  17:07:00       98.309       86.563       10.063       51.383       45.863       43.296     2640.211     2103.426     1874.550        1.194        0.331      130.988       32.550        0.062      336.685        8.155      859.447
11/12/2014  17:08:00       93.528       66.792       12.112       55.783       44.072       27.860     3111.689     1942.306      776.180        0.959        0.292      114.929       24.789        0.047      336.660        8.112      859.470
11/12/2014  17:09:00       76.284       78.459        2.874       48.498       39.169       39.153     2352.056     1534.225     1532.934        0.870        0.271      109.430       32.543        0.088      336.656        8.105      859.479
11/12/2014  17:10:00       49.233      105.037       -2.217       58.789       57.012       39.646     3456.185     3250.378     1571.776        1.087        0.414      116.003       41.588        0.129      336.647        8.088      859.487
11/12/2014  17:11:00       71.298      104.252      -13.553       49.882       59.269       39.049     2488.189     3512.842     1524.841        1.183        0.376      126.301       33.932        0.072      336.629        8.058      859.481
11/12/2014  17:12:00      124.129      166.531        1.089       84.781       88.233       66.134     7187.811     7785.066     4373.740        3.124        0.967      207.703       64.243        0.096      336.588        7.990      859.484
11/12/2014  17:13:00      114.286      158.980        3.688       78.248       80.923       59.290     6122.699     6548.519     3515.346        2.726        0.809      195.796       54.384        0.077      336.567        7.954      859.473
11/12/2014  17:14:00       48.067      127.932       -7.240       60.317       65.708       39.862     3638.119     4317.511     1588.980        1.414        0.477      136.664       32.331        0.056      336.542        7.914      859.470
11/12/2014  17:15:00      130.506      128.332       18.574       96.239       67.909       53.223     9261.986     4611.674     2832.643        2.527        0.835      183.033       45.002        0.060      336.522        7.879      859.480
11/12/2014  17:16:00      113.308       67.006        9.760       85.861       53.153       47.722     7372.039     2825.221     2277.425        1.495        0.624      131.638       29.619        0.051      336.494        7.833      859.475
11/12/2014  17:17:00      120.914       93.609       16.185       59.516       52.515       38.379     3542.100     2757.849     1472.969        1.571        0.389      152.914       22.148        0.021      336.487        7.821      859.464
11/12/2014  17:18:00       82.525      105.348       11.812       52.101       60.030       53.494     2714.470     3603.597     2861.614        1.361        0.459      133.823       41.765        0.097      336.462        7.778      859.453
11/12/2014  17:19:00       98.000       77.814       31.810       51.663       46.219       41.635     2669.025     2136.167     1733.462        1.160        0.327      125.136       30.114        0.058      336.466        7.786      859.443
11/12/2014  17:20:00      157.797       95.253       29.435       66.179       49.562       42.306     4379.680     2456.429     1789.812        2.173        0.431      184.318       25.339        0.019      336.452        7.760      859.440
11/12/2014  17:21:00      175.746       97.957       29.614       70.288       57.121       57.826     4940.428     3262.813     3343.879        2.645        0.577      201.202       34.909        0.030      336.427        7.717      859.399
11/12/2014  17:22:00       97.870       77.031        0.991       68.323       57.385       50.783     4668.036     3293.072     2578.955        1.302        0.527      124.549       32.082        0.066      336.413        7.695      859.385
11/12/2014  17:23:00       97.836       78.013       19.334       52.641       35.903       36.363     2771.086     1288.999     1322.285        1.071        0.269      125.132       18.770        0.023      336.402        7.679      859.369
11/12/2014  17:24:00      113.814       71.863       10.992       44.090       34.814       36.279     1943.919     1212.046     1316.201        1.135        0.224      134.603       20.866        0.024      336.407        7.687      859.364
11/12/2014  17:25:00      106.333       61.316       13.312       40.187       33.529       26.329     1614.957     1124.168      693.214        0.934        0.172      122.744       11.077        0.008      336.399        7.676      859.352
11/12/2014  17:26:00      108.384       77.243        3.676       42.707       37.226       29.505     1823.870     1385.744      870.530        1.090        0.204      133.092        8.680        0.004      336.384        7.648      859.344
11/12/2014  17:27:00      130.037       71.365       13.058       49.195       34.968       36.596     2420.099     1222.752     1339.238        1.358        0.249      148.333        6.336        0.002      336.392        7.661      859.339
11/12/2014  17:28:00      105.235       77.463       11.604       45.170       35.660       35.848     2040.371     1271.660     1285.071        1.090        0.230      130.671       21.907        0.028      336.379        7.640      859.333
11/12/2014  17:29:00       89.490       55.281       21.900       46.298       30.022       23.879     2143.459      901.304      570.196        0.758        0.181      105.188       19.403        0.034      336.373        7.630      859.328
11/12/2014  17:30:00       96.698       31.596        3.915       49.838       28.577       22.057     2483.805      816.667      486.520        0.707        0.189      101.729       17.852        0.031      336.380        7.644      859.314
11/12/2014  17:31:00       86.486       50.841       18.626       41.612       39.046       34.235     1731.562     1524.556     1172.001        0.742        0.221      100.323       17.748        0.031      336.350        7.594      859.312
11/12/2014  17:32:00       55.388       47.765       13.029       33.046       29.360       26.474     1092.057      862.004      700.877        0.409        0.133       73.139       14.737        0.041      336.315        7.535      859.312
11/12/2014  17:33:00       86.999       58.398        5.474       30.295       25.416       24.890      917.771      645.954      619.532        0.660        0.109      104.782       12.713        0.015      336.325        7.550      859.319
11/12/2014  17:34:00      114.325       57.223       20.319       47.774       42.101       33.655     2282.393     1772.497     1132.654        1.097        0.259      127.846       12.877        0.010      336.355        7.601      859.314
11/12/2014  17:35:00       99.119       75.496       21.433       46.176       33.862       32.609     2132.262     1146.663     1063.354        1.016        0.217      124.596       21.192        0.029      336.331        7.561      859.318
11/12/2014  17:36:00       79.992       58.387       36.487       34.968       24.732       32.767     1222.740      611.679     1073.654        0.702        0.145       99.034       20.530        0.043      336.387        7.653      859.341
11/12/2014  17:37:00       75.912       47.218        7.497       31.533       27.790       26.063      994.313      772.278      679.297        0.525        0.122       89.399       17.766        0.039      336.299        7.509      859.366
11/12/2014  17:38:00       42.904       53.979        6.186       36.906       34.132       26.145     1362.050     1164.962      683.549        0.400        0.161       68.953       23.367        0.115      336.333        7.564      859.379
11/12/2014  17:39:00       60.316       54.720        1.057       34.359       28.748       22.791     1180.559      826.444      519.432        0.458        0.126       81.439       19.824        0.059      336.317        7.537      859.378
11/12/2014  17:40:00       72.611       38.724       10.845       32.723       24.873       18.483     1070.766      618.687      341.615        0.446        0.102       82.291       11.234        0.019      336.295        7.500      859.374
11/12/2014  17:41:00       43.261       47.114        7.489       37.624       31.875       23.621     1415.603     1016.042      557.958        0.357        0.149       63.963       20.834        0.106      336.318        7.540      859.352
11/12/2014  17:42:00       44.880       42.902        1.779       39.268       22.878       24.411     1542.005      523.419      595.904        0.326        0.133       62.088       20.505        0.109      336.288        7.489      859.356
11/12/2014  17:43:00       69.854       40.259       14.156       28.684       25.760       25.519      822.761      663.586      651.197        0.442        0.107       80.625       16.755        0.043      336.308        7.523      859.372
11/12/2014  17:44:00       21.242       54.853       -0.253       24.604       35.142       20.512      605.340     1234.986      420.739        0.286        0.113       58.823       19.182        0.106      336.280        7.478      859.382
11/12/2014  17:45:00       35.656       57.091       -4.846       24.971       28.494       20.784      623.568      811.887      431.963        0.321        0.093       67.310       18.500        0.076      336.256        7.434      859.403
11/12/2014  17:46:00       43.861       68.380        1.804       30.169       35.828       32.671      910.164     1283.617     1067.404        0.493        0.163       81.238       25.046        0.095      336.253        7.431      859.411
11/12/2014  17:47:00       43.732       76.435       -1.584       33.454       40.576       26.952     1119.196     1646.416      726.394        0.562        0.175       88.061       22.055        0.063      336.219        7.374      859.410
11/12/2014  17:48:00       80.451       73.953       21.186       49.509       35.706       25.301     2451.166     1274.884      640.133        0.838        0.218      109.277       18.702        0.029      336.226        7.385      859.409
11/12/2014  17:49:00       58.673       62.515       10.696       33.664       40.049       32.367     1133.245     1603.943     1047.598        0.562        0.189       85.736       24.164        0.079      336.225        7.383      859.391
11/12/2014  17:50:00       75.456       69.184        8.301       45.891       20.469       22.647     2105.995      418.980      512.885        0.679        0.152      102.372       14.263        0.019      336.212        7.361      859.385
11/12/2014  17:51:00       48.343       51.111        4.804       31.861       27.404       24.726     1015.120      750.956      611.390        0.367        0.119       70.352       18.009        0.066      336.209        7.356      859.380
11/12/2014  17:52:00       47.223       50.969        9.487       35.390       29.490       23.064     1252.425      869.684      531.940        0.379        0.133       69.482       20.037        0.083      336.172        7.295      859.367
11/12/2014  17:53:00       89.071       57.597       17.806       39.812       31.154       26.909     1585.028      970.547      724.096        0.742        0.164      106.071       11.124        0.011      336.173        7.296      859.363
11/12/2014  17:54:00       31.243       52.957        7.105       34.231       46.204       25.003     1171.782     2134.813      625.160        0.388        0.197       61.486       21.821        0.126      336.126        7.217      859.377
11/12/2014  17:55:00       42.620       63.824        3.335       39.400       36.103       26.770     1552.335     1303.454      716.651        0.474        0.179       76.746       15.628        0.041      336.115        7.200      859.385
11/12/2014  17:56:00       49.369       51.723       -3.912       28.052       34.130       20.955      786.942     1164.890      439.097        0.376        0.120       71.502       19.044        0.071      336.103        7.181      859.395
11/12/2014  17:57:00       39.240       35.850        8.908       36.886       22.991       19.544     1360.549      528.593      381.960        0.259        0.114       53.151        5.533        0.011      336.133        7.230      859.408
11/12/2014  17:58:00       -5.370       62.749       -6.118       15.378       29.751       21.116      236.469      885.144      445.907        0.279        0.078       62.978       21.194        0.113      336.141        7.241      859.417
11/12/2014  17:59:00       -4.331      117.728      -18.361       28.518       22.358       13.179      813.284      499.892      173.696        0.785        0.074      117.808       10.817        0.008      336.152        7.261      859.430
11/12/2014  18:00:00       -4.515      111.756      -18.756       14.784       16.542       10.777      218.556      273.633      116.153        0.673        0.030      111.847        5.953        0.003      336.133        7.232      859.448
11/12/2014  18:01:00        4.355      123.471      -20.168       18.889       20.753       11.087      356.783      430.700      122.925        0.829        0.046      123.548        9.669        0.006      336.120        7.209      859.459
11/12/2014  18:02:00        9.697      120.417      -21.003       16.707       30.981       11.711      279.131      959.849      137.149        0.821        0.069      120.807       14.188        0.014      336.121        7.211      859.462
11/12/2014  18:03:00       22.803       97.698      -15.454       19.592       31.365       16.343      383.864      983.783      267.086        0.597        0.082      100.323       14.457        0.021      336.150        7.258      859.468
11/12/2014  18:04:00       24.095       76.942       -5.397       23.107       45.251       21.541      533.939     2047.669      464.033        0.479        0.152       80.626       26.147        0.105      336.137        7.235      859.467
11/12/2014  18:05:00       -0.963       99.860      -10.871       24.117       33.501       17.371      581.635     1122.319      301.759        0.605        0.100       99.865       22.012        0.049      336.116        7.202      859.472
11/12/2014  18:06:00       11.579      121.902      -20.640       14.075       25.391        9.651      198.094      644.722       93.135        0.818        0.047      122.451       10.789        0.008      336.124        7.217      859.492
11/12/2014  18:07:00       12.349      152.776      -24.726       19.352       35.223       12.897      374.519     1240.681      166.324        1.294        0.089      153.274       14.073        0.008      336.134        7.232      859.504
11/12/2014  18:08:00       44.273       98.891       -9.201       32.454       58.987       30.732     1053.246     3479.514      944.442        0.865        0.274      108.349       34.253        0.100      336.091        7.160      859.508
11/12/2014  18:09:00       31.548       38.289        7.324       38.320       40.587       19.485     1468.409     1647.299      379.664        0.300        0.175       49.612       16.375        0.109      336.060        7.108      859.523
11/12/2014  18:10:00       20.967       20.198        9.946       23.255       28.801       16.914      540.787      829.487      286.087        0.130        0.083       29.113       14.626        0.252      336.071        7.126      859.544
11/12/2014  18:11:00       17.154      117.920      -24.085       20.885       30.179       12.075      436.173      910.764      145.807        0.814        0.075      119.162       10.958        0.008      336.080        7.139      859.543
11/12/2014  18:12:00        0.812      148.743      -25.328       26.400       20.348       11.665      696.962      414.059      136.080        1.201        0.062      148.745        7.537        0.003      336.067        7.117      859.523
11/12/2014  18:13:00       34.858      113.074      -15.648       28.869       33.564       23.852      833.428     1126.519      568.939        0.839        0.126      118.325       20.336        0.030      336.046        7.085      859.516
11/12/2014  18:14:00       31.361      144.634      -25.529       29.725       44.461       16.403      883.573     1976.813      269.060        1.284        0.156      147.995       17.324        0.014      336.069        7.123      859.518
11/12/2014  18:15:00       23.682      148.574      -26.616       29.026       21.354       15.633      842.512      455.972      244.384        1.244        0.077      150.449       10.921        0.005      336.051        7.094      859.520
11/12/2014  18:16:00       39.412      115.293       -7.470       32.237       61.980       37.318     1039.229     3841.474     1392.661        1.059        0.314      121.843       40.970        0.113      336.014        7.033      859.529
11/12/2014  18:17:00       14.791      130.731      -15.621       35.645       40.865       22.759     1270.595     1669.965      517.967        1.051        0.173      131.565       14.332        0.012      335.999        7.007      859.541
11/12/2014  18:18:00       18.413      167.693      -30.674       30.048       74.477       31.542      902.861     5546.784      994.873        1.842        0.372      168.701       37.715        0.050      335.969        6.954      859.552
11/12/2014  18:19:00       30.529      218.319      -35.289       39.068       69.833       31.919     1526.312     4876.625     1018.827        2.863        0.371      220.444       36.525        0.027      335.963        6.943      859.572
11/12/2014  18:20:00       18.894      195.921      -28.217       49.410       69.202       33.350     2441.305     4788.864     1112.198        2.394        0.417      196.830       38.596        0.038      335.928        6.884      859.607
11/12/2014  18:21:00        9.452      150.331      -12.851       35.697       77.466       39.279     1274.290     6000.982     1542.857        1.583        0.441      150.627       46.661        0.096      335.917        6.868      859.651
11/12/2014  18:22:00       11.963      210.535      -29.449       40.925       51.748       24.116     1674.875     2677.838      581.585        2.513        0.247      210.874       22.186        0.011      335.922        6.876      859.666
11/12/2014  18:23:00       22.211      135.960       -9.238       36.954       58.039       31.527     1365.635     3368.583      993.943        1.239        0.286      137.762       32.447        0.055      335.913        6.863      859.671
11/12/2014  18:24:00       20.275       83.303       -3.493       31.468       48.168       29.339      990.265     2320.177      860.787        0.577        0.209       85.735       32.308        0.142      335.906        6.850      859.673
11/12/2014  18:25:00       34.098      115.400       -8.713       30.903       38.652       28.810      954.994     1493.983      830.034        0.892        0.164      120.333       25.411        0.045      335.895        6.832      859.682
11/12/2014  18:26:00       20.041       86.086       -3.951       36.030       41.503       28.298     1298.142     1722.478      800.785        0.582        0.191       88.388       25.767        0.085      335.903        6.846      859.682
11/12/2014  18:27:00       21.950      116.018      -19.789       26.249       26.570       14.239      689.011      705.955      202.743        0.797        0.080      118.076       11.179        0.009      335.915        6.867      859.692
11/12/2014  18:28:00       24.409      154.178      -30.777       33.417       26.443       16.923     1116.724      699.255      286.397        1.371        0.105      156.098       12.613        0.007      335.919        6.872      859.714
11/12/2014  18:29:00       29.529      141.508      -26.286       36.425       65.366       29.019     1326.798     4272.761      842.077        1.401        0.322      144.556       36.733        0.065      335.918        6.870      859.709
11/12/2014  18:30:00       32.059       71.366       -5.820       44.533       41.812       27.352     1983.199     1748.224      748.147        0.532        0.224       78.236       26.615        0.116      335.882        6.810      859.700
11/12/2014  18:31:00       21.539      149.660      -20.738       40.843       44.503       28.336     1668.147     1980.517      802.930        1.387        0.223      151.202       21.786        0.021      335.882        6.812      859.711
11/12/2014  18:32:00       -9.468      157.188      -28.336       27.628       38.590       12.270      763.330     1489.188      150.559        1.400        0.120      157.473        9.422        0.004      335.902        6.845      859.703
11/12/2014  18:33:00       18.747       77.492      -12.420       20.953       24.530       18.058      439.031      601.711      326.103        0.394        0.068       79.728       10.423        0.017      335.856        6.769      859.688
11/12/2014  18:34:00       23.358       59.065        0.260       30.922       28.120       24.540      956.148      790.747      602.222        0.319        0.117       63.516       18.829        0.088      335.824        6.716      859.670
11/12/2014  18:35:00       49.711       89.972       -6.252       40.352       39.430       29.121     1628.271     1554.759      848.005        0.732        0.202      102.792       24.948        0.059      335.856        6.766      859.667
11/12/2014  18:36:00       26.432      102.735       -1.018       37.112       61.076       41.485     1377.298     3730.287     1721.008        0.904        0.341      106.081       46.147        0.189      335.831        6.728      859.675
11/12/2014  18:37:00       21.876       75.398        0.316       29.059       39.420       26.452      844.410     1553.970      699.693        0.463        0.155       78.508       24.301        0.096      335.823        6.713      859.678
11/12/2014  18:38:00       29.798       66.790       -5.446       21.106       34.690       21.142      445.450     1203.426      446.981        0.374        0.105       73.136       19.180        0.069      335.819        6.708      859.689
11/12/2014  18:39:00       27.648       54.166       -1.497       23.379       38.802       19.763      546.560     1505.603      390.575        0.307        0.122       60.814       20.328        0.112      335.810        6.693      859.691
11/12/2014  18:40:00       15.095      102.029      -13.215       29.218       27.945       22.622      853.678      780.950      511.752        0.648        0.107      103.140       24.078        0.054      335.810        6.692      859.676
11/12/2014  18:41:00       -3.505      150.120      -27.433       20.194       46.565       11.304      407.815     2168.281      127.775        1.300        0.135      150.161       16.019        0.011      335.860        6.775      859.675
11/12/2014  18:42:00        9.543      148.283      -23.303       28.216       22.559       13.583      796.160      508.919      184.508        1.206        0.074      148.590       11.688        0.006      335.853        6.763      859.666
11/12/2014  18:43:00       15.908      119.868      -15.813       32.560       42.272       23.649     1060.137     1786.944      559.279        0.914        0.170      120.919       26.804        0.049      335.836        6.738      859.652
11/12/2014  18:44:00       14.652      154.685      -21.198       23.078       64.069       18.037      532.601     4104.870      325.337        1.478        0.248      155.377       21.824        0.020      335.825        6.717      859.636
11/12/2014  18:45:00        6.029      136.103      -21.720       26.258       25.274       16.764      689.477      638.760      281.043        1.032        0.080      136.237       15.348        0.013      335.836        6.734      859.637
11/12/2014  18:46:00       33.992      104.771      -13.207       30.688       58.202       23.009      941.763     3387.448      529.418        0.858        0.243      110.147       29.775        0.073      335.824        6.714      859.643
11/12/2014  18:47:00       21.573      124.590      -25.429       16.889       19.465       12.426      285.254      378.877      154.397        0.873        0.041      126.444       11.102        0.008      335.850        6.759      859.648
11/12/2014  18:48:00       24.443      133.493      -24.346       19.630       17.516       13.075      385.344      306.817      170.967        0.994        0.043      135.712        8.329        0.004      335.856        6.769      859.655
11/12/2014  18:49:00       20.366      126.896      -17.335       23.724       40.003       23.836      562.848     1600.234      568.156        0.977        0.137      128.520       25.576        0.040      335.827        6.720      859.667
11/12/2014  18:50:00       20.378       92.937      -17.225       23.255       34.381       14.356      540.780     1182.051      206.100        0.564        0.096       95.145       17.268        0.033      335.806        6.684      859.686
11/12/2014  18:51:00       34.289       92.318      -12.108       17.466       37.579       24.277      305.067     1412.215      589.385        0.608        0.115       98.480       24.959        0.064      335.821        6.711      859.684
11/12/2014  18:52:00       15.924       40.673       -3.541       24.101       23.742       13.840      580.865      563.695      191.556        0.163        0.067       43.679       10.543        0.058      335.794        6.666      859.674
11/12/2014  18:53:00       24.197       41.638       -4.426       24.436       38.303       22.206      597.132     1467.128      493.093        0.245        0.128       48.158       24.033        0.249      335.804        6.681      859.688
11/12/2014  18:54:00       -9.599       78.573       -6.540       16.276       39.794       14.737      264.920     1583.599      217.189        0.419        0.103       79.158       18.118        0.052      335.854        6.764      859.715
11/12/2014  18:55:00      -11.207       77.870       -8.576       26.867       24.995       19.283      721.828      624.768      371.837        0.399        0.086       78.673       17.608        0.050      335.908        6.857      859.730
11/12/2014  18:56:00       19.723       89.252      -14.709       23.022       22.005       12.522      530.023      484.206      156.805        0.487        0.059       91.405       10.486        0.013      335.832        6.729      859.724
11/12/2014  18:57:00       23.122       38.559       -2.367       20.687       36.190       16.267      427.954     1309.750      264.615        0.201        0.100       44.960       19.279        0.184      335.784        6.651      859.720
11/12/2014  18:58:00       19.289       62.307       -9.447       17.359       16.267       11.361      301.350      264.609      129.073        0.252        0.035       65.225        8.424        0.017      335.784        6.647      859.715
11/12/2014  18:59:00       27.401       35.289       -5.608       11.523       12.857        8.890      132.776      165.305       79.025        0.120        0.019       44.678        4.735        0.011      335.794        6.666      859.723
11/12/2014  19:00:00        8.365       35.272       -9.520       13.023       25.421       10.588      169.605      646.243      112.106        0.117        0.046       36.250       12.187        0.113      335.829        6.725      859.725
11/12/2014  19:01:00      -10.939       32.749        7.493       34.024       45.419       22.516     1157.630     2062.851      506.984        0.249        0.186       34.528       24.602        0.508      335.969        6.955      859.732
11/12/2014  19:02:00       18.390       50.616        0.612       21.009       21.407       16.897      441.366      458.252      285.519        0.204        0.059       53.853       17.834        0.110      335.902        6.845      859.735
11/12/2014  19:03:00       25.878       26.617        4.921       14.042       13.726       15.151      197.190      188.400      229.545        0.101        0.031       37.123        6.326        0.029      335.830        6.725      859.727
11/12/2014  19:04:00        2.144       54.868       -4.608       13.588       30.208       13.679      184.621      912.493      187.104        0.216        0.064       54.909       17.620        0.103      335.955        6.933      859.708
11/12/2014  19:05:00      -19.521       63.616       -4.401       19.162       23.790       20.790      367.188      565.949      432.216        0.291        0.068       66.543       15.458        0.054      335.936        6.902      859.700
11/12/2014  19:06:00        5.897       34.215      -11.681       28.491       18.443       13.455      811.711      340.146      181.024        0.134        0.067       34.719       10.266        0.087      335.831        6.727      859.691
11/12/2014  19:07:00       13.814       46.932        1.279       23.102       31.284       15.335      533.684      978.659      235.157        0.207        0.087       48.923       17.878        0.134      335.785        6.650      859.693
11/12/2014  19:08:00       23.879       75.060       -5.571       17.246       15.261       14.311      297.414      232.883      204.801        0.349        0.037       78.767       11.675        0.022      335.783        6.646      859.711
11/12/2014  19:09:00       18.389       50.436       -3.368       19.001       22.978       17.058      361.040      527.975      290.964        0.204        0.059       53.683       16.041        0.089      335.765        6.618      859.727
11/12/2014  19:10:00        8.858       66.574       -9.313       22.670       23.640       11.612      513.917      558.873      134.844        0.290        0.060       67.161       10.042        0.022      335.761        6.609      859.734
11/12/2014  19:11:00       -6.214       76.032       -9.363       23.811       24.202       11.090      566.974      585.740      122.979        0.359        0.064       76.285        9.621        0.016      335.759        6.609      859.748
11/12/2014  19:12:00        8.253       72.826       -9.601       13.765       23.230       10.786      189.465      539.646      116.341        0.315        0.042       73.292       11.648        0.025      335.740        6.578      859.752
11/12/2014  19:13:00       15.515       53.985       -4.192       18.769       30.662       17.335      352.268      940.158      300.507        0.238        0.080       56.170       17.197        0.094      335.694        6.499      859.747
11/12/2014  19:14:00        9.447       78.178      -10.175       19.070       21.571       15.382      363.658      465.306      236.609        0.368        0.053       78.746       13.556        0.030      335.689        6.493      859.760
11/12/2014  19:15:00      -20.621       90.654      -13.059       19.576       20.269       15.156      383.235      410.832      229.716        0.492        0.051       92.970        9.813        0.011      335.890        6.826      859.761
11/12/2014  19:16:00        4.514       56.702       -3.015       19.015       30.102       15.238      361.567      906.121      232.188        0.237        0.075       56.881       17.812        0.098      335.708        6.524      859.750
11/12/2014  19:17:00        6.040       99.643      -17.567       15.963       23.993       11.000      254.807      575.677      120.989        0.561        0.048       99.826       11.404        0.013      335.690        6.490      859.747
11/12/2014  19:18:00       10.244       73.424      -12.933       12.560       14.202       11.275      157.761      201.705      127.128        0.307        0.024       74.135        7.841        0.011      335.662        6.445      859.761
11/12/2014  19:19:00        0.190       91.725      -17.558       14.900       12.710       11.056      222.018      161.544      122.228        0.461        0.025       91.725       10.101        0.012      335.683        6.480      859.777
11/12/2014  19:20:00       -9.205       93.636      -14.010       12.113       19.594       11.227      146.721      383.907      126.056        0.485        0.033       94.088        6.353        0.005      335.730        6.558      859.784
11/12/2014  19:21:00      -30.897       80.685      -10.472       32.754       36.027       19.299     1072.854     1297.956      372.452        0.516        0.137       86.398       17.555        0.041      335.746        6.586      859.779
11/12/2014  19:22:00      -13.380       94.326      -13.499       26.773       32.283       16.615      716.784     1042.179      276.054        0.565        0.102       95.270        9.518        0.010      335.789        6.659      859.788
11/12/2014  19:23:00      -10.767       86.404      -10.643       26.096       30.909       16.580      681.024      955.388      274.896        0.480        0.096       87.072       17.105        0.039      335.712        6.528      859.782
11/12/2014  19:24:00      -16.303       82.783       -9.908       24.612       24.381       15.455      605.730      594.427      238.864        0.433        0.072       84.373       11.520        0.019      335.755        6.601      859.754
11/12/2014  19:25:00        7.192       83.997       -5.523       27.112       28.751       20.584      735.053      826.599      423.699        0.456        0.099       84.305       17.790        0.045      335.725        6.550      859.719
11/12/2014  19:26:00       17.861      104.075      -15.015       23.610       36.942       16.520      557.426     1364.705      272.921        0.679        0.110      105.597       15.250        0.021      335.616        6.370      859.719
11/12/2014  19:27:00        5.743      132.683      -19.835       36.458       26.495       18.003     1329.200      702.008      324.104        1.019        0.118      132.807       11.397        0.007      335.645        6.418      859.735
11/12/2014  19:28:00       36.837       54.306        0.599       22.505       23.251       16.870      506.459      540.587      284.601        0.282        0.067       65.621       14.570        0.049      335.566        6.285      859.726
11/12/2014  19:29:00       21.783       96.589      -18.921       31.191       29.890       14.610      972.886      893.393      213.453        0.612        0.104       99.015       15.080        0.023      335.534        6.231      859.701
11/12/2014  19:30:00       20.226      146.663      -25.126       19.515       23.144       16.198      380.828      535.622      262.389        1.186        0.059      148.051       11.184        0.006      335.520        6.209      859.686
11/12/2014  19:31:00       -7.315      121.700      -19.365       15.141       18.515       12.075      229.245      342.813      145.802        0.798        0.036      121.920        7.788        0.004      335.542        6.246      859.695
11/12/2014  19:32:00      -41.711       72.987       -8.714       38.170       31.137       25.398     1456.948      969.522      645.050        0.511        0.154       84.065       26.996        0.103      335.586        6.319      859.724
11/12/2014  19:33:00      -74.171      110.646      -31.287       23.538       29.015       17.662      554.034      841.843      311.937        1.021        0.085      133.206       14.844        0.012      335.513        6.195      859.737
11/12/2014  19:34:00      -43.411      131.051      -17.001       25.230       39.114       19.500      636.536     1529.907      380.254        1.095        0.127      138.054       21.493        0.024      335.688        6.488      859.750
11/12/2014  19:35:00      -49.066       96.757       -7.791       34.502       43.314       26.552     1190.372     1876.071      705.003        0.780        0.189      108.487       28.569        0.069      335.710        6.525      859.750
11/12/2014  19:36:00      -35.580       89.615      -16.192       30.005       27.969       17.204      900.320      782.262      295.972        0.577        0.099       96.420       16.897        0.031      335.610        6.360      859.736
11/12/2014  19:37:00        1.954       94.255      -21.297       17.020       27.581       16.629      289.680      760.723      276.534        0.533        0.066       94.275       16.381        0.030      335.596        6.336      859.719
11/12/2014  19:38:00       -6.249      102.000      -13.879       18.161       20.739       11.889      329.838      430.120      141.351        0.577        0.045      102.191       10.177        0.010      335.574        6.299      859.707
11/12/2014  19:39:00      -11.649      109.878      -15.670       22.250       25.059       11.148      495.056      627.940      124.285        0.685        0.062      110.494       11.957        0.012      335.568        6.288      859.695
11/12/2014  19:40:00       21.629       95.392      -16.299       31.385       29.504       12.500      985.003      870.460      156.244        0.592        0.101       97.813       11.040        0.013      335.455        6.100      859.686
11/12/2014  19:41:00        3.192      130.221      -26.051       23.419       22.027       11.621      548.439      485.195      135.050        0.941        0.058      130.260        7.709        0.004      335.436        6.068      859.689
11/12/2014  19:42:00      -18.623      115.728      -18.149       23.640       23.572       15.853      558.831      555.649      251.330        0.772        0.068      117.217       12.487        0.011      335.518        6.205      859.720
11/12/2014  19:43:00      -28.922       74.777       -3.724       21.086       21.738       18.314      444.607      472.543      335.388        0.385        0.063       80.175       11.517        0.021      335.647        6.419      859.739
11/12/2014  19:44:00       -6.243      106.100      -14.777       26.071       32.699       15.565      679.704     1069.225      242.258        0.675        0.100      106.283       17.783        0.028      335.543        6.248      859.709
11/12/2014  19:45:00       -4.856      137.963      -23.328       25.948       23.540       13.916      673.317      554.111      193.661        1.051        0.071      138.049       14.451        0.011      335.451        6.094      859.661
11/12/2014  19:46:00      -45.122      129.913      -25.946       25.958       45.470       16.981      673.843     2067.566      288.340        1.131        0.151      137.526       21.684        0.025      335.533        6.228      859.668
11/12/2014  19:47:00      -31.644       52.707       -8.775       25.755       31.697       19.053      663.303     1004.702      363.001        0.294        0.102       61.476       13.530        0.048      335.650        6.427      859.739
11/12/2014  19:48:00      -31.677       47.766       -9.886       25.026       22.793       14.493      626.298      519.523      210.050        0.237        0.068       57.316       15.857        0.077      335.488        6.152      859.738
11/12/2014  19:49:00       -5.061       88.841      -10.837       35.923       33.237       19.238     1290.434     1104.703      370.087        0.540        0.138       88.985       11.104        0.016      335.543        6.246      859.681
11/12/2014  19:50:00        1.449      121.870      -22.435       16.568       20.519        9.402      274.512      421.043       88.394        0.807        0.039      121.879        9.734        0.006      335.417        6.034      859.643
11/12/2014  19:51:00      -13.963       89.394      -14.362       22.014       22.600       13.752      484.627      510.745      189.113        0.479        0.059       90.478       10.839        0.014      335.555        6.266      859.666
11/12/2014  19:52:00       29.752       64.928       -5.502       18.414       35.940       15.112      339.076     1291.666      228.380        0.349        0.093       71.420       18.883        0.070      335.337        5.902      859.686
11/12/2014  19:53:00       29.023       63.112       -8.145       25.129       31.589       20.184      631.487      997.888      407.385        0.346        0.102       69.465       21.563        0.096      335.374        5.964      859.683
11/12/2014  19:54:00       39.475       42.585       -0.046       25.463       24.633       17.974      648.361      606.767      323.057        0.247        0.079       58.067       18.946        0.106      335.353        5.929      859.667
11/12/2014  19:55:00       11.413       30.103        4.129       15.970       21.455       13.720      255.031      460.297      188.233        0.098        0.045       32.194       14.401        0.200      335.308        5.854      859.657
11/12/2014  19:56:00        0.413       99.206      -10.837       16.471       26.853       12.968      271.279      721.087      168.177        0.556        0.058       99.207        8.268        0.007      335.444        6.081      859.647
11/12/2014  19:57:00       29.295       80.734      -10.342       21.953       12.626       14.927      481.935      159.412      222.826        0.417        0.043       85.884        9.552        0.012      335.410        6.026      859.641
11/12/2014  19:58:00       22.539       54.857       -4.229       15.193       31.544       12.974      230.819      995.001      168.330        0.246        0.070       59.307       15.112        0.065      335.441        6.076      859.642
11/12/2014  19:59:00        3.229       59.292       -7.824       11.283       10.979        5.904      127.310      120.545       34.853        0.193        0.014       59.380        5.468        0.008      335.427        6.053      859.656
11/12/2014  20:00:00       -3.528       80.998       -9.781       19.835       20.100        9.465      393.436      404.018       89.587        0.378        0.044       81.075        5.932        0.005      335.492        6.162      859.656
11/12/2014  20:01:00       11.338       66.680       -7.125       18.060       15.517       11.340      326.149      240.772      128.589        0.266        0.035       67.637        5.219        0.006      335.559        6.274      859.651
11/12/2014  20:02:00       16.416       81.375       -6.264       20.838       31.440       17.837      434.205      988.468      318.146        0.434        0.087       83.015       20.224        0.059      335.455        6.100      859.637
11/12/2014  20:03:00       29.741       73.403       -9.196       22.557       31.206       22.234      508.800      973.829      494.356        0.417        0.099       79.199       21.235        0.072      335.340        5.907      859.650
11/12/2014  20:04:00       32.582       63.709       -9.538       21.401       30.105       17.700      458.008      906.283      313.297        0.344        0.084       71.557       16.260        0.052      335.417        6.036      859.699
11/12/2014  20:05:00       28.313       69.892       -2.397       38.822       30.672       21.424     1507.162      940.801      458.972        0.430        0.145       75.409       19.065        0.064      335.431        6.060      859.722
11/12/2014  20:06:00       70.436       38.251       14.346       36.055       36.578       19.478     1299.964     1337.948      379.411        0.482        0.151       80.152       10.040        0.016      335.504        6.182      859.703
11/12/2014  20:07:00       21.291       43.344       -0.171       22.427       27.506       18.908      502.983      756.567      357.509        0.197        0.081       48.291       13.763        0.081      335.423        6.046      859.697
11/12/2014  20:08:00       25.403       40.280       11.821       27.894       20.019       20.723      778.063      400.749      429.448        0.201        0.080       47.621       20.006        0.176      335.445        6.082      859.704
11/12/2014  20:09:00       57.677       31.865        4.266       30.555       20.349       19.007      933.587      414.101      361.275        0.303        0.085       65.894       10.934        0.028      335.445        6.083      859.709
11/12/2014  20:10:00       53.703       18.744        6.113       30.721       16.495       10.785      943.800      272.098      116.318        0.230        0.067       56.880        4.778        0.007      335.426        6.051      859.716
11/12/2014  20:11:00       24.241       33.652        9.325       12.898       14.181       14.055      166.346      201.091      197.543        0.119        0.028       41.474        8.925        0.046      335.388        5.987      859.722
11/12/2014  20:12:00       15.830       26.710       30.530       32.800       30.622       21.630     1075.814      937.694      467.863        0.219        0.124       31.049       13.286        0.183      335.343        5.914      859.696
11/12/2014  20:13:00       50.362       39.945       26.327       24.592       19.784       17.331      604.754      391.418      300.365        0.306        0.065       64.280        7.087        0.012      335.481        6.143      859.674
11/12/2014  20:14:00       88.353       46.646       22.563       47.331       28.291       23.352     2240.260      800.378      545.333        0.704        0.179       99.910       13.545        0.018      335.432        6.060      859.651
11/12/2014  20:15:00      104.277       47.145       16.779       31.096       24.447       23.715      966.992      597.660      562.382        0.775        0.106      114.439       10.496        0.008      335.450        6.091      859.641
11/12/2014  20:16:00       67.839       54.167       24.134       18.856       18.964       26.156      355.551      359.649      684.113        0.476        0.070       86.811       15.771        0.033      335.385        5.983      859.628
11/12/2014  20:17:00       55.256       35.458       33.988       41.047       28.073       24.383     1684.888      788.109      594.546        0.427        0.153       65.654       22.301        0.115      335.370        5.957      859.613
11/12/2014  20:18:00       48.622       29.980       13.600       26.913       17.482       18.944      724.289      305.635      358.858        0.242        0.069       57.122       13.098        0.053      335.442        6.077      859.607
11/12/2014  20:19:00       45.024       17.475       -3.686       12.861       11.791       11.344      165.402      139.030      128.675        0.139        0.022       48.296        6.055        0.016      335.394        5.998      859.630
11/12/2014  20:20:00       24.780        0.196       -5.498       20.005       12.317        9.118      400.210      151.713       83.137        0.064        0.032       24.780        2.842        0.013      335.359        5.940      859.662
11/12/2014  20:21:00       20.340       11.079       -5.761       23.314        9.825        7.773      543.528       96.521       60.424        0.063        0.035       23.161        9.562        0.170      335.344        5.915      859.682
11/12/2014  20:22:00       17.080       21.092       -9.902       10.884        7.643        5.304      118.463       58.412       28.128        0.052        0.010       27.140        4.430        0.027      335.409        6.023      859.681
11/12/2014  20:23:00       38.894       16.183        1.229       10.147        6.974        9.470      102.964       48.641       89.683        0.101        0.012       42.126        3.908        0.009      335.442        6.075      859.679
11/12/2014  20:24:00       31.280       22.662        6.633       11.584        9.262        6.861      134.191       85.789       47.067        0.090        0.013       38.626        4.925        0.016      335.467        6.121      859.689
11/12/2014  20:25:00       34.024       18.230        9.238       11.548        9.303        9.212      133.351       86.546       84.868        0.094        0.015       38.600        6.633        0.030      335.458        6.105      859.693
11/12/2014  20:26:00       33.882       17.122        9.246        7.609        6.792       10.931       57.899       46.134      119.477        0.088        0.011       37.963        5.907        0.024      335.445        6.080      859.688
11/12/2014  20:27:00       33.480       19.346        4.699        5.940        5.251        6.132       35.280       27.571       37.596        0.081        0.005       38.667        4.038        0.011      335.461        6.110      859.670
11/12/2014  20:28:00       20.135       23.747        4.900       10.353        6.221        7.191      107.188       38.701       51.705        0.060        0.010       31.134        6.020        0.037      335.456        6.100      859.656
11/12/2014  20:29:00       18.219       18.015        2.949        9.787        7.925        7.639       95.790       62.814       58.351        0.044        0.011       25.622        4.189        0.027      335.480        6.139      859.649
11/12/2014  20:30:00       21.095       38.182       -3.123        8.835        7.065        7.635       78.063       49.920       58.297        0.105        0.009       43.622        5.181        0.014      335.487        6.153      859.649
11/12/2014  20:31:00       20.651       36.854        7.926       10.693        7.222       11.510      114.341       52.163      132.470        0.107        0.015       42.246        6.900        0.027      335.415        6.032      859.651
11/12/2014  20:32:00        2.382       38.857       -0.967        9.614       13.074        8.430       92.438      170.929       71.068        0.093        0.017       38.930        8.898        0.052      335.413        6.031      859.652
11/12/2014  20:33:00       24.803       23.979        1.656        7.764        9.098       12.021       60.287       82.766      144.516        0.074        0.014       34.499        5.936        0.030      335.412        6.027      859.649
11/12/2014  20:34:00       41.846       36.871        1.303       15.505       10.816       11.162      240.420      116.996      124.581        0.180        0.024       55.772        9.504        0.029      335.424        6.048      859.649
11/12/2014  20:35:00       20.092       29.195       -3.213        9.448       14.809        7.357       89.262      219.292       54.118        0.081        0.018       35.441        5.130        0.021      335.416        6.033      859.663
11/12/2014  20:36:00        7.553       28.528       -8.409        8.831        7.883        5.183       77.993       62.143       26.864        0.055        0.008       29.511        5.354        0.033      335.437        6.072      859.674
11/12/2014  20:37:00        5.940       14.882       -0.134        6.810        9.137        7.753       46.372       83.492       60.116        0.022        0.009       16.024        3.901        0.059      335.384        5.981      859.693
11/12/2014  20:38:00        4.352       32.168       -3.167        7.565        6.538        4.542       57.231       42.742       20.629        0.059        0.006       32.461        1.822        0.003      335.405        6.016      859.693
11/12/2014  20:39:00       16.132       14.990       -6.045       13.558       10.873       10.914      183.811      118.219      119.119        0.047        0.021       22.021        9.158        0.173      335.386        5.982      859.688
11/12/2014  20:40:00        1.701       13.888        0.111        5.766       19.533        3.805       33.243      381.547       14.478        0.031        0.021       13.992        3.379        0.058      335.400        6.008      859.694
11/12/2014  20:41:00      -38.986       11.451       -4.216       20.855       16.634        8.682      434.927      276.703       75.375        0.123        0.039       40.633        9.690        0.057      335.076        5.468      859.705
11/12/2014  20:42:00      -51.558      -10.517       -9.450       13.759       11.216       11.360      189.305      125.788      129.044        0.165        0.022       52.619        6.988        0.018      334.884        5.152      859.713
11/12/2014  20:43:00      -51.849      -25.994       -8.390       26.647       17.749       11.220      710.066      315.018      125.896        0.229        0.058       58.000       11.252        0.038      334.904        5.185      859.716
11/12/2014  20:44:00      -14.784      -21.801       -7.208       16.088       18.363       11.391      258.810      337.196      129.756        0.074        0.036       26.341       10.167        0.149      335.035        5.401      859.716
11/12/2014  20:45:00      -52.881       -3.466        1.687       14.176       21.265       12.149      200.950      452.197      147.604        0.181        0.040       52.995        5.803        0.012      335.076        5.472      859.714
11/12/2014  20:46:00      -61.331      -24.552       -5.884       21.212       25.607       12.961      449.949      655.697      167.981        0.284        0.064       66.062        9.679        0.021      334.934        5.234      859.726
11/12/2014  20:47:00      -27.620       -1.189       -6.008       19.475       14.201       12.595      379.286      201.663      158.632        0.077        0.037       27.646        5.939        0.046      334.858        5.108      859.727
11/12/2014  20:48:00        0.150        7.689        3.409        9.825       12.826        9.241       96.526      164.498       85.402        0.021        0.017        7.691        9.062        1.388      335.041        5.412      859.723
11/12/2014  20:49:00      -13.231       11.644       -6.890       14.268        7.648        7.388      203.588       58.494       54.580        0.034        0.016       17.625        4.545        0.066      335.159        5.607      859.731
11/12/2014  20:50:00      -52.874      -17.983       -9.664       16.375       14.229        9.000      268.153      202.451       81.003        0.188        0.028       55.849        7.735        0.019      334.881        5.148      859.753
11/12/2014  20:51:00      -40.555      -27.586       -4.749       18.046       22.214       10.451      325.664      493.469      109.228        0.168        0.046       49.048        7.687        0.025      334.870        5.127      859.777
11/12/2014  20:52:00      -23.580        0.213       -0.574       28.921       19.786       21.918      836.414      391.496      480.386        0.113        0.085       23.581       16.735        0.504      334.824        5.052      859.773
11/12/2014  20:53:00      -17.344       29.339       -3.988       16.860       18.041       16.981      284.257      325.470      288.357        0.104        0.045       34.082       10.515        0.095      334.926        5.221      859.758
11/12/2014  20:54:00        8.598       37.361       -9.327       10.563       14.533        8.624      111.586      211.213       74.381        0.098        0.020       38.338        4.858        0.016      335.145        5.584      859.755
11/12/2014  20:55:00       -1.939        9.181       -1.248        7.766       12.047        4.097       60.305      145.129       16.788        0.016        0.011        9.383        2.125        0.051      335.160        5.607      859.779
11/12/2014  20:56:00      -49.596      -14.126       -8.670       18.036       18.104       10.406      325.301      327.772      108.284        0.175        0.038       51.568        6.428        0.016      334.832        5.066      859.780
11/12/2014  20:57:00      -51.281        5.165       -8.570       27.492       12.761       11.566      755.809      162.838      133.773        0.189        0.053       51.541       13.289        0.066      334.694        4.835      859.756
11/12/2014  20:58:00      -20.096        3.340       -3.003       20.228       11.983        8.242      409.182      143.603       67.937        0.052        0.031       20.371        5.910        0.084      334.868        5.126      859.721
11/12/2014  20:59:00      -26.160      -16.231       -7.731       14.950       12.055        7.584      223.501      145.315       57.524        0.072        0.021       30.786        6.068        0.039      334.954        5.268      859.702
11/12/2014  21:00:00      -34.296       -7.539      -10.449       10.897        7.723        5.852      118.751       59.645       34.246        0.078        0.011       35.115        2.631        0.006      334.821        5.047      859.692
11/12/2014  21:01:00      -19.187       -0.189       -2.009        7.618        8.416        5.254       58.040       70.827       27.609        0.026        0.008       19.188        3.577        0.035      334.985        5.320      859.680
11/12/2014  21:02:00       -6.191       11.570       -2.124       10.635        9.057        6.496      113.094       82.020       42.202        0.021        0.012       13.122        5.268        0.161      334.996        5.336      859.672
11/12/2014  21:03:00      -23.315      -19.228       -4.873       22.798       13.224        6.552      519.753      174.877       42.931        0.084        0.037       30.221        5.954        0.039      334.900        5.178      859.675
11/12/2014  21:04:00      -42.317      -13.365       -9.749        8.493        8.040        7.968       72.136       64.636       63.496        0.113        0.010       44.378        1.712        0.001      334.727        4.892      859.690
11/12/2014  21:05:00      -47.592       -4.935       -6.548       21.583       11.087       15.027      465.816      122.931      225.819        0.157        0.041       47.847       14.831        0.096      334.624        4.720      859.696
11/12/2014  21:06:00      -27.008       -8.409       -7.419       14.870       12.328        8.472      221.121      151.985       71.777        0.065        0.022       28.286        8.021        0.080      334.637        4.741      859.687
11/12/2014  21:07:00      -28.903      -11.550       -0.967        9.386        9.955        9.642       88.103       99.104       92.967        0.062        0.014       31.125        7.640        0.060      334.728        4.892      859.695
11/12/2014  21:08:00      -26.349        2.047        2.756       10.462       10.636        9.476      109.463      113.135       89.789        0.051        0.016       26.429        6.281        0.056      334.784        4.985      859.705
11/12/2014  21:09:00      -33.115        4.219       -4.370       19.100       11.562        7.691      364.802      133.671       59.144        0.085        0.028       33.382        9.411        0.079      334.890        5.161      859.711
11/12/2014  21:10:00       -7.261       11.497        1.499       11.892       11.385        8.209      141.428      129.625       67.384        0.026        0.017       13.598        6.120        0.203      335.000        5.344      859.712
11/12/2014  21:11:00        0.262       15.529        8.103        8.365        7.715        4.682       69.968       59.525       21.923        0.023        0.008       15.531        4.375        0.079      335.088        5.490      859.709
11/12/2014  21:12:00        0.306        8.235       -1.084       11.312        6.725        4.227      127.963       45.226       17.864        0.013        0.010        8.241        1.957        0.056      335.000        5.344      859.677
11/12/2014  21:13:00       18.863       14.027       -1.708        4.468        5.647        6.768       19.966       31.884       45.807        0.033        0.005       23.507        3.631        0.024      335.135        5.568      859.638
11/12/2014  21:14:00       19.051       10.226        0.918        7.370        7.105        5.801       54.313       50.477       33.656        0.030        0.007       21.622        3.184        0.022      335.125        5.551      859.610
11/12/2014  21:15:00       18.986        7.010       -0.862        5.575        4.991        3.804       31.082       24.912       14.472        0.024        0.004       20.239        2.922        0.021      335.091        5.491      859.591
11/12/2014  21:16:00       24.991       -4.504        2.293       14.817        8.142        6.902      219.547       66.297       47.640        0.049        0.017       25.394        4.184        0.027      335.118        5.538      859.580
11/12/2014  21:17:00       43.805        2.403       -1.074        7.817        7.880        7.615       61.104       62.089       57.988        0.105        0.009       43.871        2.846        0.004      335.151        5.592      859.577
11/12/2014  21:18:00       29.520        1.578        1.655        8.519       13.476        7.205       72.577      181.602       51.919        0.059        0.015       29.563        4.220        0.020      335.114        5.534      859.574
11/12/2014  21:19:00       12.942       -5.496        4.516       14.406        8.143        7.714      207.521       66.308       59.504        0.028        0.017       14.061        8.517        0.367      335.090        5.495      859.581
11/12/2014  21:20:00       10.790        0.814        2.562       14.458        7.074        6.532      209.032       50.037       42.664        0.021        0.015       10.821        7.644        0.499      335.139        5.574      859.593
11/12/2014  21:21:00      -20.677      -14.796       -1.216       15.378       12.646       10.961      236.470      159.921      120.148        0.058        0.026       25.426       10.773        0.180      334.804        5.020      859.616
11/12/2014  21:22:00      -39.074      -12.769      -11.152        8.069        7.881        5.555       65.104       62.112       30.861        0.099        0.008       41.107        2.926        0.005      334.631        4.732      859.634
11/12/2014  21:23:00      -53.949      -15.966       -6.739        9.517        7.574        8.128       90.568       57.364       66.068        0.171        0.011       56.261        3.612        0.004      334.533        4.568      859.655
11/12/2014  21:24:00      -52.702      -10.895      -12.946        6.808        6.773        5.750       46.352       45.877       33.068        0.159        0.006       53.816        3.755        0.005      334.471        4.466      859.662
11/12/2014  21:25:00      -45.920       -4.697       -8.090        9.983        9.956       10.502       99.668       99.128      110.297        0.125        0.015       46.159        7.428        0.026      334.491        4.500      859.662
11/12/2014  21:26:00      -55.284       -8.059      -10.162       10.365        9.097        7.275      107.423       82.759       52.927        0.173        0.012       55.868        3.815        0.005      334.457        4.444      859.662
11/12/2014  21:27:00      -37.613      -11.263       -4.805        9.266       10.946        6.582       85.862      119.814       43.316        0.091        0.012       39.263        4.614        0.014      334.480        4.478      859.657
11/12/2014  21:28:00      -38.659        3.555       -7.477       10.411        9.331        7.126      108.391       87.072       50.780        0.090        0.012       38.823        3.320        0.007      334.442        4.419      859.666
11/12/2014  21:29:00      -21.968       -6.476       -3.203        8.521       12.451        6.032       72.603      155.026       36.390        0.040        0.013       22.903        5.595        0.060      334.555        4.607      859.677
11/12/2014  21:30:00        1.442       -5.403        0.607        5.046        7.398        5.371       25.458       54.737       28.842        0.007        0.005        5.593        4.648        0.691      334.499        4.512      859.669
11/12/2014  21:31:00       13.480       -5.373       -0.627       13.695       14.444       13.221      187.551      208.641      174.783        0.039        0.029       14.511       11.320        0.609      334.887        5.156      859.658
11/12/2014  21:32:00       16.847       14.694       10.348       10.797        8.400        8.133      116.573       70.558       66.144        0.043        0.013       22.355        4.684        0.044      334.865        5.120      859.647
11/12/2014  21:33:00        1.104        7.730        6.099        8.866       10.475        5.658       78.603      109.725       32.012        0.016        0.011        7.809        5.205        0.444      334.771        4.965      859.641
11/12/2014  21:34:00       -9.282      -17.760        0.311       11.104        7.541        6.137      123.291       56.866       37.663        0.031        0.011       20.039        2.863        0.020      334.595        4.671      859.620
11/12/2014  21:35:00       -9.494      -15.948        2.352        8.519        8.307        6.578       72.571       69.001       43.266        0.027        0.009       18.560        3.547        0.037      334.444        4.421      859.591
11/12/2014  21:36:00       -9.611      -11.006        1.793       26.862       12.737        9.356      721.588      162.238       87.529        0.059        0.049       14.612        8.230        0.317      334.248        4.096      859.580
11/12/2014  21:37:00      -78.877      -38.561       -7.458       21.692       17.218       11.875      470.523      296.459      141.027        0.434        0.045       87.799        7.357        0.007      334.156        3.942      859.576
11/12/2014  21:38:00     -103.203      -54.362       -9.921       32.042       19.303       12.976     1026.684      372.594      168.378        0.764        0.078      116.645        9.678        0.007      334.139        3.915      859.569
11/12/2014  21:39:00     -101.569        5.144      -10.700       16.295       15.072       12.036      265.541      227.158      144.860        0.555        0.032      101.699        7.531        0.005      334.115        3.873      859.544
11/12/2014  21:40:00      -66.746        7.768       -9.828       12.389       11.499        8.097      153.497      132.237       65.560        0.248        0.018       67.196        5.019        0.006      334.131        3.901      859.540
11/12/2014  21:41:00      -44.742      -13.907       -2.826       11.283        9.890       13.543      127.306       97.822      183.409        0.131        0.020       46.854        9.074        0.038      334.213        4.038      859.570
11/12/2014  21:42:00      -59.389        1.800       -4.572       28.119       13.244       11.119      790.685      175.400      123.622        0.232        0.054       59.417       13.216        0.049      334.294        4.172      859.590
11/12/2014  21:43:00      -80.954       12.920      -10.110        8.768       10.057        6.589       76.874      101.145       43.410        0.352        0.011       81.979        5.296        0.004      334.391        4.333      859.585
11/12/2014  21:44:00      -73.500      -14.137      -13.137       11.683       11.593        7.798      136.482      134.409       60.801        0.305        0.017       74.847        3.384        0.002      334.241        4.085      859.583
11/12/2014  21:45:00      -32.829      -28.190       -7.333       32.626       14.478       10.250     1064.432      209.616      105.054        0.165        0.069       43.271        9.971        0.053      334.183        3.987      859.593
11/12/2014  21:46:00      -57.415      -15.402       -3.520       37.840       18.909       14.363     1431.880      357.547      206.290        0.277        0.100       59.445       18.925        0.101      334.069        3.797      859.570
11/12/2014  21:47:00      -67.596       16.902      -12.209       12.605       12.734        9.250      158.876      162.164       85.566        0.271        0.020       69.677        7.279        0.011      334.143        3.921      859.521
11/12/2014  21:48:00      -46.573        5.761       -8.516       13.067       13.776        6.450      170.753      189.778       41.608        0.134        0.020       46.927        2.955        0.004      334.306        4.191      859.514
11/12/2014  21:49:00      -43.908      -19.142       -8.634       12.813        8.824        8.425      164.161       77.857       70.988        0.134        0.016       47.899        6.633        0.019      334.175        3.973      859.530
11/12/2014  21:50:00      -57.388      -15.925       -7.296       16.500       14.156        8.732      272.247      200.381       76.251        0.207        0.027       59.556        8.736        0.022      334.116        3.876      859.538
11/12/2014  21:51:00      -69.655       -6.461      -10.009       13.731       10.301        8.930      188.530      106.101       79.746        0.268        0.019       69.954        6.775        0.009      334.018        3.715      859.548
11/12/2014  21:52:00      -80.177       -4.967      -16.274       16.326       15.037       10.631      266.531      226.119      113.013        0.366        0.030       80.330        7.105        0.008      333.960        3.618      859.548
11/12/2014  21:53:00      -88.015      -15.566      -14.832       12.722       15.681       12.654      161.841      245.886      160.130        0.439        0.028       89.381        3.917        0.002      333.999        3.683      859.551
11/12/2014  21:54:00      -74.495      -18.299       -9.156       21.163       20.101       12.311      447.887      404.052      151.565        0.349        0.050       76.710        9.445        0.015      333.952        3.606      859.555
11/12/2014  21:55:00      -51.681      -33.305       -6.452       17.418       18.438       13.459      303.400      339.952      181.145        0.232        0.041       61.483        8.823        0.021      334.006        3.694      859.539
11/12/2014  21:56:00      -45.640      -21.412      -15.584        7.360       14.348        7.693       54.163      205.857       59.178        0.155        0.016       50.413        5.056        0.010      334.165        3.957      859.532
11/12/2014  21:57:00      -34.563      -33.728       -7.850       16.202       17.132       12.406      262.513      293.518      153.921        0.155        0.035       48.293        7.450        0.024      334.131        3.900      859.537
11/12/2014  21:58:00      -16.937      -26.435       -5.790       15.547       15.418       13.066      241.722      237.703      170.713        0.083        0.033       31.396        9.002        0.082      334.027        3.729      859.547
11/12/2014  21:59:00      -65.026      -30.152      -14.348       21.606       14.303       15.570      466.829      204.579      242.437        0.313        0.046       71.677       15.582        0.047      334.070        3.800      859.535
11/12/2014  22:00:00      -92.299       -9.458      -11.145       18.364       18.004       13.325      337.230      324.156      177.552        0.479        0.042       92.783       11.110        0.014      333.965        3.628      859.530
11/12/2014  22:01:00       -5.466      -27.435       -4.975       22.444       17.719       18.178      503.745      313.960      330.431        0.098        0.057       27.974       14.070        0.253      334.031        3.736      859.539
11/12/2014  22:02:00      -29.363       -7.280       -5.050       19.330       13.069       11.233      373.635      170.798      126.186        0.081        0.034       30.253        6.663        0.049      334.005        3.692      859.540
11/12/2014  22:03:00      -66.078       -9.063      -14.528       22.121       16.870       11.794      489.347      284.597      139.087        0.279        0.046       66.697        5.380        0.007      334.144        3.922      859.530
11/12/2014  22:04:00     -104.522      -52.941       -8.554       20.595       21.109       12.068      424.144      445.589      145.641        0.741        0.051      117.164        4.684        0.002      333.993        3.672      859.531
11/12/2014  22:05:00      -26.316      -40.034       -0.523       41.739       22.217       20.248     1742.162      493.577      409.985        0.247        0.132       47.909       25.206        0.277      333.957        3.612      859.521
11/12/2014  22:06:00      -31.855       12.839       -4.955       23.438       15.073       11.072      549.359      227.197      122.589        0.105        0.045       34.345       10.054        0.086      334.053        3.772      859.466
11/12/2014  22:07:00      -43.802       48.128      -14.835       21.805       18.691       12.646      475.436      349.351      159.915        0.272        0.049       65.076        8.547        0.017      334.427        4.394      859.420
11/12/2014  22:08:00      -33.518       11.649       10.098       35.700       28.529       15.228     1274.517      813.890      231.883        0.184        0.116       35.485       11.780        0.110      334.514        4.538      859.416
11/12/2014  22:09:00      -52.155       17.973        2.366       12.308       11.810        9.416      151.480      139.487       88.661        0.171        0.019       55.165        7.351        0.018      334.081        3.819      859.379
11/12/2014  22:10:00      -40.736        0.873       -3.845       13.383        6.575        7.495      179.105       43.225       56.177        0.098        0.014       40.745        5.401        0.018      334.141        3.921      859.336
11/12/2014  22:11:00       -7.003        8.776        2.770        7.610        6.922        4.775       57.911       47.911       22.797        0.013        0.006       11.228        1.042        0.009      334.391        4.335      859.321
11/12/2014  22:12:00      -19.283       -4.615       -2.500       11.801        9.773        6.096      139.275       95.516       37.167        0.034        0.014       19.828        4.933        0.062      334.306        4.193      859.322
11/12/2014  22:13:00      -34.096       -9.796       -9.380        9.967       10.931        8.354       99.343      119.485       69.796        0.082        0.014       35.476        2.810        0.006      334.131        3.900      859.318
11/12/2014  22:14:00      -52.700       -9.690      -14.510        7.447        9.565        8.698       55.463       91.495       75.652        0.165        0.011       53.583        3.136        0.003      333.930        3.570      859.316
11/12/2014  22:15:00      -53.456      -20.012      -11.118        9.324       12.140        7.640       86.945      147.377       58.375        0.184        0.015       57.079        2.472        0.002      333.984        3.659      859.313
11/12/2014  22:16:00      -50.695       -6.853       -9.928        6.288        9.241        6.949       39.542       85.388       48.287        0.144        0.009       51.156        3.658        0.005      334.041        3.752      859.324
11/12/2014  22:17:00      -40.430        8.079       -3.674       25.574       12.965        9.515      654.044      168.103       90.534        0.131        0.046       41.229       12.141        0.087      334.328        4.229      859.332
11/12/2014  22:18:00      -29.644      -12.355        5.670       23.836       15.333       18.182      568.137      235.114      330.596        0.110        0.057       32.115        7.885        0.060      334.348        4.262      859.337
11/12/2014  22:19:00      -68.313      -30.514      -12.912       16.083       14.960        8.964      258.678      223.797       80.346        0.316        0.028       74.818        6.310        0.007      333.848        3.432      859.353
11/12/2014  22:20:00      -70.110      -23.863       -7.297       47.775       14.726       18.321     2282.496      216.867      335.652        0.419        0.142       74.060       21.806        0.087      333.830        3.402      859.375
11/12/2014  22:21:00      -70.756      -20.411      -14.923       17.509       10.860        8.907      306.567      117.940       79.333        0.307        0.025       73.641        7.070        0.009      333.920        3.552      859.378
11/12/2014  22:22:00      -53.290      -12.745       -9.649       11.026       13.064        9.478      121.573      170.668       89.834        0.174        0.019       54.793        5.476        0.010      334.035        3.743      859.375
11/12/2014  22:23:00      -10.092      -27.445       -6.368       16.323       10.942        7.185      266.436      119.717       51.626        0.067        0.022       29.242        5.736        0.038      334.207        4.026      859.375
11/12/2014  22:24:00       -7.058      -18.721       -8.638        9.402       18.088        8.243       88.390      327.158       67.951        0.048        0.024       20.008        5.588        0.078      334.109        3.864      859.364
11/12/2014  22:25:00      -12.860       11.411        3.639       11.678       11.936       12.091      136.382      142.470      146.197        0.037        0.021       17.193        9.707        0.319      334.156        3.943      859.322
11/12/2014  22:26:00        6.078        4.405        0.063       10.953        6.218        5.690      119.975       38.665       32.371        0.012        0.010        7.506        3.849        0.263      334.287        4.159      859.291
11/12/2014  22:27:00       14.068        1.836        1.627        6.591        3.998        5.592       43.441       15.982       31.268        0.015        0.005       14.187        3.036        0.046      334.494        4.503      859.278
11/12/2014  22:28:00        5.771        6.760       11.097        8.439        6.844        5.072       71.222       46.846       25.725        0.017        0.007        8.889        3.935        0.196      334.423        4.388      859.278
11/12/2014  22:29:00        8.638        6.033        1.446        8.778        6.593        5.915       77.053       43.469       34.989        0.013        0.008       10.536        3.421        0.105      334.482        4.486      859.294
11/12/2014  22:30:00      -15.267      -15.846        3.302       13.048       10.077       13.624      170.246      101.539      185.617        0.048        0.023       22.005        9.340        0.180      334.179        3.982      859.284
11/12/2014  22:31:00      -47.000      -14.012       -6.385       12.667        9.944        7.694      160.448       98.886       59.204        0.138        0.016       49.045        5.977        0.015      334.085        3.825      859.265
11/12/2014  22:32:00      -53.233      -12.652       -8.108       14.895       12.301        9.565      221.855      151.308       91.488        0.176        0.023       54.716        8.983        0.027      333.991        3.670      859.234
11/12/2014  22:33:00      -64.601       -2.288      -10.524       15.581       15.252       11.735      242.761      232.609      137.701        0.245        0.031       64.641        9.882        0.023      333.874        3.476      859.225
11/12/2014  22:34:00      -61.292        6.405      -10.411       10.515        9.766        8.451      110.557       95.384       71.417        0.209        0.014       61.625        6.194        0.010      333.880        3.486      859.227
11/12/2014  22:35:00      -53.682       -1.430       -8.164       11.991       12.517        9.794      143.772      156.676       95.929        0.167        0.020       53.701        5.270        0.010      333.928        3.565      859.250
11/12/2014  22:36:00      -49.596      -24.435       -9.132       23.513       18.810       11.009      552.880      353.798      121.202        0.208        0.051       55.288        6.927        0.016      333.856        3.446      859.275
11/12/2014  22:37:00      -81.921        5.056       -9.840       51.270       23.058       19.595     2628.637      531.688      383.962        0.519        0.177       82.076       24.904        0.092      333.882        3.489      859.287
11/12/2014  22:38:00      -65.221      -15.168       -7.336       22.646       21.283       16.017      512.823      452.973      256.559        0.288        0.061       66.962       16.150        0.058      333.897        3.514      859.278
11/12/2014  22:39:00      -37.596      -26.870      -11.111       16.178       11.070        9.867      261.743      122.536       97.357        0.137        0.024       46.211        6.413        0.019      333.833        3.408      859.232
11/12/2014  22:40:00      -15.733       -6.953       -0.710       13.198        8.294        8.514      174.184       68.782       72.490        0.031        0.016       17.201        6.632        0.149      333.910        3.535      859.166
11/12/2014  22:41:00       -1.315       17.206       -2.556       14.629       17.856       11.001      214.019      318.847      121.033        0.048        0.033       17.256        9.762        0.320      334.242        4.086      859.122
11/12/2014  22:42:00      -10.210       11.039        0.398       18.626       20.787       10.631      346.940      432.088      113.027        0.056        0.045       15.037        9.862        0.430      334.264        4.120      859.113
11/12/2014  22:43:00      -34.476       -8.036       -5.793        7.018        7.174        6.516       49.253       51.466       42.453        0.071        0.007       35.400        1.646        0.002      334.002        3.688      859.114
11/12/2014  22:44:00      -14.565       -2.333       -6.059       12.210        9.469        6.266      149.092       89.653       39.257        0.027        0.014       14.750        3.173        0.046      334.098        3.845      859.101
11/12/2014  22:45:00       -7.793        0.669       -2.598        9.112        5.616        8.167       83.020       31.534       66.706        0.012        0.009        7.822        5.264        0.453      334.110        3.867      859.079
11/12/2014  22:46:00      -28.312       16.429       -4.016       18.713       25.898       11.956      350.183      670.687      142.952        0.113        0.058       32.733       11.344        0.120      334.149        3.932      859.057
11/12/2014  22:47:00      -32.531       -6.557       -1.735       10.720       11.533        7.328      114.915      133.015       53.700        0.070        0.015       33.185        4.033        0.015      334.016        3.710      859.049
11/12/2014  22:48:00      -48.326      -23.490      -12.469       11.169        7.956        6.931      124.736       63.291       48.036        0.164        0.012       53.732        3.933        0.005      333.989        3.668      859.052
11/12/2014  22:49:00      -29.225      -10.401       -9.034       22.304       15.067        9.037      497.472      227.024       81.673        0.092        0.040       31.021        6.412        0.043      333.957        3.615      859.070
11/12/2014  22:50:00      -52.160      -14.531       -7.091       23.802       14.951       11.922      566.534      223.545      142.145        0.196        0.047       54.146        9.717        0.032      333.937        3.581      859.099
11/12/2014  22:51:00      -42.321      -10.687       -3.933       27.484       14.208       11.076      755.384      201.879      122.676        0.150        0.054       43.649       11.378        0.068      333.925        3.560      859.138
11/12/2014  22:52:00      -44.833      -32.070       -5.939       17.406       17.593       11.413      302.968      309.497      130.261        0.191        0.037       55.123       10.034        0.033      333.952        3.605      859.189
11/12/2014  22:53:00      -34.687      -21.254       -5.938       35.635       13.922       14.340     1269.834      193.833      205.623        0.168        0.083       40.680       14.680        0.130      333.915        3.544      859.240
11/12/2014  22:54:00      -40.920      -15.449       -4.992       18.584       26.365       12.194      345.355      695.109      148.701        0.156        0.059       43.739       10.802        0.061      333.864        3.459      859.265
11/12/2014  22:55:00      -49.174       -6.915       -8.707       18.646       14.265       10.396      347.679      203.482      108.068        0.160        0.033       49.657       10.026        0.041      333.921        3.554      859.263
11/12/2014  22:56:00      -31.659       -4.625       -7.491       14.558       15.949       12.391      211.949      254.372      153.540        0.085        0.031       31.995       11.566        0.131      334.006        3.696      859.258
11/12/2014  22:57:00      -30.890      -17.762       -5.315       12.269       14.094       10.586      150.537      198.652      112.062        0.088        0.023       35.633        6.702        0.035      334.033        3.741      859.267
11/12/2014  22:58:00      -38.473      -11.106       -8.463       12.026       10.224        7.967      144.615      104.523       63.472        0.099        0.016       40.044        6.625        0.027      333.949        3.600      859.275
11/12/2014  22:59:00      -22.279        0.450       -9.537       19.611        9.519        7.128      384.575       90.612       50.809        0.056        0.026       22.283        7.399        0.110      334.022        3.722      859.261
11/12/2014  23:00:00      -65.745       -4.985      -11.011       13.416       12.021       13.451      179.999      144.501      180.921        0.249        0.025       65.933        9.403        0.020      333.961        3.621      859.295
11/12/2014  23:01:00      -46.417       -5.239       -7.180       19.891       14.684        8.254      395.648      215.610       68.122        0.146        0.034       46.712        6.714        0.021      333.874        3.476      859.344
11/12/2014  23:02:00      -41.561       -3.099      -17.230       18.353       15.245       19.879      336.821      232.412      395.172        0.150        0.048       41.676       16.534        0.157      334.050        3.766      859.348
11/12/2014  23:03:00       -8.381       24.575        0.670       21.018       31.208       13.672      441.741      973.931      186.936        0.114        0.080       25.965       12.546        0.233      334.174        3.972      859.321
11/12/2014  23:04:00       -7.842       37.984       -1.552       17.850       28.247       12.659      318.609      797.887      160.244        0.139        0.064       38.785       12.725        0.108      334.433        4.403      859.303
11/12/2014  23:05:00        3.584       80.591       -4.278       15.805       19.958       10.082      249.813      398.321      101.651        0.364        0.037       80.671        7.253        0.008      334.498        4.510      859.296
11/12/2014  23:06:00       -4.475       78.657       -4.184       18.108       22.826       12.225      327.884      521.020      149.458        0.361        0.050       78.784       10.755        0.019      334.436        4.408      859.295
11/12/2014  23:07:00       20.403       68.590       -5.187       18.559       18.826       12.192      344.435      354.434      148.648        0.300        0.042       71.560        9.029        0.016      334.507        4.526      859.273
11/12/2014  23:08:00       22.887       77.251       -6.428       14.495       22.209       13.581      210.115      493.229      184.452        0.371        0.044       80.570       13.799        0.029      334.384        4.321      859.256
11/12/2014  23:09:00       22.339      103.344      -17.760       13.844       15.238        9.548      191.661      232.202       91.172        0.600        0.026      105.731        6.522        0.004      334.434        4.406      859.261
11/12/2014  23:10:00        9.383      127.257      -20.733       12.064       15.207        8.097      145.543      231.248       65.556        0.858        0.022      127.603        7.094        0.003      334.441        4.416      859.291
11/12/2014  23:11:00       15.340      123.148      -17.033       15.015       17.022        8.235      225.465      289.754       67.820        0.814        0.029      124.100        8.624        0.005      334.429        4.396      859.329
11/12/2014  23:12:00       58.554       46.795        3.052       31.506       26.954       22.118      992.617      726.517      489.210        0.392        0.110       74.956       15.739        0.044      334.264        4.122      859.346
11/12/2014  23:13:00       78.549       48.181        3.581       24.397       17.709       17.388      595.195      313.611      302.331        0.486        0.061       92.149        6.538        0.005      334.207        4.027      859.324
11/12/2014  23:14:00       28.839       67.251       -7.673       21.039       24.962       14.276      442.644      623.100      203.818        0.334        0.063       73.174       12.816        0.031      334.272        4.136      859.298
11/12/2014  23:15:00       34.258      121.416      -17.303       25.609       21.925       15.681      655.802      480.701      245.906        0.880        0.069      126.156        5.902        0.002      334.379        4.312      859.282
11/12/2014  23:16:00       31.656      102.193       -8.927       24.278       34.782       21.063      589.430     1209.783      443.638        0.688        0.112      106.984       17.354        0.026      334.306        4.192      859.275
11/12/2014  23:17:00       43.716       89.719      -11.926       34.468       40.509       28.537     1188.049     1640.955      814.377        0.687        0.182       99.803       26.507        0.071      334.271        4.133      859.264
11/12/2014  23:18:00       48.176       64.180       -9.461       38.165       38.912       27.142     1456.543     1514.155      736.664        0.512        0.185       80.249       25.291        0.099      334.242        4.084      859.246
11/12/2014  23:19:00       45.187       78.774      -10.455       32.207       41.267       25.958     1037.259     1702.950      673.828        0.588        0.171       90.814       23.123        0.065      334.240        4.081      859.242
11/12/2014  23:20:00       25.430      104.063       -7.751       23.935       32.567       22.840      572.885     1060.620      521.644        0.685        0.108      107.125       18.100        0.029      334.285        4.158      859.268
11/12/2014  23:21:00       16.292      131.821      -16.060       18.079       16.880       10.522      326.862      284.949      110.709        0.931        0.036      132.824        1.874        0.000      334.321        4.216      859.310
11/12/2014  23:22:00       -1.163      115.617      -14.979       12.086       15.381        8.229      146.071      236.566       67.714        0.702        0.023      115.622        2.997        0.001      334.345        4.257      859.326
11/12/2014  23:23:00       -6.407      114.751      -16.714       14.214       13.689        8.622      202.045      187.383       74.331        0.698        0.023      114.930        4.614        0.002      334.363        4.287      859.313
11/12/2014  23:24:00       -6.418      120.042      -15.933       12.650       13.392       10.186      160.020      179.354      103.747        0.757        0.022      120.213        6.519        0.003      334.383        4.322      859.282
11/12/2014  23:25:00       21.574      106.150      -13.166       24.131       24.672       11.434      582.291      608.730      130.745        0.661        0.066      108.320       12.986        0.014      334.351        4.266      859.246
11/12/2014  23:26:00       36.549       82.522      -10.226       22.794       37.871       19.960      519.544     1434.238      398.418        0.530        0.118       90.254       21.041        0.054      334.290        4.164      859.207
11/12/2014  23:27:00       33.247       58.120        0.002       24.168       37.143       25.811      584.080     1379.637      666.205        0.356        0.131       66.957       25.395        0.144      334.275        4.141      859.165
11/12/2014  23:28:00       36.735       68.430       -7.822       28.328       35.281       25.046      802.448     1244.738      627.277        0.438        0.134       77.667       20.591        0.070      334.292        4.169      859.120
11/12/2014  23:29:00       35.797       71.655       -2.153       25.393       30.611       23.261      644.797      937.046      541.057        0.427        0.106       80.099       19.760        0.061      334.359        4.279      859.108
11/12/2014  23:30:00       36.603       46.171        2.517       25.770       37.496       19.373      664.115     1405.934      375.311        0.296        0.122       58.920       19.136        0.105      334.421        4.383      859.094
11/12/2014  23:31:00       15.719       37.216        1.958       16.437       19.132       13.723      270.180      366.043      188.315        0.123        0.041       40.399       13.309        0.109      334.426        4.393      859.077
11/12/2014  23:32:00       17.331       44.809        3.259       17.427       29.704       16.349      303.688      882.343      267.305        0.189        0.073       48.044       16.542        0.119      334.381        4.319      859.086
11/12/2014  23:33:00       10.732       73.145      -11.513       21.240       23.589       11.076      451.150      556.426      122.672        0.336        0.057       73.928        8.548        0.013      334.450        4.432      859.131
11/12/2014  23:34:00      -10.027       70.333       -8.020       17.854       28.234       11.222      318.763      797.144      125.941        0.318        0.062       71.045       10.447        0.022      334.517        4.541      859.204
11/12/2014  23:35:00      -28.996       17.446        0.111       28.079       30.043       15.882      788.452      902.590      252.253        0.154        0.097       33.840       17.030        0.253      334.452        4.432      859.265
11/12/2014  23:36:00      -37.094        3.512      -12.423       29.686       22.182       17.645      881.263      492.055      311.357        0.161        0.084       37.260       14.084        0.143      334.236        4.076      859.284
11/12/2014  23:37:00      -73.869      -21.717       -4.757       25.185       30.377       18.096      634.282      922.772      327.466        0.392        0.094       76.996       13.183        0.029      334.112        3.870      859.288
11/12/2014  23:38:00      -85.573      -27.542       -3.181       16.449       18.929       10.864      270.586      358.302      118.028        0.442        0.037       89.896        8.651        0.009      334.072        3.803      859.277
11/12/2014  23:39:00      -93.038      -48.130       -6.620       17.292       16.181       10.183      299.021      261.825      103.700        0.584        0.033      104.750        7.339        0.005      334.229        4.064      859.265
11/12/2014  23:40:00      -87.477      -23.414       -9.275       24.589       20.633       12.794      604.598      425.723      163.694        0.474        0.060       90.556       11.416        0.016      334.252        4.101      859.258
11/12/2014  23:41:00     -114.576      -10.394       -8.706       33.037       31.999       21.797     1091.474     1023.916      475.104        0.795        0.130      115.047       19.206        0.028      334.114        3.873      859.268
11/12/2014  23:42:00     -145.098        4.640      -16.776       37.990       33.997       23.016     1443.272     1155.802      529.716        1.224        0.156      145.172       19.507        0.018      334.092        3.835      859.286
11/12/2014  23:43:00     -161.352       45.586      -17.674       29.781       26.063       19.126      886.905      679.286      365.820        1.518        0.097      167.668       11.537        0.005      334.089        3.830      859.291
11/12/2014  23:44:00     -109.723       34.987      -10.916       43.703       24.838       14.011     1909.916      616.928      196.319        0.805        0.136      115.166       14.255        0.015      334.145        3.923      859.264
11/12/2014  23:45:00      -79.363       26.359      -17.627       27.060       22.895       14.382      732.252      524.160      206.829        0.438        0.073       83.625       11.551        0.019      334.176        3.977      859.222
11/12/2014  23:46:00      -81.087       -0.848       -7.604       23.864       30.821       16.889      569.498      949.917      285.228        0.422        0.090       81.091       14.637        0.033      334.220        4.048      859.213
11/12/2014  23:47:00      -89.292       -9.953       -0.519       36.736       30.890       22.697     1349.504      954.201      515.139        0.545        0.141       89.845       20.636        0.053      334.061        3.785      859.201
11/12/2014  23:48:00      -60.849       -0.849       -4.906       38.861       28.203       22.486     1510.201      795.396      505.639        0.327        0.141       60.855       19.754        0.105      334.005        3.693      859.187
11/12/2014  23:49:00      -33.895      -12.548        6.637       31.528       21.145       14.365      994.009      447.112      206.348        0.150        0.082       36.143       14.419        0.159      334.108        3.863      859.191
11/12/2014  23:50:00      -48.950      -11.877       -2.742       28.558       13.823       13.504      815.563      191.067      182.366        0.187        0.059       50.370        6.056        0.014      334.088        3.830      859.197
11/12/2014  23:51:00      -75.834        9.582       -4.184       29.003       21.103       10.530      841.178      445.353      110.872        0.363        0.070       76.437        9.033        0.014      334.074        3.807      859.174
11/12/2014  23:52:00      -48.111       -3.288       -5.732       21.798       25.967        8.739      475.169      674.291       76.364        0.179        0.061       48.224        5.783        0.014      334.114        3.872      859.139
11/12/2014  23:53:00      -27.987       20.559      -10.475       18.265       21.682       10.234      333.592      470.094      104.726        0.111        0.045       34.727        9.607        0.077      334.188        3.997      859.144
11/12/2014  23:54:00      -39.198        3.260        4.003       23.455       24.425       15.680      550.114      596.559      245.871        0.148        0.070       39.333        9.190        0.055      334.165        3.958      859.166
11/12/2014  23:55:00      -45.317      -26.992       -1.819       19.685       16.912       16.272      387.519      286.003      264.775        0.186        0.047       52.747       11.016        0.044      334.190        3.999      859.185
11/12/2014  23:56:00      -61.167      -25.116       -8.039       15.514       14.271        9.695      240.693      203.670       93.998        0.249        0.027       66.123        7.848        0.014      334.091        3.835      859.217
11/12/2014  23:57:00      -71.891      -41.991       -4.683       26.941       25.593       12.493      725.820      655.000      156.069        0.424        0.077       83.256        8.471        0.010      334.113        3.871      859.245
11/12/2014  23:58:00      -75.652      -33.964       -5.372       24.612       24.014       14.887      605.744      576.675      221.617        0.415        0.070       82.926        7.447        0.008      334.089        3.830      859.259
11/12/2014  23:59:00      -71.933      -33.726       -9.548       14.380       17.532       11.060      206.772      307.379      122.314        0.352        0.032       79.447        9.140        0.013      334.099        3.847      859.249
